GFSCGP_con_3kmhel_000.txt.gz
Helicity
5 -17 -3 13 23 12 -27 -16 16 -3 12 -78 7 21 51 67 185 166 116 170 209 183 76 78 170 268 298 241 180 149 124 88 135 118 118 129 149 158 172 187 204 205 201 178
24 50 14 2 58 43 45 35 25 22 -7 12 34 15 44 107 124 132 126 119 116 83 83 77 88 98 132 133 112 91 91 67 91 138 145 171 203 193 201 182 207 231 252 262
10 14 4 1 15 -27 -5 56 30 39 27 44 47 66 47 87 168 136 122 113 116 117 124 107 95 99 117 128 128 91 105 89 96 105 136 167 235 251 251 239 255 272 307 322
25 28 21 37 53 22 2 34 16 42 47 79 88 61 52 54 110 151 142 139 173 159 118 95 64 99 103 94 101 84 123 111 91 135 186 240 271 292 297 319 346 304 332 338
5 40 42 40 2 31 36 34 73 45 81 77 114 70 18 57 103 116 120 183 132 76 93 85 89 116 91 77 88 105 140 127 113 148 194 266 286 337 319 336 338 336 376 415
38 38 45 1 8 33 2 31 29 65 77 74 57 51 78 95 48 150 171 120 81 79 70 97 168 166 210 224 178 176 189 178 154 125 121 249 246 272 310 281 338 433 498 499
62 93 24 14 4 59 53 19 48 90 69 33 31 19 113 -20 80 81 92 62 75 69 78 79 125 232 254 300 272 217 165 119 83 72 147 144 187 201 211 217 288 461 615 700
42 43 49 2 -15 1 -12 -30 20 45 54 47 32 77 75 14 -65 -47 26 -13 48 78 51 107 195 270 272 274 273 235 235 164 144 120 149 134 153 165 147 157 252 450 581 691
28 -0 6 35 17 44 16 33 40 73 74 104 49 28 -15 77 -29 6 45 -28 81 88 121 112 170 288 327 283 192 129 110 119 137 152 161 188 206 185 200 263 341 481 709 835
5 8 1 4 18 39 44 65 100 68 91 81 106 95 107 38 25 55 7 -31 117 220 277 247 242 254 229 178 117 106 108 117 134 133 166 237 259 289 309 360 408 500 535 506
6 25 -6 30 58 79 70 86 83 64 108 131 153 162 106 48 99 16 -4 144 186 174 192 186 216 200 176 127 109 111 107 90 112 96 142 229 295 336 390 409 367 352 324 264
7 46 24 56 72 63 54 54 25 64 117 129 200 211 87 128 -12 28 69 125 148 108 143 190 160 127 86 67 94 86 82 100 118 82 155 246 306 382 428 414 335 311 259 179
31 48 40 65 84 43 28 -6 55 86 135 176 226 242 75 15 44 74 138 153 114 125 123 111 69 79 68 109 97 98 119 118 106 110 183 261 307 329 374 350 284 225 145 94
79 77 90 97 96 101 64 53 90 173 214 221 192 148 75 74 224 252 202 158 170 118 160 124 37 122 90 88 120 122 126 125 99 96 137 249 343 355 357 311 242 196 182 128
96 115 115 146 133 130 122 91 113 148 143 179 145 127 73 225 181 184 154 105 106 52 49 64 -7 123 92 113 117 121 143 142 156 208 247 351 404 428 372 366 391 263 143 84
105 117 164 73 113 143 163 140 135 93 56 118 123 106 174 123 124 149 94 65 90 -2 28 69 94 97 145 115 138 148 169 174 151 252 273 317 358 365 390 275 145 -36 -30 36
121 145 185 169 162 137 58 39 105 113 109 141 158 110 128 99 58 42 -29 41 8 87 141 134 97 122 128 130 153 174 207 152 248 214 160 110 96 64 -67 -93 -73 -41 74 112
135 191 182 166 152 160 119 123 80 89 85 89 144 154 124 39 54 92 -63 22 15 122 198 139 118 126 143 172 191 186 172 227 168 130 70 74 95 116 113 70 81 114 129 131
142 174 152 160 182 182 155 53 143 141 122 200 155 130 76 52 85 96 65 150 126 192 158 109 138 143 156 168 190 238 223 202 263 229 196 190 164 134 119 99 92 112 125 122
195 192 197 226 191 190 210 136 135 122 182 89 114 100 154 151 161 147 128 277 222 92 119 176 146 159 196 237 299 326 301 301 302 225 170 113 91 95 93 106 110 116 119 113
147 141 175 210 228 185 155 109 175 272 150 108 145 185 185 225 218 155 261 214 187 73 155 128 141 154 189 228 259 238 224 222 125 91 103 78 82 101 116 115 108 102 108 118
182 161 190 233 294 237 211 258 194 145 118 70 143 164 193 225 213 225 126 62 118 150 119 97 143 194 200 219 208 159 131 130 106 93 98 94 96 99 110 108 93 107 120 105
257 241 263 350 335 313 210 98 123 120 85 136 165 162 165 147 244 243 165 156 90 85 82 120 152 179 152 138 132 144 164 145 113 98 86 87 94 102 96 99 103 100 88 73
272 282 373 232 282 213 142 115 116 131 147 183 207 164 162 169 173 236 144 90 80 80 136 173 175 160 155 179 207 171 145 110 99 85 81 82 92 97 103 101 98 94 79 81
315 368 334 244 182 173 131 133 157 162 257 279 285 309 268 327 235 82 84 103 76 117 147 164 163 116 149 175 149 131 108 93 92 76 68 78 94 100 96 82 85 89 83 77
402 290 306 289 169 189 175 195 232 273 365 490 288 273 187 41 29 79 120 99 117 115 159 121 139 117 127 148 128 92 92 98 85 72 76 86 87 97 100 80 84 82 83 69

GFSCGP_con_3kmhel_003.txt.gz
Helicity
24 8 -7 -7 -8 -11 -21 -18 -29 -18 9 -71 -40 7 25 -25 69 61 74 120 145 129 98 64 56 97 172 163 133 77 68 58 132 108 77 77 102 128 170 185 162 168 193 207
33 11 -1 5 3 -2 -13 -6 -13 -6 -5 -11 11 18 67 60 56 44 80 109 142 141 104 53 30 28 71 84 66 48 49 67 70 103 93 100 139 120 166 209 222 234 247 235
13 13 38 -11 8 -12 -25 9 -15 11 6 50 15 40 58 56 58 95 71 109 107 88 68 47 36 46 54 70 74 77 94 88 95 118 159 172 204 183 216 207 274 293 343 318
37 51 32 39 5 -6 -19 25 33 -7 12 47 47 53 109 52 58 89 129 121 79 82 76 57 24 0 4 24 50 56 79 89 112 146 188 194 213 201 243 253 249 257 308 323
36 53 63 38 -7 -6 6 27 17 41 52 58 51 87 93 72 63 88 142 85 80 72 19 12 5 16 63 83 112 129 133 146 168 167 159 165 175 216 248 235 210 221 250 292
69 53 54 20 -11 7 8 32 42 55 62 71 75 88 112 99 69 60 64 48 21 -19 14 96 148 169 230 261 301 319 315 286 241 167 111 111 144 171 180 153 165 195 205 204
63 90 32 26 15 35 29 40 42 73 74 41 66 87 127 45 53 54 36 49 78 104 101 116 183 250 278 306 288 252 234 195 151 140 105 115 114 119 137 146 165 157 196 246
57 44 33 13 6 5 3 9 30 58 82 57 64 128 95 91 15 -15 107 90 90 182 172 208 201 238 237 243 251 227 158 90 84 123 156 148 135 163 166 159 156 196 286 404
39 12 5 -4 -1 9 14 28 11 57 64 94 59 59 51 175 33 45 118 144 179 207 255 203 161 189 217 215 183 154 139 124 137 147 128 131 131 132 169 202 236 273 351 421
11 14 15 16 47 57 59 29 47 57 95 59 81 51 103 113 33 17 57 140 171 122 166 144 144 148 172 150 110 110 154 140 126 122 108 103 124 165 214 288 294 340 372 364
9 28 -3 18 34 26 61 80 87 65 90 104 134 164 147 66 58 91 112 83 60 107 90 98 107 160 140 111 98 79 127 94 109 110 98 79 117 179 287 340 381 351 316 278
11 43 29 28 23 16 75 89 49 89 122 182 225 254 91 120 15 62 123 134 107 107 135 124 86 91 116 63 61 74 90 84 87 68 50 57 99 190 329 377 331 299 258 205
29 45 48 54 30 37 82 63 75 127 221 254 253 195 84 40 112 123 103 86 88 108 137 134 125 145 141 130 120 117 97 69 61 61 66 73 90 210 286 355 358 292 302 233
63 62 74 90 71 57 60 114 110 150 222 210 261 148 92 113 158 137 131 130 112 118 96 61 75 162 137 149 116 74 62 81 72 88 95 106 159 222 319 365 451 431 381 237
81 71 77 98 91 124 120 98 56 127 169 188 140 131 122 122 112 88 104 83 66 75 41 131 100 183 261 192 84 84 87 92 109 128 137 194 231 295 398 464 441 358 239 131
91 87 96 72 76 90 89 96 157 88 74 138 113 146 96 120 92 116 98 58 30 38 65 139 155 255 225 144 82 116 117 147 154 179 175 175 201 193 187 151 106 82 35 0
127 138 127 112 122 106 74 41 77 98 117 147 180 124 111 94 84 66 31 58 72 54 99 124 237 246 191 104 124 117 133 158 243 190 152 127 86 92 97 88 74 78 88 102
153 172 133 122 132 161 84 148 170 163 135 160 130 94 106 88 97 145 132 137 108 112 187 280 334 279 79 127 154 171 213 228 249 240 244 202 163 133 106 111 126 121 101 100
123 145 135 157 179 193 145 57 102 144 172 154 127 194 129 62 157 190 120 235 188 275 220 242 107 67 112 146 221 243 277 278 298 286 246 149 116 133 115 108 91 91 115 115
182 197 192 232 179 167 161 119 153 194 224 172 247 166 86 141 178 155 320 269 259 142 193 141 90 130 167 160 192 231 172 191 155 100 62 68 65 89 102 94 92 103 100 97
134 131 183 247 226 166 123 118 193 271 152 148 139 123 118 187 170 280 278 232 159 121 -8 71 121 141 141 153 210 182 110 110 103 115 99 100 99 92 105 101 107 103 107 101
134 137 211 251 224 149 164 261 231 166 164 153 131 143 138 159 238 310 253 220 134 59 74 107 104 138 148 143 182 144 119 171 145 135 99 88 91 95 100 112 111 110 98 75
252 269 248 267 258 260 280 165 114 109 104 119 147 144 200 254 303 334 258 148 56 -9 76 90 149 159 148 177 159 190 156 163 152 97 77 82 82 89 114 121 102 96 84 67
203 209 333 257 227 175 143 77 61 98 150 188 273 278 348 337 278 216 148 33 40 63 85 142 148 138 139 139 106 49 101 120 100 85 82 75 80 100 127 114 96 90 77 72
204 306 218 175 161 153 133 162 152 220 312 293 293 242 223 96 77 7 51 80 105 101 136 148 131 122 102 90 118 115 96 99 99 94 83 77 96 120 116 110 92 91 88 95
347 222 230 225 136 165 142 209 192 127 91 198 204 110 129 52 29 56 75 66 133 146 158 128 124 117 92 116 120 110 106 117 107 95 96 103 123 130 125 112 98 83 85 90

GFSCGP_con_3kmhel_006.txt.gz
Helicity
35 28 1 -3 -11 -20 -23 -26 -21 -4 4 -48 -24 12 49 53 62 35 28 59 95 94 69 56 36 34 73 81 96 79 64 62 66 100 116 102 101 111 119 116 135 180 210 238
45 23 -0 6 10 -0 -4 7 1 1 7 -25 14 48 90 117 113 80 43 59 85 95 76 83 74 1 -17 29 42 40 41 73 111 160 186 155 138 127 126 137 131 181 218 242
29 30 45 20 19 11 -20 -15 -26 -27 -1 29 14 72 93 82 116 98 79 62 78 92 83 23 5 -10 2 -0 33 46 54 93 138 156 158 158 147 150 147 138 166 192 197 185
59 64 46 34 -0 -17 -22 6 -17 -5 32 37 55 77 110 98 87 96 72 53 62 37 16 19 23 -2 8 40 49 55 94 145 180 188 175 157 143 139 161 185 183 162 135 148
34 56 63 43 -0 1 -37 -10 7 28 54 63 75 98 117 124 111 92 52 41 34 13 31 41 32 78 101 127 161 185 213 238 209 166 145 138 141 165 187 156 138 145 143 137
57 44 49 20 -2 11 -0 29 54 60 69 90 74 102 96 140 129 53 44 82 32 38 62 120 131 172 178 197 234 243 239 227 194 133 100 76 80 98 86 103 126 134 127 117
54 67 34 36 22 26 40 49 61 82 104 67 57 100 117 167 91 60 59 62 63 113 132 120 188 207 219 238 248 216 182 153 87 51 71 100 103 101 108 127 131 118 126 172
65 50 45 15 13 1 15 18 43 66 75 57 70 94 131 201 114 131 121 143 138 165 151 186 183 163 200 215 177 125 95 65 45 106 126 126 117 105 94 93 119 162 223 259
37 12 4 8 12 6 -0 25 11 45 62 84 54 68 93 260 252 161 142 155 132 191 163 171 151 176 164 125 110 110 109 125 119 120 106 82 74 55 66 108 162 231 297 319
20 22 12 -8 15 53 48 27 36 42 51 49 85 49 81 229 143 53 28 86 139 131 151 159 134 116 134 142 134 125 136 162 145 102 93 77 64 86 115 154 156 251 308 289
20 43 11 30 60 58 56 68 74 60 83 99 123 124 133 98 -19 -28 57 81 123 152 111 102 84 78 93 120 142 142 147 134 133 101 72 72 67 67 85 125 169 223 264 271
26 55 45 39 42 41 61 90 84 82 91 153 197 240 153 109 9 49 87 110 126 111 90 84 77 91 118 137 202 189 166 121 79 56 52 50 55 52 95 178 250 276 333 280
28 53 64 63 84 76 98 89 124 145 157 160 196 180 130 111 63 142 125 112 86 77 78 68 67 99 117 160 177 178 153 104 63 53 57 36 41 81 166 273 322 350 361 345
77 73 80 80 50 47 81 133 171 180 174 189 258 159 103 81 128 124 89 91 67 51 35 81 110 121 124 150 186 192 137 83 65 70 92 102 144 139 198 252 320 351 364 258
105 94 100 103 81 94 91 90 132 201 209 198 138 166 153 150 151 56 76 93 66 85 73 72 71 100 138 193 302 267 92 57 65 108 152 163 145 128 144 158 177 172 141 109
118 121 132 113 80 79 125 135 146 105 112 111 109 135 133 128 112 85 99 49 29 84 119 116 108 116 199 176 228 91 25 72 110 185 175 150 114 116 119 139 146 105 123 113
148 175 192 131 126 94 75 63 62 74 98 158 171 138 127 157 148 50 29 27 67 146 186 126 67 144 141 109 89 46 116 138 190 227 262 278 234 160 125 117 108 98 89 90
215 262 216 182 143 101 61 144 112 142 89 103 138 132 124 165 86 -7 -42 63 159 204 168 86 96 193 95 80 110 156 205 240 226 206 124 119 118 104 84 87 99 106 108 104
201 224 186 203 198 164 139 56 81 97 97 116 124 152 142 118 24 -19 -36 213 227 184 267 167 158 79 65 99 171 190 172 175 154 103 109 104 106 117 106 87 71 80 84 87
220 201 214 259 188 147 152 113 103 131 171 231 239 192 91 149 151 111 323 306 151 200 144 76 21 60 101 121 139 148 157 152 125 126 110 137 129 108 84 80 78 83 96 108
137 155 184 183 216 159 119 91 143 179 151 179 148 121 175 181 228 308 198 -95 98 95 31 -36 49 87 87 111 133 131 139 191 162 136 140 126 92 76 87 84 95 102 103 89
156 151 195 180 190 80 155 134 105 144 194 139 103 208 256 271 174 112 157 117 71 27 26 79 109 99 82 105 176 212 198 171 130 112 122 89 80 84 88 96 96 95 92 88
189 206 195 260 236 223 250 113 138 147 150 165 219 329 194 120 73 85 96 72 64 86 92 141 123 107 108 134 178 159 128 133 132 126 101 89 80 78 83 100 92 86 91 83
230 129 232 210 195 173 87 86 154 166 190 213 243 67 33 20 85 83 95 56 50 81 121 172 168 147 133 142 130 136 148 156 141 112 106 99 89 77 86 99 102 100 89 92
252 192 194 192 150 144 124 192 122 131 82 100 -8 -1 26 97 75 74 58 72 70 95 126 190 197 177 156 156 147 133 142 153 134 130 121 113 108 96 97 108 106 107 103 116
258 192 212 197 140 112 105 132 105 97 110 -6 43 98 102 80 48 78 88 80 77 91 129 194 189 182 178 183 160 135 145 140 145 142 146 131 111 96 91 103 108 103 110 108

GFSCGP_con_3kmhel_012.txt.gz
Helicity
44 14 36 35 38 27 8 1 12 24 35 46 37 45 74 64 98 85 55 40 60 104 103 102 98 105 109 75 75 122 149 136 121 109 110 116 131 119 118 132 141 114 125 96
6 31 27 28 28 19 9 2 20 21 31 31 53 55 97 115 143 132 93 80 75 108 144 169 159 142 123 109 123 128 147 139 127 125 122 122 135 145 144 146 140 136 127 117
35 48 22 23 43 32 20 25 32 18 15 29 37 59 86 105 122 111 104 100 126 156 165 146 125 111 103 119 130 151 169 151 151 138 134 147 141 134 160 158 137 139 116 128
61 45 30 27 40 40 22 35 14 6 17 55 47 97 96 101 119 109 119 144 157 149 124 113 95 99 136 160 169 163 163 153 149 158 129 130 143 144 150 139 110 115 102 100
45 42 43 48 41 31 58 29 27 29 24 41 68 50 121 84 124 125 140 168 149 130 121 107 103 130 155 170 166 157 138 150 129 102 112 108 101 99 112 137 142 104 99 76
67 45 53 47 17 16 29 22 27 35 47 62 83 76 120 112 132 152 167 183 159 138 102 95 101 112 140 136 128 114 108 102 80 89 57 31 3 84 137 146 124 130 103 57
46 60 34 36 17 8 34 19 37 50 59 103 65 51 200 131 135 158 183 180 143 122 115 111 111 140 173 165 148 136 137 90 97 35 36 134 163 157 162 160 149 121 99 88
43 46 36 21 23 23 41 49 67 70 72 68 41 71 127 97 127 165 172 146 122 119 89 115 151 151 152 125 110 96 63 94 134 153 149 158 186 187 174 159 120 88 57 11
15 35 26 31 28 5 29 49 34 47 43 28 62 71 68 103 144 176 145 98 93 71 94 118 129 128 85 61 71 117 157 157 157 183 211 189 180 158 121 80 38 -11 -1 45
17 32 32 37 22 58 51 41 33 51 58 39 51 33 38 97 113 140 120 71 71 66 74 128 134 103 66 85 105 128 143 148 143 159 190 168 148 122 72 4 17 62 94 98
18 18 50 30 39 45 51 56 68 69 67 49 22 20 190 115 96 102 78 78 36 70 109 137 120 86 53 66 106 129 122 136 173 166 131 101 81 73 79 94 104 116 119 134
13 37 45 65 74 64 77 100 93 83 81 110 141 96 97 57 54 77 79 134 90 100 123 141 127 102 85 108 97 129 168 157 138 102 91 114 98 92 109 120 122 121 111 102
31 51 70 84 95 102 108 122 139 132 133 97 103 87 130 49 51 42 107 121 127 148 182 165 132 108 109 119 135 137 117 104 89 95 117 126 113 96 115 107 84 50 80 98
35 78 95 109 116 146 152 112 101 91 152 110 119 47 11 64 80 69 119 117 142 142 158 161 118 144 110 85 64 68 90 110 98 84 118 149 135 130 116 113 85 74 80 72
61 101 126 107 69 85 118 86 75 96 74 115 45 54 58 68 65 80 119 106 116 129 151 167 141 113 72 42 55 95 103 104 104 90 107 144 129 116 117 98 83 101 111 95
98 138 145 146 101 98 91 68 57 55 34 80 65 59 120 78 98 128 104 115 138 155 166 154 113 70 78 23 113 117 80 86 95 112 130 124 129 133 128 93 83 100 76 73
112 153 186 187 116 75 81 42 104 87 93 78 77 124 101 114 127 132 106 140 192 233 137 113 52 31 63 133 110 91 80 77 98 111 129 158 156 138 117 95 91 73 68 67
159 193 194 205 129 136 183 85 57 30 16 59 78 127 133 109 130 138 224 232 234 150 119 90 80 116 85 75 85 88 81 102 109 111 125 158 160 130 106 95 68 63 62 62
124 167 206 192 183 112 31 121 102 107 36 144 139 139 97 143 127 184 210 164 126 69 64 109 102 77 83 104 113 109 106 103 112 117 127 144 133 114 91 70 63 62 68 69
162 147 171 202 187 193 165 110 39 101 90 166 149 87 95 102 151 167 123 56 14 74 113 99 86 75 97 105 131 126 120 124 117 115 84 103 120 103 73 64 64 68 66 82
206 188 163 104 150 130 111 120 102 118 185 124 148 124 198 200 129 82 65 74 91 76 72 91 89 103 107 111 122 133 125 131 141 124 110 98 124 99 76 73 71 78 81 84
178 206 150 115 144 104 120 104 138 149 118 168 159 181 148 70 108 105 69 75 78 78 89 100 108 108 104 116 130 126 115 135 155 130 128 125 120 101 89 79 81 85 82 100
180 171 179 185 173 125 86 79 118 147 173 197 131 93 59 40 72 84 88 78 76 77 92 111 123 112 107 98 116 130 128 152 183 162 126 98 105 96 87 90 87 87 91 121
219 168 232 199 125 54 92 80 190 202 176 145 139 28 33 59 77 87 78 82 97 99 123 151 123 122 105 91 136 179 200 129 93 88 86 76 88 106 82 98 101 98 123 136
205 195 141 126 69 83 114 200 194 140 148 72 1 49 74 91 78 78 89 92 113 134 154 144 135 132 117 118 129 138 144 137 102 88 64 79 95 93 86 88 95 95 122 152
123 76 185 210 92 182 144 176 96 46 37 80 89 96 97 73 79 97 112 129 131 146 133 134 120 116 102 112 119 147 120 103 96 59 64 92 88 94 87 78 71 163 153 151

GFSCGP_con_3kmhel_015.txt.gz
Helicity
9 50 55 101 62 89 80 31 28 57 63 38 42 33 90 53 49 70 47 53 51 32 143 229 156 117 108 99 110 112 183 172 117 133 127 121 108 127 111 155 199 171 207 173
17 43 42 32 28 32 22 19 32 35 32 34 37 32 88 88 120 114 108 99 112 161 186 172 204 198 164 139 114 127 129 141 166 156 135 113 128 121 142 104 232 122 190 134
70 78 30 25 30 49 38 61 60 42 20 -6 13 49 85 99 107 139 161 145 126 155 139 164 172 145 117 128 139 157 177 195 191 162 152 150 115 128 141 180 143 145 148 116
48 47 33 28 40 62 44 62 29 13 9 9 34 42 143 130 132 123 140 147 144 144 154 141 126 110 116 136 157 177 187 167 139 131 126 90 74 100 126 78 143 163 99 108
47 40 38 42 65 52 86 37 22 17 17 29 37 16 182 84 106 116 152 157 154 165 162 142 114 105 104 110 151 159 132 131 126 97 83 64 107 176 124 130 173 146 151 186
79 45 66 71 33 22 17 6 13 10 31 56 92 32 73 90 188 133 155 151 159 168 124 102 86 75 115 158 171 136 115 106 80 86 103 123 88 88 104 130 146 176 181 148
36 58 50 40 14 15 10 9 32 40 47 67 77 37 148 171 155 180 131 134 163 156 118 87 75 110 158 144 124 110 94 79 101 97 83 107 119 135 141 158 182 164 136 124
37 47 30 15 24 15 18 21 60 62 79 65 61 40 152 116 111 115 137 166 145 147 106 103 99 118 135 142 123 105 64 55 96 150 183 176 181 186 191 193 139 103 89 69
11 39 30 24 24 8 35 43 30 36 51 44 46 106 86 112 84 104 120 110 138 125 114 110 113 113 127 132 141 122 90 90 124 178 164 167 135 141 152 129 78 86 71 64
12 24 29 40 11 28 28 36 23 46 54 56 66 31 94 91 89 134 51 98 110 90 91 114 99 125 143 154 135 137 107 127 170 142 121 129 134 156 115 105 123 138 127 126
15 6 46 21 29 33 44 45 43 50 85 87 81 68 111 142 187 160 147 94 94 84 76 58 108 134 121 138 168 146 160 141 115 133 173 160 152 147 131 128 160 177 137 127
-2 6 26 49 67 38 47 83 74 81 95 119 104 77 141 123 96 68 35 37 100 68 41 94 135 166 165 203 243 160 151 121 145 151 128 106 120 127 130 230 140 193 133 71
3 22 23 82 107 116 80 121 112 138 133 82 112 94 77 81 24 23 72 110 123 182 185 187 212 189 156 217 164 145 135 153 130 103 100 105 100 185 178 169 164 122 107 90
20 45 54 59 81 134 139 111 107 108 148 83 80 37 21 43 65 146 143 105 210 175 132 189 223 140 168 126 145 141 112 130 98 98 88 105 172 188 116 126 126 132 114 105
41 66 72 58 61 100 124 97 75 83 86 111 53 34 17 79 156 117 86 119 129 124 131 218 155 143 86 122 121 102 133 87 109 119 106 140 170 151 160 175 155 129 118 91
60 98 94 83 86 101 89 65 37 58 59 52 49 46 81 103 110 112 119 67 147 197 170 141 126 106 115 155 120 125 86 125 106 102 140 114 176 208 148 149 138 114 90 86
81 102 111 115 111 84 149 111 120 96 66 74 80 42 76 98 177 189 164 178 200 181 107 83 92 100 141 129 91 111 118 78 98 108 108 163 218 170 154 117 122 105 90 75
111 120 147 146 140 139 244 100 25 77 34 40 50 122 176 172 131 160 215 199 165 120 99 107 131 117 97 96 80 100 100 98 84 94 122 176 187 137 107 124 105 103 83 84
103 138 150 157 158 139 52 186 156 75 42 55 166 157 96 97 83 145 184 132 72 56 92 121 108 109 95 73 62 84 117 97 90 92 137 175 176 122 147 123 115 87 86 82
148 162 141 193 203 212 201 171 123 69 73 223 134 129 83 85 143 129 177 122 118 120 106 111 105 66 68 89 93 126 91 83 82 110 147 229 151 176 169 134 96 85 71 87
134 144 165 166 213 163 105 140 111 134 165 141 121 111 129 128 141 102 34 56 74 80 67 63 73 109 120 149 114 107 62 82 78 96 177 217 239 134 147 109 72 73 73 106
85 107 152 208 228 147 138 166 203 138 82 144 199 140 70 126 84 34 66 84 63 72 91 87 132 153 163 125 120 114 74 102 159 264 268 271 163 161 86 81 66 81 86 118
77 116 163 226 200 112 119 99 88 176 186 149 169 127 107 36 64 85 74 74 88 97 113 135 158 160 130 114 94 103 108 147 140 100 79 64 98 61 61 83 79 91 84 124
98 88 270 173 138 79 73 85 200 249 114 135 133 9 45 37 82 78 106 102 101 116 131 148 146 142 112 89 76 94 205 130 118 98 96 95 60 86 69 74 81 105 110 114
119 123 158 155 82 99 104 250 255 151 97 107 21 89 87 90 94 104 108 107 131 127 134 138 103 85 94 91 126 158 142 152 86 85 80 42 47 57 78 65 109 97 123 145
123 87 136 163 128 209 193 197 107 29 48 86 104 114 103 101 109 106 124 132 119 127 95 92 87 103 123 147 158 110 143 113 80 67 33 48 58 79 79 70 72 124 118 138

GFSCGP_con_3kmhel_018.txt.gz
Helicity
19 63 19 140 91 90 104 98 42 63 101 37 10 7 62 137 22 32 0 19 69 215 244 268 273 268 167 135 266 273 210 157 136 165 204 217 254 246 195 184 182 224 163 180
15 15 59 57 56 53 77 83 33 75 59 26 23 10 154 158 107 62 67 79 144 180 174 195 260 281 244 193 172 159 158 189 202 231 161 127 154 118 100 81 172 192 183 253
52 114 34 57 32 58 11 62 93 69 44 13 -19 -11 173 165 75 129 146 150 185 208 190 160 191 181 154 151 139 143 149 148 169 215 229 174 117 102 136 168 142 187 273 229
66 42 29 24 41 53 81 92 43 21 18 26 81 4 138 140 125 166 231 268 249 218 223 182 144 122 113 121 138 142 170 207 201 156 160 156 153 181 165 162 179 239 222 215
27 18 36 32 76 45 100 40 31 23 18 22 2 29 192 128 144 168 172 212 228 240 203 168 139 123 113 92 103 129 121 133 124 99 79 57 70 91 117 132 152 173 231 159
84 55 74 75 30 33 31 18 14 4 10 60 -24 35 123 36 116 88 182 203 166 118 123 135 89 48 55 50 65 108 102 127 126 132 122 88 83 115 157 194 225 224 141 101
17 47 40 23 12 19 4 29 27 37 37 55 57 28 139 148 207 189 201 168 163 150 191 163 164 198 164 141 98 100 120 118 118 164 216 282 317 305 305 266 203 127 84 75
36 42 7 8 19 7 1 1 32 50 75 49 20 53 191 170 141 191 240 196 89 99 68 89 90 77 107 165 141 166 168 132 141 190 261 271 279 242 197 186 125 93 98 88
24 41 35 24 14 16 18 52 19 42 53 57 7 120 173 134 88 89 149 75 128 101 94 104 119 137 201 198 174 142 162 127 202 196 185 204 204 186 177 140 108 89 134 137
14 20 15 18 7 9 17 16 30 60 65 71 36 55 133 53 63 130 8 123 203 100 119 144 129 222 242 205 191 215 222 218 270 266 250 251 200 178 168 104 111 223 163 135
60 -1 23 21 9 40 52 75 54 51 81 112 104 82 88 99 120 145 160 134 143 188 167 163 267 240 219 194 234 184 262 299 264 218 205 189 153 139 122 264 263 198 145 114
14 -2 -5 37 36 31 51 93 73 121 108 160 177 118 42 120 119 172 122 123 95 146 250 291 225 184 181 191 151 208 272 287 197 224 177 137 129 148 234 265 193 132 103 109
7 9 0 74 65 77 80 144 122 178 174 110 138 111 35 180 78 106 71 76 196 228 185 162 144 147 186 173 206 184 238 212 290 168 138 153 149 196 243 229 120 137 146 132
20 25 35 46 58 92 106 108 89 105 263 187 132 38 -6 17 79 82 133 208 243 196 166 226 199 163 136 125 121 239 190 218 206 204 227 162 176 216 317 260 197 176 169 162
43 60 57 38 48 80 101 96 98 97 79 125 76 43 34 128 98 217 272 250 180 165 192 220 138 141 111 134 179 142 131 168 203 217 212 175 175 225 397 260 213 195 159 157
59 74 74 55 70 95 72 73 53 72 77 74 108 37 68 149 250 213 150 121 178 247 220 149 112 131 163 130 110 119 113 150 161 161 193 115 347 272 265 268 171 170 177 205
91 101 97 89 79 52 99 134 136 123 103 131 111 58 151 206 243 187 88 150 238 167 132 129 144 138 168 133 120 100 81 77 144 136 138 177 171 265 210 182 240 196 235 179
116 131 127 117 88 107 158 110 100 146 144 86 66 131 161 243 172 76 218 197 160 134 109 70 69 136 115 132 79 97 151 179 109 92 102 167 239 190 158 220 277 265 219 161
110 123 142 139 137 88 18 189 176 144 42 72 196 274 216 182 66 82 223 205 145 86 56 97 104 88 110 102 113 206 238 143 99 56 143 63 156 131 176 202 318 171 147 139
136 134 133 174 150 115 136 229 205 100 119 245 170 158 173 75 101 158 176 118 83 75 106 88 73 85 106 141 221 245 190 158 113 77 128 168 208 299 239 207 140 126 87 153
184 166 156 141 129 65 78 188 136 222 242 160 151 181 112 99 165 138 66 58 126 93 71 69 81 164 179 211 206 186 167 133 185 180 123 71 54 89 90 98 24 88 129 140
166 157 137 126 119 74 156 184 267 240 145 148 233 156 146 90 91 111 158 137 82 108 120 143 198 218 236 181 155 167 179 242 199 149 107 94 70 65 81 75 92 106 128 166
177 140 147 147 123 79 138 217 251 222 238 278 169 175 131 61 84 159 122 103 123 140 176 195 201 207 121 103 123 205 287 251 212 140 102 80 76 62 92 73 100 116 153 150
186 100 202 228 192 129 158 229 353 363 252 201 154 122 29 117 160 103 107 137 160 192 170 189 163 112 131 119 187 269 245 178 166 114 91 75 55 59 60 89 107 144 131 122
175 164 163 165 120 134 229 340 310 258 269 108 69 92 115 105 86 132 143 148 174 167 175 150 116 180 176 167 202 189 138 149 144 111 78 72 55 64 69 70 111 107 112 119
178 154 185 166 160 261 328 319 250 192 173 -1 114 117 100 126 124 142 171 169 157 181 153 146 153 176 162 171 159 126 157 165 135 97 76 51 53 46 51 69 80 95 105 93

GFSCGP_con_3kmhel_021.txt.gz
Helicity
43 28 27 44 53 59 50 60 48 79 99 56 18 -26 131 116 48 30 133 167 376 415 419 522 535 485 383 265 318 280 302 272 250 237 191 204 238 207 162 127 154 179 223 304
22 37 39 4 10 44 45 79 82 27 49 38 68 64 66 165 193 242 229 206 262 311 322 362 395 414 388 293 245 218 181 179 234 260 260 251 206 219 260 273 269 273 307 316
36 25 29 61 66 102 125 62 101 78 41 11 12 58 151 202 278 373 157 72 72 102 180 224 245 249 266 270 195 145 110 119 161 195 168 175 171 164 166 167 154 186 227 255
16 34 49 54 58 78 96 77 47 47 40 29 78 85 220 261 334 410 424 336 262 185 143 96 85 155 172 178 171 148 81 82 105 118 125 126 113 123 118 151 184 200 208 206
16 35 84 91 30 35 35 30 23 31 38 50 65 67 150 275 291 297 313 305 245 220 180 114 65 79 76 87 95 79 135 138 113 94 63 62 115 152 187 190 198 178 143 111
48 37 34 42 31 38 27 62 68 81 91 73 78 40 179 186 198 298 243 196 163 183 110 89 117 111 50 8 -8 56 107 125 148 181 249 279 281 273 259 221 150 77 57 77
20 26 -6 25 15 29 31 53 57 64 56 51 19 89 53 232 207 232 306 342 322 209 173 175 162 124 94 142 163 170 173 156 153 153 172 219 257 258 238 186 114 110 84 47
47 57 18 15 41 6 13 18 38 46 54 18 28 103 159 256 313 261 211 189 135 105 89 136 155 179 205 260 280 238 223 196 216 213 265 257 231 183 166 135 93 110 129 94
83 20 25 19 22 30 7 31 15 50 18 45 56 61 141 68 97 121 90 49 24 6 107 178 272 326 306 304 258 232 255 262 308 326 323 270 218 171 116 94 177 159 114 65
99 27 24 15 14 -2 23 22 41 38 60 39 61 86 64 85 127 130 126 118 126 186 295 340 317 280 278 238 180 197 227 246 261 269 301 228 193 175 177 239 232 177 112 72
94 20 -3 -11 -7 12 22 56 55 64 116 109 59 75 79 54 110 154 176 180 221 260 289 275 252 204 186 165 112 150 174 209 256 263 216 181 158 154 208 257 214 199 117 95
44 3 6 3 -8 2 47 86 103 125 87 137 175 69 13 165 196 216 213 196 227 223 188 159 196 205 166 126 136 148 215 266 230 188 154 172 188 228 241 288 235 238 155 133
8 5 22 11 7 1 19 126 147 223 237 175 219 91 40 88 59 98 173 199 210 174 198 249 223 155 137 102 122 172 179 151 124 127 165 206 179 235 212 323 243 289 145 160
40 29 53 60 69 73 71 67 87 206 260 232 249 156 46 71 49 201 297 354 288 244 235 224 168 108 100 115 153 160 146 124 138 167 184 212 177 166 291 357 360 246 190 165
54 66 63 62 52 60 70 62 61 85 118 195 104 140 268 192 207 264 265 257 241 183 162 162 134 95 121 160 162 133 120 121 164 204 190 206 174 232 273 293 309 368 151 133
65 55 71 79 125 110 71 36 51 70 127 173 170 206 90 159 250 269 187 187 170 98 72 117 111 116 129 138 119 119 170 270 216 161 144 146 179 158 151 172 187 228 74 152
77 90 95 74 96 91 117 85 92 88 140 128 179 178 245 295 246 138 133 96 84 72 123 139 123 100 98 103 139 347 280 212 173 167 169 180 108 53 29 121 212 209 136 226
105 126 126 106 120 140 93 102 171 180 191 162 270 407 433 287 154 77 84 127 127 131 133 147 147 126 115 192 261 236 189 182 173 135 172 135 79 22 11 40 182 238 167 211
118 154 162 153 143 114 138 144 145 155 126 199 279 304 262 180 104 133 126 112 113 126 127 126 120 137 177 219 205 177 164 131 140 203 176 126 89 50 44 114 155 25 122 156
193 170 173 178 176 128 136 216 153 152 183 244 239 229 196 152 145 99 144 148 111 107 128 162 142 168 207 199 160 140 134 205 227 195 153 126 83 94 96 54 23 66 92 110
198 180 175 210 182 112 78 176 146 228 148 251 262 249 183 128 112 83 124 117 128 163 156 172 193 199 179 114 135 174 244 236 203 171 117 74 103 90 92 80 55 86 146 159
143 168 152 193 176 112 81 189 241 177 245 278 297 240 171 158 121 149 199 193 170 172 179 189 209 175 143 146 183 248 240 205 172 131 101 106 106 118 100 78 67 130 156 135
195 156 146 188 143 101 131 166 258 294 298 309 267 165 161 162 181 202 173 169 163 175 176 178 186 155 156 197 215 225 175 147 113 102 110 103 89 80 67 88 94 97 96 79
160 183 218 245 152 136 249 331 358 367 357 313 239 182 148 231 216 190 179 174 177 175 180 184 167 167 188 178 187 144 112 116 130 121 93 101 104 69 55 54 66 77 68 60
137 212 221 237 236 227 378 375 395 365 314 245 145 135 261 260 201 205 189 179 156 154 142 144 141 151 147 160 139 120 124 187 168 114 88 89 67 60 45 58 72 46 31 56
174 176 204 188 148 233 305 292 278 282 213 130 187 293 249 246 216 181 157 145 150 131 124 128 117 132 161 142 109 145 166 182 156 106 80 73 66 60 55 49 49 57 62 55

GFSCGP_con_3kmhel_024.txt.gz
Helicity
66 36 51 59 30 13 1 26 86 114 46 14 51 35 83 -1 102 233 342 399 455 547 503 518 469 380 339 338 343 223 261 217 177 199 251 301 329 315 337 353 354 343 319 263
55 66 32 53 27 32 50 61 99 86 91 42 92 129 207 164 214 271 373 422 472 459 505 473 396 356 298 209 168 177 170 177 167 152 147 156 151 167 150 180 241 250 236 191
38 32 47 64 93 74 128 110 84 48 55 39 88 133 187 266 328 324 301 291 333 272 332 307 264 226 218 218 158 94 80 84 106 129 139 161 133 128 154 159 123 105 65 73
48 67 54 73 63 55 52 69 75 80 58 48 94 140 243 279 376 322 312 318 295 222 168 119 112 153 158 145 131 102 72 50 38 84 106 112 120 118 76 70 71 76 54 47
43 44 81 68 36 37 20 51 43 49 65 68 155 166 196 244 284 283 232 162 159 83 16 10 25 39 39 79 91 76 73 43 68 101 85 87 122 111 138 150 167 145 91 64
49 9 30 25 30 57 56 69 85 95 101 118 156 123 181 222 213 183 144 174 59 -20 -46 -13 -15 23 50 50 69 100 120 101 129 149 135 170 189 198 200 176 144 92 76 80
74 55 31 47 52 49 62 46 52 77 70 82 52 99 147 104 250 254 247 208 133 75 45 58 54 64 102 89 105 116 163 173 201 239 250 241 237 216 186 141 123 138 112 67
58 57 43 51 26 12 16 22 39 40 44 24 67 98 123 155 257 177 158 149 90 28 52 74 147 217 224 226 213 223 208 194 183 223 230 223 164 117 68 77 93 137 99 75
42 31 18 16 36 13 9 16 16 32 20 65 84 138 66 94 111 131 167 105 139 205 250 290 304 298 294 245 177 183 194 182 213 267 267 207 116 80 96 93 148 140 130 130
41 42 27 43 50 57 14 5 1 -2 35 86 108 127 114 129 96 163 155 264 284 274 302 307 300 271 223 164 122 104 183 176 210 194 163 140 124 113 135 174 163 169 174 168
55 32 55 40 14 -21 -20 -9 14 40 56 80 136 145 113 96 162 238 320 295 240 249 221 193 229 208 180 141 133 126 179 181 173 168 143 111 98 133 153 189 223 240 233 218
79 35 13 -12 -30 -12 20 39 44 62 58 104 115 113 70 137 149 185 178 158 142 174 270 343 191 134 142 115 146 139 148 143 133 107 107 126 133 143 179 195 212 240 249 278
92 16 38 2 10 20 42 40 83 121 104 106 159 105 45 146 191 172 247 297 345 293 238 183 152 127 160 207 192 133 135 152 117 109 138 155 197 224 191 219 214 253 216 242
71 35 11 30 31 45 66 95 107 135 148 143 192 163 167 277 339 301 308 284 285 257 221 187 169 113 148 166 159 148 206 180 162 195 230 210 181 134 128 193 179 198 238 266
59 34 69 89 84 78 82 84 80 102 116 157 95 165 242 342 378 349 323 294 299 276 235 181 120 113 130 148 148 214 190 208 211 233 220 170 112 102 109 67 59 99 137 167
84 54 94 88 102 113 77 49 69 87 97 145 204 231 301 336 288 272 254 254 227 203 135 61 50 122 118 173 188 195 204 206 201 195 177 119 104 116 81 76 67 136 183 199
74 89 105 81 119 113 87 103 106 126 148 144 150 201 360 312 260 187 168 142 107 59 35 45 134 145 180 168 172 200 170 151 183 184 137 78 102 88 53 48 90 163 215 213
85 124 131 101 143 133 123 95 90 166 170 220 268 282 286 263 232 174 96 62 23 5 106 164 208 180 153 155 171 148 118 157 200 133 87 103 93 58 45 94 103 93 103 54
115 133 143 133 132 124 153 170 167 158 135 167 217 249 267 241 198 151 102 88 96 114 178 216 148 136 155 151 117 103 173 198 163 153 142 107 77 56 84 109 99 84 64 98
188 185 170 166 169 125 137 160 174 212 144 150 192 213 225 254 248 129 79 147 183 191 207 194 148 132 144 115 124 156 190 202 183 148 101 72 60 80 116 132 121 123 99 116
165 162 155 196 174 141 97 220 200 232 96 138 191 207 220 229 166 129 148 198 217 220 195 144 151 149 120 122 149 213 214 191 131 113 93 86 96 99 121 109 107 75 124 113
116 146 149 213 214 140 145 241 246 145 177 186 223 227 227 209 185 180 210 278 290 233 198 185 168 145 147 182 194 188 176 127 117 98 96 103 88 124 132 111 98 92 94 97
155 150 127 157 121 149 114 167 183 218 242 225 252 246 241 227 257 268 317 321 228 205 179 153 158 169 168 169 170 172 133 105 117 119 125 109 114 130 118 99 89 85 76 66
119 201 177 213 140 129 148 242 280 289 288 299 280 291 253 249 191 281 271 224 198 165 148 129 156 155 140 154 152 127 104 117 169 156 132 105 102 96 98 99 87 62 42 40
101 173 172 223 222 263 296 267 303 362 325 278 286 293 233 299 302 237 210 194 159 138 129 136 138 136 125 125 115 91 87 162 178 152 130 88 82 92 94 87 68 39 20 53
178 174 211 191 138 188 182 232 257 261 209 230 271 393 361 277 231 194 179 141 130 139 139 141 136 129 115 102 104 134 156 163 130 123 125 83 73 70 90 84 66 49 54 53

GFSCGP_con_3kmhel_027.txt.gz
Helicity
125 55 33 48 46 25 24 44 22 22 41 72 -6 20 88 128 230 248 261 334 375 431 344 388 390 372 386 337 296 201 209 229 240 230 192 230 215 237 276 267 239 212 177 143
83 67 69 36 36 24 50 -2 62 93 115 80 101 167 166 179 194 234 375 483 528 573 575 562 504 446 320 288 208 228 257 183 115 106 106 141 177 188 147 120 118 104 102 92
47 94 44 33 49 47 79 81 96 74 98 91 136 170 166 179 240 290 368 378 383 389 424 384 333 223 140 114 104 98 52 46 62 80 92 117 125 94 114 124 82 71 77 62
60 87 59 69 51 32 68 110 125 117 108 101 135 124 178 202 266 300 264 239 240 223 200 102 69 26 32 9 21 19 12 13 30 43 59 57 60 99 105 48 10 35 65 54
58 47 61 64 43 56 44 67 78 84 95 135 181 195 176 203 177 195 201 180 113 47 35 31 -23 -29 4 11 26 26 48 70 62 78 91 96 123 115 98 109 107 96 102 80
82 41 52 46 69 54 58 81 115 112 89 119 151 168 129 146 151 177 140 122 52 38 9 3 13 49 69 53 91 103 110 93 111 146 160 177 168 150 134 100 119 122 111 106
107 80 62 66 60 58 69 83 81 82 53 53 125 123 112 32 133 137 133 64 47 28 6 -23 -34 62 112 130 171 130 127 123 148 194 204 170 157 144 145 145 137 109 101 114
65 84 76 75 49 21 43 38 35 15 39 59 72 96 99 94 240 156 101 92 119 124 61 72 154 183 155 181 182 132 133 124 162 187 180 157 128 135 125 117 97 109 121 137
59 61 60 46 45 23 21 46 28 59 51 70 79 118 143 107 246 217 101 85 143 207 230 274 232 260 268 218 182 153 148 178 154 121 121 95 106 121 118 85 105 124 132 143
33 57 55 54 40 53 21 12 1 15 40 50 65 114 142 139 157 132 165 208 251 306 320 327 326 276 229 249 148 160 186 179 124 134 135 126 94 103 121 137 123 147 165 190
62 50 57 42 53 26 28 8 20 22 35 62 67 65 104 162 179 198 199 230 287 300 309 318 306 284 209 174 173 140 127 115 138 115 112 113 110 122 142 143 159 185 217 237
84 42 89 51 64 49 21 21 34 52 43 67 96 76 108 134 227 242 215 232 312 360 384 387 333 280 226 160 105 78 174 185 113 111 126 131 157 164 148 164 168 173 195 248
69 69 93 85 84 68 48 58 75 92 72 59 93 53 150 220 252 238 325 352 396 376 352 291 207 173 136 91 59 210 196 161 168 167 165 152 158 150 138 107 116 136 169 199
76 63 33 11 19 61 66 96 98 114 100 106 133 133 175 234 292 338 351 352 325 278 260 239 197 165 123 107 251 180 180 157 139 147 147 157 140 115 127 146 130 107 152 219
78 37 64 76 87 81 83 99 116 126 129 151 86 124 111 231 298 323 303 295 285 278 249 229 232 130 192 193 149 160 148 132 127 130 144 142 125 124 139 137 111 108 131 165
102 43 84 76 108 108 72 91 103 98 118 103 126 130 117 203 243 268 270 274 240 210 206 154 172 167 129 159 150 137 114 115 126 132 159 121 154 149 126 90 83 69 128 167
79 77 92 62 109 107 65 95 174 158 156 180 205 139 263 233 240 259 245 214 192 174 151 147 132 104 133 133 114 100 97 113 135 166 167 171 143 118 102 82 88 75 92 85
79 114 130 96 134 148 103 134 120 146 151 171 174 162 232 233 208 223 214 200 163 129 105 102 143 145 120 106 102 95 110 116 183 205 184 133 118 111 82 76 86 87 80 80
104 119 143 149 151 149 139 155 194 200 126 158 162 204 215 267 295 229 179 149 122 120 150 176 165 125 108 113 113 112 122 177 181 166 131 124 133 117 99 83 101 123 114 98
176 186 175 177 171 138 94 133 170 221 160 134 190 192 252 326 288 166 179 153 160 220 229 203 151 148 150 123 106 122 135 152 156 138 135 141 133 111 94 83 88 110 105 119
130 145 135 184 171 148 99 185 240 257 100 139 101 165 288 283 202 183 196 183 245 248 252 201 170 148 119 101 130 138 150 151 139 135 138 129 127 104 100 95 122 129 148 131
108 117 121 184 205 160 168 304 212 114 178 120 141 182 202 203 248 249 265 332 293 265 242 200 181 152 128 115 158 165 148 130 131 144 159 143 126 127 140 147 154 146 129 114
163 131 121 128 116 116 67 121 123 167 193 170 206 219 235 275 282 321 339 300 230 238 199 168 156 141 142 151 185 163 132 124 130 188 181 153 121 135 140 133 146 147 120 93
120 151 172 189 117 107 108 78 158 184 204 225 282 324 330 308 375 301 213 234 230 191 167 139 144 159 161 156 160 141 116 102 117 171 166 148 132 120 120 133 141 113 78 68
114 152 133 164 132 151 142 159 194 242 273 328 357 309 290 361 224 249 238 227 182 149 133 137 155 157 155 163 146 127 113 121 120 147 158 153 147 115 99 105 110 89 63 72
178 203 217 188 116 149 134 143 217 308 321 319 326 345 285 240 230 228 217 169 144 135 138 160 155 149 158 158 137 120 106 135 133 135 149 163 148 118 97 103 100 63 58 57

GFSCGP_con_3kmhel_030.txt.gz
Helicity
84 73 64 31 16 44 37 36 55 37 24 61 41 14 28 61 173 126 165 193 228 221 162 170 197 229 341 361 443 461 313 216 98 75 90 122 96 101 124 123 124 131 108 114
108 117 59 56 54 53 69 64 44 68 90 81 83 85 80 109 147 90 144 229 284 314 331 323 281 258 249 181 103 69 26 -73 -42 20 22 50 44 94 131 142 168 145 114 84
40 62 41 47 68 86 85 76 56 46 114 147 107 110 102 122 146 175 208 247 296 292 279 252 223 151 77 -5 -40 -37 -58 -38 20 72 98 109 137 129 122 156 156 111 74 69
55 74 43 64 55 20 28 52 63 100 108 106 135 96 136 137 182 204 219 216 184 164 147 114 81 93 110 73 67 90 75 55 32 38 68 85 80 114 148 164 121 111 96 61
77 79 75 61 35 32 41 67 85 93 108 122 150 135 115 192 185 167 144 130 108 72 69 51 91 86 64 28 14 51 76 77 41 60 84 116 168 180 182 145 139 129 95 73
84 75 62 43 59 62 52 88 124 111 95 92 124 158 87 149 147 126 93 82 52 59 44 105 121 70 66 34 48 115 53 66 94 110 133 163 171 161 142 117 124 122 106 89
113 75 59 66 71 71 86 102 84 84 105 31 126 107 47 37 90 126 92 71 59 89 98 119 82 88 153 108 92 95 110 130 122 144 179 181 147 120 110 124 147 132 140 157
59 66 68 74 70 52 75 74 56 -12 15 37 85 56 71 23 54 119 73 22 95 86 75 118 201 159 148 108 139 125 155 118 131 168 161 114 98 108 112 120 131 124 140 132
62 67 72 72 69 50 42 54 49 60 48 8 51 62 51 102 153 195 173 153 78 62 105 189 158 142 193 216 176 141 138 116 130 132 105 78 77 93 101 93 111 138 155 184
44 65 83 68 57 77 42 36 40 40 6 24 17 44 72 86 112 177 190 118 111 130 193 235 230 253 281 258 208 161 121 101 82 81 90 112 127 126 130 139 148 167 186 210
74 67 60 57 57 49 66 38 45 33 40 52 39 28 48 150 138 169 139 155 191 231 295 320 350 340 323 296 199 139 139 118 86 133 147 157 142 133 153 166 177 181 182 174
80 50 60 61 43 45 33 25 42 57 47 75 81 43 42 54 132 168 190 196 256 333 371 351 344 337 278 168 205 227 119 120 154 157 165 156 154 172 181 170 174 168 149 137
60 66 90 93 75 71 36 63 85 107 92 78 104 38 68 110 183 178 263 333 383 393 359 326 282 255 220 242 194 113 169 177 179 154 148 165 164 157 157 154 143 131 130 136
80 68 45 5 28 65 73 91 100 118 103 99 112 105 98 121 167 213 290 342 355 334 301 250 225 215 234 195 119 151 177 159 137 124 137 140 130 120 123 124 128 124 119 130
70 52 73 78 75 62 54 64 100 119 135 137 93 117 91 128 181 219 288 340 334 287 254 235 219 223 174 126 163 194 159 112 96 107 134 125 113 132 135 135 126 115 126 130
98 49 74 55 100 104 62 60 90 118 161 128 139 75 123 126 231 266 287 301 268 239 220 202 237 146 119 165 183 140 109 92 109 109 115 126 152 153 145 125 131 123 102 93
97 75 73 34 99 104 28 91 175 199 221 217 178 128 170 177 189 229 254 248 222 217 194 182 148 140 177 159 132 118 91 98 94 118 156 174 164 140 120 113 123 120 94 93
84 108 113 74 116 123 91 114 116 139 160 205 205 161 142 167 213 213 215 231 205 185 163 161 144 174 150 141 117 89 94 90 118 145 149 159 145 123 113 120 116 112 110 107
110 108 126 122 119 129 105 126 144 175 116 190 186 180 204 211 259 184 194 208 189 161 163 146 171 157 155 123 100 104 111 116 121 141 143 135 135 129 132 128 110 110 121 128
148 158 150 159 156 126 70 109 132 188 170 164 205 180 204 222 233 139 225 223 201 186 193 218 206 187 153 115 111 117 109 124 128 131 131 142 157 151 135 119 101 120 130 135
122 135 143 205 184 160 79 137 199 227 83 74 99 134 170 163 159 140 198 253 253 227 266 244 224 202 143 116 123 125 127 123 132 136 140 164 175 158 133 119 122 138 160 176
102 113 114 168 200 139 128 205 152 78 95 55 66 98 124 186 222 209 273 330 354 333 254 248 223 170 130 116 130 136 142 150 149 139 142 178 187 161 147 147 155 161 150 146
147 132 135 133 125 105 25 70 91 130 124 111 131 144 184 290 270 319 348 404 360 210 250 207 167 141 132 135 150 169 163 160 152 137 125 150 176 161 143 147 148 151 145 136
108 140 170 176 99 87 68 63 93 128 136 153 169 244 276 325 379 424 505 344 147 206 194 148 136 127 133 153 158 163 155 148 147 141 111 145 168 155 147 145 146 135 132 117
109 134 140 139 84 112 93 104 112 172 186 198 235 273 341 439 431 409 252 97 187 169 131 120 123 134 138 143 140 148 152 148 151 151 139 145 175 169 157 141 133 131 115 112
180 200 198 154 127 145 108 101 110 134 153 212 310 365 378 353 342 280 266 215 151 119 103 117 140 146 132 131 136 143 155 153 136 152 151 139 156 165 160 139 119 103 93 65

GFSCGP_con_3kmhel_033.txt.gz
Helicity
85 63 71 35 13 12 34 80 56 49 45 73 56 31 50 47 59 90 93 77 90 106 100 96 97 109 193 260 264 269 343 232 101 76 37 45 77 101 125 142 172 179 162 147
80 80 78 47 36 43 60 50 42 68 70 38 29 48 46 63 77 79 79 96 117 139 162 179 155 125 107 124 141 128 84 50 -2 -27 -36 15 59 88 136 147 149 146 126 81
50 56 65 59 72 74 89 55 32 37 69 84 45 38 51 58 89 98 102 100 120 136 181 195 169 101 56 31 4 -17 -6 -44 -80 -43 27 88 106 111 110 123 155 154 95 86
67 83 66 50 41 25 19 45 45 54 50 41 77 40 65 76 91 99 101 97 112 142 154 114 94 24 34 32 -21 -46 -37 -37 3 53 57 82 69 88 129 170 182 147 125 107
58 32 35 32 40 43 1 45 70 72 105 71 94 73 66 95 89 103 114 83 81 130 129 100 48 46 74 14 -29 14 53 96 85 78 77 80 118 145 167 171 156 125 112 92
87 80 54 23 50 60 30 73 95 83 79 34 106 125 100 106 78 129 101 62 83 106 108 80 24 61 47 31 80 185 133 133 113 113 101 118 142 152 161 153 135 129 121 116
113 84 59 59 56 68 70 81 59 58 81 62 102 81 65 27 43 109 69 29 61 70 84 51 43 67 113 153 126 149 153 166 151 152 133 122 126 148 145 142 146 135 135 121
32 37 51 53 41 31 62 59 61 -4 5 6 51 22 27 7 48 74 59 47 70 79 59 40 77 116 145 120 131 174 161 159 158 149 117 107 171 169 154 139 124 128 135 142
55 55 74 74 61 60 41 63 66 60 31 20 29 26 25 70 82 104 132 141 129 74 75 105 120 139 148 174 174 178 208 187 122 102 105 150 180 133 119 127 140 141 139 163
41 55 74 65 68 95 47 58 29 50 7 14 11 14 16 14 54 101 137 145 119 112 118 139 180 214 252 240 212 208 179 102 113 118 140 180 142 127 126 130 148 172 188 182
83 73 53 59 46 42 72 53 69 46 29 15 11 12 18 14 66 114 135 144 124 131 143 198 269 315 283 238 213 190 135 69 119 106 178 164 156 147 144 153 181 181 149 141
93 71 64 68 51 48 48 49 44 42 28 64 68 31 28 0 14 57 88 120 143 164 211 279 327 296 242 241 229 175 83 151 114 197 189 159 145 146 174 198 164 128 121 124
69 81 76 64 53 68 47 54 66 87 84 76 88 51 47 23 45 66 106 166 201 250 314 337 307 260 269 272 176 181 146 129 179 161 149 147 160 190 183 142 113 110 115 117
96 78 38 1 29 48 64 63 95 120 99 108 128 98 91 73 87 123 166 208 263 314 328 305 288 268 232 204 185 150 114 182 159 139 135 157 170 143 124 115 111 109 114 127
74 41 62 63 71 63 57 40 89 112 139 133 104 122 93 72 92 139 192 267 317 318 305 274 253 214 168 183 143 137 172 157 135 130 123 128 126 131 126 124 118 109 109 114
86 47 72 65 88 92 18 14 64 84 121 102 167 102 95 130 152 184 194 253 271 286 262 236 197 169 177 134 128 156 155 147 124 105 103 127 141 126 142 134 120 109 115 136
89 85 83 54 94 96 -24 40 136 180 190 186 181 176 168 139 98 117 186 223 244 245 232 221 187 165 151 171 164 178 164 130 100 103 119 129 135 143 138 118 110 108 120 124
87 118 110 76 94 90 80 107 112 89 91 180 202 214 120 134 141 131 131 150 196 241 247 208 183 185 179 174 202 165 127 97 107 116 123 131 143 140 122 114 113 121 122 112
104 105 104 89 93 92 88 94 109 125 104 101 157 184 176 179 169 119 93 140 177 203 199 195 203 189 197 211 164 124 103 113 125 124 126 133 137 128 129 125 124 117 123 133
138 147 125 123 97 72 78 93 101 105 117 90 101 169 164 161 200 103 94 148 189 232 261 242 232 249 212 163 126 118 125 130 135 149 128 124 138 153 149 135 126 127 128 135
117 134 134 169 129 104 58 111 97 156 99 83 43 63 125 125 105 130 139 212 245 292 282 288 290 222 180 129 112 119 129 138 156 137 128 132 148 162 164 142 135 132 130 156
80 96 91 132 145 87 75 106 105 86 62 77 66 84 105 144 192 194 213 293 323 367 381 443 251 189 150 104 101 105 128 155 137 130 136 136 134 153 148 137 130 133 144 143
103 99 110 100 109 86 32 57 90 109 105 125 141 136 152 210 210 256 337 380 429 483 490 240 183 157 113 112 105 119 138 134 121 128 145 148 128 125 134 134 125 127 133 136
73 112 142 131 68 54 39 54 84 129 145 128 121 134 171 224 302 374 432 465 464 373 314 188 161 115 88 94 125 127 116 118 124 131 152 164 129 101 117 131 130 130 130 124
99 134 113 99 63 88 69 77 72 94 101 116 141 156 168 275 366 429 488 511 345 352 233 164 117 83 81 102 106 103 114 133 140 147 142 131 121 109 108 118 122 125 113 117
141 117 130 117 101 98 83 69 73 81 101 106 163 238 271 287 413 490 516 371 339 317 169 110 79 72 84 85 84 94 117 142 145 132 117 111 117 113 111 114 112 116 97 84

GFSCGP_con_3kmhel_036.txt.gz
Helicity
30 51 20 9 38 52 28 13 13 39 37 20 21 15 55 27 4 37 25 38 61 70 48 59 63 76 113 193 215 148 189 209 106 97 -43 15 34 67 65 81 99 133 181 176
63 35 40 28 18 9 33 11 27 52 25 34 12 14 30 29 35 35 50 41 54 83 81 89 94 103 119 119 126 143 113 29 4 19 -5 14 60 62 80 96 144 181 196 161
80 67 47 30 28 22 52 57 10 27 48 43 2 -10 32 56 48 63 80 76 61 70 100 110 126 144 136 119 82 37 -13 -33 15 60 95 94 77 82 99 136 177 218 183 147
53 57 55 48 35 50 40 57 24 3 -21 -17 20 1 84 75 69 70 95 88 84 105 106 124 149 133 62 30 10 -34 -0 81 109 80 78 73 66 88 129 158 209 193 147 140
53 29 39 43 64 57 44 16 19 -1 -9 15 50 11 106 87 58 85 108 114 119 122 122 128 122 86 54 97 41 39 58 75 91 64 81 91 136 160 161 181 187 173 160 126
66 75 74 52 65 35 22 -2 3 -3 10 -10 47 24 25 65 60 114 102 112 128 116 113 104 103 99 121 101 89 93 107 120 113 110 131 168 175 151 120 150 159 153 140 131
45 58 56 42 10 -4 -33 -57 -18 -11 -2 1 60 4 -4 98 46 32 68 86 99 94 94 92 93 59 88 112 106 103 120 152 161 181 186 174 156 162 147 187 174 137 122 98
15 29 26 30 25 -4 -4 10 4 8 -0 7 26 -5 35 33 21 39 60 84 82 72 78 75 71 84 119 136 106 132 172 203 211 183 164 139 160 164 181 164 140 118 122 134
17 28 55 65 39 33 24 14 72 46 34 3 10 16 5 34 31 54 101 118 105 94 93 88 93 114 147 148 168 214 217 238 222 239 201 144 152 172 171 153 139 135 135 157
44 25 56 58 60 87 52 72 31 29 8 22 24 16 15 29 40 65 98 100 87 91 109 106 110 150 175 205 224 235 251 266 277 178 100 145 156 174 164 139 133 141 150 135
61 53 35 69 37 36 69 48 57 43 44 36 39 37 39 37 31 44 63 92 86 103 115 115 135 176 224 244 249 277 288 257 216 123 102 148 187 159 129 127 144 155 134 116
103 76 62 51 70 71 66 35 24 36 22 44 41 24 40 27 25 44 64 90 82 117 126 145 177 228 255 283 316 324 301 260 99 92 99 184 154 122 133 154 148 140 104 92
86 85 63 42 44 47 28 31 57 70 52 23 50 41 65 47 24 44 74 128 132 149 179 198 217 243 286 330 291 283 239 100 114 102 180 160 125 129 154 154 125 103 96 87
80 88 46 16 45 56 24 60 43 21 54 50 51 21 85 78 63 83 81 134 147 197 226 222 214 253 299 281 281 237 135 152 157 180 148 137 137 148 150 139 114 105 102 99
83 41 53 49 41 30 41 29 13 23 21 75 22 39 29 93 91 100 109 137 181 215 238 242 238 272 273 262 239 189 170 179 182 144 123 134 132 131 136 129 112 117 119 118
83 41 51 37 42 50 30 -10 9 17 19 37 27 32 27 81 112 133 125 137 161 193 221 239 259 270 261 259 231 172 177 178 164 127 117 122 122 129 136 121 115 118 109 112
73 60 50 38 64 49 5 15 55 77 97 89 89 64 128 108 99 107 106 107 130 155 180 242 262 251 246 228 195 176 181 182 130 118 115 122 134 127 114 111 112 103 110 126
66 88 90 47 47 36 73 69 80 39 24 52 49 73 102 133 140 125 82 87 106 119 175 230 248 240 236 258 206 209 204 142 116 105 115 136 125 104 110 114 109 121 127 122
97 93 82 66 57 70 27 84 80 73 79 99 62 67 121 128 143 96 86 78 79 111 175 204 237 249 265 238 200 238 155 111 106 99 115 120 110 104 111 118 140 124 135 124
111 112 102 97 57 35 93 96 91 56 61 135 107 87 83 96 129 148 81 61 92 156 217 277 295 272 303 252 268 190 125 97 91 111 111 109 106 110 116 135 138 136 124 124
83 101 90 109 80 68 88 89 95 93 180 94 45 54 55 69 111 141 102 116 149 214 268 342 348 357 364 363 210 146 102 83 109 111 102 96 109 125 122 137 132 127 116 125
63 80 84 110 103 70 92 76 97 131 89 95 90 107 90 130 146 159 178 196 242 333 397 427 496 590 413 170 142 105 76 109 101 91 83 96 129 139 145 119 114 119 112 118
75 92 105 84 115 107 45 72 108 104 96 97 117 136 141 147 144 179 230 297 355 417 542 544 571 425 388 195 96 68 93 91 80 73 83 102 122 127 113 106 105 115 116 125
74 92 110 97 74 52 39 65 78 77 71 81 75 96 121 125 166 223 308 393 437 527 530 467 548 237 357 157 79 73 77 70 70 70 82 102 121 135 108 116 110 118 120 120
119 62 71 74 59 89 87 96 93 93 99 96 116 126 118 133 201 253 350 409 503 594 531 464 315 218 192 112 78 55 55 66 65 70 89 118 129 118 103 102 113 111 109 114
101 151 129 130 125 100 90 97 90 90 107 120 123 146 165 190 231 305 397 496 521 569 533 358 268 158 84 60 38 52 62 64 61 77 106 129 125 110 109 96 98 122 117 120

GFSCGP_con_3kmhel_039.txt.gz
Helicity
-7 65 36 -7 23 19 28 -4 -11 53 37 -8 -2 48 14 18 3 29 27 39 46 53 43 54 47 54 72 206 187 117 198 202 271 171 101 48 29 30 47 43 60 77 98 111
-10 3 26 10 25 34 17 1 23 47 21 18 18 29 46 28 21 26 41 47 40 45 128 58 79 82 94 209 161 147 143 124 82 38 47 44 46 48 57 84 81 106 141 167
36 75 21 23 -1 -6 9 39 41 14 30 -10 15 21 42 31 19 15 35 29 51 78 85 106 101 107 143 162 108 103 63 40 19 81 95 100 88 101 104 119 99 158 161 161
107 94 32 7 0 28 -11 63 30 15 35 38 24 10 72 86 94 83 70 66 92 122 88 117 112 168 114 95 72 53 62 50 90 113 121 88 70 95 114 140 164 187 178 185
29 -3 -2 3 62 32 30 27 20 16 11 1 -6 -1 143 34 115 133 97 73 100 112 148 115 136 132 125 101 63 53 68 121 156 125 110 91 91 159 165 172 225 125 140 123
31 58 37 70 46 46 29 4 -1 -10 -1 11 21 -2 31 112 31 112 113 82 105 132 143 133 139 176 185 95 88 110 118 154 133 127 123 100 180 135 134 126 170 141 176 143
2 11 39 34 35 25 -6 -3 6 4 17 -10 78 43 -4 86 106 137 102 57 96 105 126 147 174 157 124 116 115 105 111 131 141 157 163 180 171 172 172 144 178 182 140 153
22 30 35 21 29 24 -30 39 10 25 24 19 69 5 74 131 63 50 79 65 93 87 106 126 120 124 112 112 115 108 130 164 178 204 238 239 282 229 82 188 173 146 159 161
27 71 79 58 34 19 8 -11 67 49 23 9 -5 10 64 52 58 44 76 90 87 85 98 102 119 113 117 129 144 111 177 218 240 269 311 211 167 88 144 206 148 143 144 143
23 46 20 49 21 7 21 74 16 23 26 9 17 10 66 34 40 40 75 91 83 68 93 104 124 122 136 138 186 188 217 343 278 266 244 179 149 83 185 150 149 148 143 130
27 34 -6 32 -11 5 29 16 27 69 55 38 57 48 101 45 39 31 43 85 98 92 99 119 133 143 154 186 253 219 265 357 305 276 243 195 58 148 145 142 157 138 138 129
51 37 21 -12 94 73 81 31 24 40 16 31 58 43 19 50 24 32 45 78 99 119 130 159 147 199 171 208 227 289 368 356 338 289 220 62 114 130 143 146 129 150 136 115
79 37 21 30 40 45 38 19 28 24 70 29 49 39 49 72 47 52 49 87 100 108 147 175 199 210 197 198 243 360 331 388 291 228 142 93 129 127 131 133 154 142 120 107
144 42 54 16 26 67 17 12 11 29 37 27 -23 11 45 79 47 69 80 77 109 118 166 189 210 203 193 224 298 313 364 309 186 152 66 142 173 135 128 151 143 129 108 97
102 56 32 30 79 75 73 38 10 -23 -9 -27 16 -13 15 37 62 92 100 109 129 138 146 201 204 203 205 277 273 294 331 224 147 114 144 172 163 132 127 142 114 103 99 98
72 62 75 45 24 34 20 14 11 9 -6 -20 -12 -25 9 102 78 110 72 123 127 125 135 163 170 174 245 276 233 283 296 193 199 191 171 148 137 122 114 110 109 97 97 87
61 73 51 41 73 58 15 2 -7 -13 17 36 29 30 53 142 86 78 92 132 111 89 122 142 141 169 255 226 259 326 287 321 232 144 183 135 113 90 98 107 105 107 127 124
62 45 79 46 34 26 37 60 68 62 29 24 50 44 49 104 145 138 119 101 98 80 102 118 165 211 255 285 316 342 346 263 164 188 154 97 79 82 93 95 106 125 148 121
75 84 70 63 33 44 29 70 55 71 79 180 133 142 148 163 94 33 62 102 96 89 107 143 203 269 318 388 346 334 261 268 281 208 116 61 94 90 85 90 116 144 133 135
95 93 73 75 58 25 90 91 62 66 68 200 151 127 96 53 92 149 166 115 64 80 117 162 222 312 342 299 390 396 367 402 284 224 77 90 86 81 79 92 107 131 133 126
83 102 68 58 72 62 141 81 71 77 203 151 91 72 78 72 190 193 137 97 66 95 136 227 281 285 301 411 462 498 431 411 221 73 78 61 65 80 91 97 119 114 112 153
43 53 64 96 78 49 114 112 138 163 100 122 100 106 113 127 181 150 132 138 147 216 344 382 328 440 642 582 447 357 217 167 84 76 52 52 68 80 90 98 88 90 119 137
60 72 86 71 99 139 95 124 123 109 100 109 109 95 106 96 103 141 154 185 221 334 360 369 479 594 653 687 423 338 293 110 83 64 46 53 55 66 79 81 82 142 122 136
89 100 113 108 129 134 111 117 133 164 137 99 97 94 99 101 108 146 202 203 226 288 458 592 613 585 529 430 198 260 142 85 44 33 38 49 56 76 88 104 110 164 132 131
160 88 97 92 92 130 151 190 160 115 90 105 117 144 122 121 133 262 257 284 422 526 496 434 425 439 523 427 217 101 67 42 29 34 52 69 73 68 92 110 119 173 152 133
116 152 118 142 184 151 147 219 127 126 152 146 157 208 226 236 312 362 478 512 466 423 482 501 507 392 205 119 72 60 43 38 56 61 66 73 98 102 115 125 132 126 128 156

GFSCGP_con_3kmhel_042.txt.gz
Helicity
23 3 40 28 -3 31 47 14 35 -12 59 -2 13 53 80 36 -3 60 54 61 57 86 58 126 91 59 145 362 273 218 241 208 203 205 175 96 96 143 106 77 43 28 49 81
28 -18 36 50 43 62 55 -26 75 64 40 18 -9 -2 88 49 40 52 70 99 78 74 96 188 99 104 208 331 295 279 273 181 116 109 70 88 120 96 71 54 44 68 104 113
115 12 90 15 33 38 37 62 82 103 1 5 -2 7 107 57 17 11 61 68 94 108 238 200 121 100 145 328 295 260 236 130 26 101 87 129 116 76 98 123 91 172 123 117
-17 54 86 53 11 20 35 86 -22 -18 25 -12 53 -14 115 53 44 23 13 86 105 90 219 227 143 150 195 274 224 170 128 85 57 93 105 152 120 122 97 125 113 198 150 145
-15 143 50 76 89 35 2 7 43 17 17 43 36 -60 20 149 71 -7 26 44 55 93 193 210 213 214 109 184 149 99 47 90 153 80 164 115 101 207 235 237 355 310 171 178
6 77 113 64 62 35 -25 -20 23 1 26 112 125 128 158 88 138 -30 -27 73 58 165 170 170 253 264 162 137 101 69 77 145 238 140 205 136 200 294 290 298 303 163 250 276
23 70 9 27 22 6 -8 -3 14 50 -61 9 -7 34 15 78 43 121 56 144 95 138 205 178 228 215 200 166 99 110 143 286 274 201 201 238 306 337 362 316 277 165 278 276
-18 7 -4 28 -2 71 52 6 -25 31 13 23 66 -11 64 170 111 113 184 170 149 190 179 185 217 221 243 211 199 167 174 304 255 236 251 321 365 284 239 162 255 240 260 260
44 72 154 77 23 22 39 20 6 1 17 -12 -0 21 108 96 102 82 126 120 158 132 151 173 206 261 250 204 186 132 171 258 299 271 382 446 327 281 297 373 305 172 232 202
72 -13 43 -38 18 26 25 35 12 2 18 11 24 -17 196 71 70 40 82 106 139 121 136 143 200 249 223 183 176 139 216 348 345 473 467 379 302 358 334 303 116 228 211 203
-15 224 -33 -5 -9 13 13 -20 19 34 34 42 34 48 66 58 47 43 41 118 149 144 163 178 214 236 220 220 256 218 236 401 527 533 415 394 396 351 261 116 208 206 203 165
26 25 31 -19 38 78 76 68 -0 63 36 74 57 29 36 42 48 35 34 102 157 170 150 202 222 286 252 293 340 334 266 410 493 482 440 365 399 190 195 156 195 197 186 156
42 59 44 42 15 5 26 6 46 61 108 70 66 51 30 46 43 56 38 78 132 166 161 181 255 313 319 353 386 323 320 445 494 491 329 258 157 162 239 183 221 220 185 161
81 63 32 22 9 49 28 2 11 33 113 59 2 26 3 64 108 61 111 69 73 157 139 134 205 269 383 418 370 365 478 459 527 294 213 184 305 202 293 225 225 218 179 150
101 42 29 27 36 43 67 83 24 26 21 43 32 24 6 13 70 57 85 98 115 71 118 117 167 273 362 429 342 443 491 526 355 246 283 255 314 398 228 206 190 141 148 128
98 78 94 100 97 72 31 53 62 25 18 14 10 20 22 34 115 134 186 195 116 135 113 213 180 224 301 298 414 464 525 418 257 291 337 362 381 253 201 159 131 122 114 113
70 94 114 83 107 107 50 25 -0 1 9 15 28 33 48 77 72 145 143 116 137 165 167 164 192 199 205 312 439 487 361 412 386 451 435 390 257 254 143 104 113 118 134 140
79 56 122 84 81 55 8 87 71 77 56 74 99 152 174 174 179 155 116 137 159 161 122 144 176 173 222 350 384 429 531 560 524 429 382 353 217 195 144 112 86 105 137 179
88 117 117 98 72 43 53 74 76 64 120 203 224 198 179 164 111 149 131 212 186 191 139 113 159 234 296 379 522 550 609 490 464 507 252 214 227 264 143 99 84 106 137 165
137 129 103 91 75 32 71 91 89 69 85 203 188 165 126 87 89 182 188 138 132 90 82 106 153 244 372 474 531 534 445 515 539 519 432 146 91 117 84 69 95 125 144 142
107 135 103 113 83 67 143 114 66 74 166 161 135 104 80 118 144 170 164 162 154 115 200 298 384 471 534 559 593 698 792 815 724 451 137 132 69 63 70 104 106 114 108 107
54 71 77 117 88 41 121 97 117 187 149 125 119 136 123 112 97 148 118 116 186 255 379 465 623 764 826 826 858 920 853 526 368 411 151 86 54 50 57 85 96 92 94 137
42 49 54 60 73 108 144 186 177 192 170 177 157 133 122 120 101 111 176 230 285 320 381 525 659 719 736 748 667 654 396 246 202 141 113 61 30 38 56 89 101 109 117 185
76 121 96 118 88 97 152 218 336 271 178 120 116 169 171 149 131 151 303 424 586 669 689 682 622 485 403 425 440 319 204 132 74 27 19 44 51 79 89 94 90 111 155 230
155 97 80 94 163 189 313 450 304 182 184 180 146 280 197 116 267 419 546 577 548 517 472 413 383 336 252 157 100 35 21 37 31 36 46 76 95 89 87 83 114 165 183 205
115 135 128 164 251 213 335 319 249 246 217 202 227 252 299 397 428 455 471 395 338 319 250 181 106 55 28 14 24 42 63 58 69 91 103 107 118 127 129 129 126 116 134 124

GFSCGP_con_3kmhel_045.txt.gz
Helicity
22 38 33 80 26 28 -3 60 33 35 31 64 67 72 114 97 101 100 103 75 61 79 135 157 181 290 397 433 405 359 300 271 281 245 229 184 129 82 109 77 97 113 100 109
-6 70 50 11 57 3 12 3 37 98 22 51 17 60 96 56 155 153 130 109 121 126 215 196 240 340 466 446 408 331 291 244 221 199 165 110 120 104 107 77 76 89 88 100
10 19 180 1 14 46 42 -8 -19 44 113 43 -11 -5 69 28 71 130 143 159 208 299 317 327 336 356 449 445 450 296 274 165 170 143 109 145 132 181 151 100 95 84 125 117
-57 -28 33 -4 19 10 -19 -23 65 22 41 26 27 -13 -50 9 66 194 147 190 226 230 292 352 362 364 376 419 341 253 193 139 145 100 156 165 175 195 137 116 132 184 175 156
-29 -46 12 -13 16 15 -32 39 41 -1 -5 12 23 75 -2 109 -13 55 50 185 241 254 405 427 431 509 446 478 319 162 128 98 158 78 161 145 151 164 197 193 228 247 216 172
-37 18 13 25 1 19 8 22 27 36 7 58 13 149 34 -33 76 157 172 -95 74 236 350 351 288 382 320 289 187 94 116 119 74 125 184 157 212 280 343 351 340 278 227 376
28 14 58 43 -44 70 76 42 65 76 15 -67 39 51 135 12 14 78 88 -29 -19 103 207 254 340 325 353 349 235 197 120 125 142 197 219 266 339 390 410 353 334 370 468 449
40 30 39 38 -1 30 62 20 49 65 24 65 49 26 -3 40 -29 -15 41 30 -47 136 237 340 404 375 365 323 221 191 191 262 276 321 352 395 426 425 409 422 463 503 414 322
45 30 79 77 116 41 45 86 47 53 16 49 11 23 141 133 105 94 70 123 225 274 270 298 333 377 332 280 237 237 312 339 382 380 415 467 460 427 409 485 442 440 390 371
103 86 139 40 -14 33 30 -21 20 40 24 7 40 20 58 102 18 107 136 162 204 214 216 257 345 393 373 386 277 255 286 346 375 444 493 529 475 445 430 536 401 369 285 278
167 99 53 87 15 -0 18 38 51 50 67 27 42 57 12 24 45 37 78 164 191 200 193 235 325 396 414 390 308 217 249 372 456 522 541 551 539 501 390 401 487 427 229 207
28 73 -49 31 88 35 30 21 37 79 40 58 40 23 46 78 58 61 28 133 214 250 237 261 339 394 423 395 327 246 313 450 518 546 596 568 526 365 405 378 390 298 193 201
108 70 68 54 33 20 25 46 54 60 125 88 117 40 18 36 102 108 32 80 185 221 281 307 379 465 459 432 425 413 433 500 597 618 589 452 303 303 411 515 209 208 282 242
102 111 68 43 41 45 33 37 31 42 137 96 85 40 19 -6 116 90 57 82 117 186 232 284 342 428 507 529 405 410 576 583 590 625 485 351 291 309 342 264 384 252 243 197
96 66 91 86 68 20 45 80 64 35 11 150 36 70 16 70 52 133 79 67 89 101 121 215 308 458 508 465 475 503 558 588 605 560 443 279 292 410 412 476 248 199 155 123
122 85 100 86 102 101 59 128 66 67 77 57 42 34 29 43 76 122 141 174 188 222 206 237 276 376 397 439 449 454 522 623 553 444 390 467 520 522 489 265 152 117 101 91
120 140 158 113 121 101 83 23 56 75 67 51 53 71 144 168 159 148 168 187 163 165 208 193 145 92 138 222 349 446 502 453 468 530 545 527 583 650 312 277 212 123 87 90
115 140 147 107 131 124 41 62 64 98 147 166 204 180 143 178 208 197 152 159 240 238 180 144 118 157 211 326 430 474 511 548 593 659 697 756 786 523 322 345 231 148 91 95
162 168 147 130 115 73 37 108 66 91 152 162 186 231 219 167 158 202 186 134 168 171 173 152 185 262 385 483 503 609 631 669 711 705 792 856 668 556 424 214 168 102 82 92
250 157 158 144 122 65 33 77 123 117 139 141 142 146 135 117 82 41 145 219 206 258 328 368 484 566 620 600 712 807 836 853 873 924 856 852 637 196 123 98 59 65 84 90
214 240 188 181 122 85 92 98 85 123 111 163 154 132 113 59 27 71 131 224 299 376 457 609 743 753 732 759 837 861 837 914 942 875 603 238 100 55 27 38 63 76 99 106
106 137 124 166 133 71 104 140 115 130 237 196 168 148 130 137 146 148 262 299 357 413 485 507 596 672 685 616 664 712 744 679 596 347 113 60 49 30 -3 38 78 108 113 114
98 75 71 79 58 79 205 262 288 246 247 214 201 190 150 173 190 316 444 529 524 478 456 421 425 408 365 329 337 305 180 145 141 93 96 69 39 46 64 91 94 119 118 143
125 98 105 108 63 228 372 401 357 303 243 272 238 229 185 215 307 364 430 469 484 434 380 278 255 200 129 93 139 147 122 88 105 88 78 72 79 90 101 102 115 135 143 152
116 125 111 155 255 418 446 416 405 395 324 278 303 302 274 337 348 357 352 342 312 267 211 182 185 174 215 180 130 88 72 80 85 74 79 90 109 110 120 131 141 160 148 163
148 152 157 153 225 310 380 402 382 368 345 261 245 283 288 279 276 271 271 242 224 213 208 224 205 167 121 110 111 96 74 76 84 92 118 123 126 133 150 158 155 140 131 118

GFSCGP_con_3kmhel_048.txt.gz
Helicity
12 23 64 84 103 66 106 52 13 7 -2 6 102 -15 40 185 118 98 7 86 172 163 174 172 223 258 220 141 175 216 245 224 264 252 250 224 221 180 135 108 131 135 130 135
5 7 14 81 57 20 -20 11 101 127 54 7 47 -14 81 229 200 197 69 115 175 176 203 196 230 295 302 267 199 213 222 216 206 227 236 215 191 114 77 115 137 136 129 128
-20 -12 -24 -10 46 -7 -29 -5 58 72 26 75 60 71 53 25 59 117 162 125 144 259 312 323 341 363 323 332 270 243 227 223 206 226 261 267 239 162 168 151 118 102 112 113
-5 9 -22 -20 10 -0 50 -16 51 8 42 58 58 44 4 -13 60 135 161 141 153 236 331 422 470 420 415 391 329 320 289 225 217 232 253 268 216 249 144 137 136 153 134 136
40 3 16 -17 3 -0 68 -26 -4 19 45 28 20 20 21 -10 20 125 152 157 224 305 409 478 516 506 508 527 448 348 314 220 187 223 223 186 177 194 189 203 192 169 162 224
-13 -6 -10 -13 11 -22 21 -18 56 49 26 17 65 45 -21 51 162 94 191 192 238 274 278 383 425 487 499 380 337 348 314 207 142 187 163 146 186 205 235 263 245 227 403 426
24 10 38 59 57 7 9 39 54 63 59 2 73 12 -39 -4 26 109 198 250 135 236 275 420 454 482 434 389 349 276 228 185 163 165 128 120 180 226 244 284 309 423 541 488
35 35 59 93 7 41 -11 31 60 42 26 31 42 42 39 8 13 10 1 118 163 156 180 335 467 464 387 352 326 245 217 169 167 156 143 159 234 282 332 413 481 566 568 608
52 50 52 25 48 40 44 9 33 81 74 64 25 62 39 72 54 11 -28 54 31 84 176 257 355 408 382 333 278 259 191 173 194 205 259 331 383 469 462 501 536 591 446 484
40 74 58 32 36 7 63 20 46 89 24 15 38 62 28 47 8 30 6 7 78 91 180 231 284 358 319 265 244 202 174 243 286 373 466 478 483 489 498 537 505 548 405 391
129 100 66 108 54 -3 65 32 56 58 67 24 33 65 8 -4 20 25 -4 8 110 147 153 154 193 226 261 258 260 239 300 335 402 420 489 509 486 538 565 552 610 334 274 428
108 126 122 42 34 1 20 11 16 77 53 69 55 31 37 24 32 59 58 66 92 152 154 182 234 285 291 308 355 388 382 388 444 510 533 573 660 574 551 529 400 227 315 420
100 123 117 113 68 30 12 -16 48 117 121 82 108 41 54 63 30 42 100 68 94 144 214 278 341 384 403 393 396 468 491 399 439 554 646 689 550 603 353 340 376 371 431 250
199 138 86 79 41 65 62 37 46 82 105 107 117 80 72 36 52 59 89 83 111 154 222 297 361 413 431 456 467 498 465 474 599 709 613 527 478 334 382 431 437 426 393 410
182 153 129 97 107 90 106 151 127 88 64 84 51 100 45 25 28 40 31 103 105 94 140 211 329 368 437 483 550 557 592 593 657 613 514 421 398 512 516 578 541 457 443 294
161 124 125 111 140 95 75 106 124 102 72 66 71 115 96 134 140 220 210 212 221 198 154 127 250 360 415 491 548 564 591 568 554 486 498 521 521 627 631 555 408 471 421 319
168 162 166 114 168 144 116 79 92 100 79 76 126 92 152 309 325 267 260 261 246 210 167 141 141 226 326 364 411 485 530 570 582 611 583 598 599 586 593 587 820 738 429 175
170 196 164 111 164 138 100 89 120 201 212 187 237 221 182 214 230 263 238 207 225 204 193 157 138 180 233 309 397 466 535 606 649 674 701 702 762 885 1012 992 504 167 80 73
159 178 160 151 148 137 104 111 128 136 175 174 203 178 112 102 214 238 195 180 167 171 227 253 262 310 370 436 514 660 724 752 771 753 791 899 906 883 585 250 72 74 69 56
256 192 150 147 157 121 47 94 163 173 168 144 179 177 152 106 137 111 116 153 238 279 259 299 343 402 508 524 654 769 738 752 797 782 794 709 516 347 108 91 98 59 89 92
236 235 183 213 168 135 75 85 126 175 114 166 154 124 106 104 74 114 176 265 264 272 293 340 440 474 464 533 663 705 693 698 611 589 571 188 107 140 127 118 128 108 95 108
208 238 223 244 228 130 113 196 160 145 207 186 158 107 129 118 216 259 268 263 275 310 338 361 431 425 383 392 410 419 320 166 191 162 138 125 124 140 135 118 108 116 123 132
225 177 155 124 95 129 128 137 177 210 226 186 164 128 144 188 251 290 324 329 320 311 301 263 236 232 240 274 231 233 191 181 156 145 133 147 131 110 114 131 122 144 143 153
196 144 148 184 194 292 314 315 289 275 267 235 192 168 174 223 248 310 323 323 316 300 301 275 280 263 237 189 149 139 161 149 151 144 128 107 106 109 115 133 147 166 169 183
170 185 206 227 240 316 331 329 315 340 303 305 313 281 252 295 303 312 322 330 328 308 275 241 217 195 192 186 192 146 126 112 113 93 91 97 113 123 139 150 173 196 203 217
213 212 236 167 168 248 307 336 312 329 299 279 298 329 325 329 354 371 371 296 269 245 224 247 247 237 212 182 170 155 118 97 91 105 125 150 170 176 186 198 195 179 190 174

GFSCGP_con_3kmhel_051.txt.gz
Helicity
6 14 22 74 41 74 86 127 43 77 6 -32 -27 29 70 101 126 85 99 109 127 121 105 109 79 46 45 68 90 162 149 139 174 208 227 214 204 211 190 165 161 178 218 222
22 18 5 -5 34 73 57 62 59 6 35 -27 9 32 8 111 168 160 125 69 60 58 103 135 116 88 123 143 156 196 190 230 209 228 238 223 235 218 202 178 163 189 195 190
7 -4 -13 18 2 -4 18 -4 32 78 41 8 17 30 51 71 93 59 85 89 91 180 166 187 208 198 162 180 214 228 199 220 230 232 293 276 300 266 236 206 193 183 158 152
23 25 2 13 -17 7 23 -6 22 57 49 17 25 48 38 85 163 131 134 129 112 147 176 232 236 224 237 235 223 221 224 217 196 257 276 315 296 295 200 197 196 175 150 138
25 30 -1 3 25 -8 37 30 6 28 55 33 49 42 22 12 62 123 172 191 215 208 261 266 299 268 249 269 298 238 251 239 222 279 243 257 253 183 144 215 206 193 187 230
-1 12 -1 39 8 5 -3 4 22 53 30 -4 7 13 -1 7 76 163 229 228 254 280 285 269 265 302 299 353 331 274 312 286 252 343 280 250 233 174 184 238 240 240 276 311
57 31 30 36 39 36 -12 35 43 37 24 -38 23 17 0 10 4 61 198 295 280 360 394 407 420 445 445 419 350 342 284 254 263 319 311 218 161 152 187 229 245 333 376 351
24 41 50 67 45 28 5 23 46 30 35 21 29 14 16 12 -3 40 15 129 222 316 358 430 512 494 475 481 363 358 293 239 253 249 189 127 130 152 165 212 304 359 424 474
24 13 51 30 52 38 41 53 32 84 81 46 33 32 42 50 39 62 35 70 126 160 227 334 372 389 443 467 356 332 312 244 206 222 152 109 151 186 204 251 362 518 623 627
41 -17 46 56 34 38 63 58 90 88 68 38 39 43 11 48 44 49 31 0 2 61 127 160 235 270 322 335 294 270 244 237 222 214 184 214 232 228 338 476 599 636 599 727
114 111 46 56 39 61 126 132 115 83 74 53 35 24 -12 30 56 43 21 21 28 25 31 61 118 178 273 306 284 253 245 247 243 258 315 367 410 466 512 545 713 780 650 433
69 115 -9 62 63 29 84 95 122 114 71 85 87 35 38 4 -7 20 16 28 15 29 55 87 126 200 245 269 261 262 228 235 272 322 371 443 555 594 709 709 639 645 381 328
83 140 82 98 96 101 83 57 84 117 101 96 115 55 67 44 38 50 30 -2 59 54 56 74 125 159 194 222 249 277 280 338 373 409 509 603 665 637 619 616 521 281 393 383
240 175 139 101 59 74 96 31 66 115 122 116 103 53 67 68 99 72 46 52 64 104 116 134 164 194 228 295 352 348 398 435 433 508 554 635 589 618 553 428 361 428 388 413
162 133 144 90 72 92 85 77 73 144 118 141 65 91 78 67 42 39 44 71 81 79 146 158 182 195 232 336 405 437 495 492 557 555 528 545 465 469 432 460 438 518 532 345
176 132 196 199 192 140 106 89 117 132 151 127 99 113 102 109 136 206 184 175 196 190 167 109 158 207 264 341 407 436 525 529 508 502 512 515 533 499 478 386 519 544 524 653
182 195 197 145 179 178 141 106 126 133 158 160 172 116 158 225 282 266 245 267 248 230 198 164 104 126 207 318 391 430 431 439 466 547 516 533 510 535 592 696 788 778 344 190
210 223 199 123 172 107 78 165 141 178 187 179 228 265 256 276 297 316 259 177 168 144 156 158 145 161 176 232 311 369 431 520 557 582 635 653 688 704 700 665 641 435 200 160
192 225 203 165 118 136 115 129 182 193 166 158 203 223 202 196 230 235 218 193 157 152 156 163 172 200 254 304 351 466 533 559 640 672 675 648 613 611 538 515 297 159 222 186
292 299 203 199 162 90 56 139 132 163 185 136 131 121 117 173 148 95 139 155 184 192 190 198 216 264 338 340 426 582 615 675 684 631 583 601 430 441 236 102 122 184 181 171
338 307 213 251 176 140 117 114 160 225 114 233 186 163 160 127 100 145 161 185 217 223 241 262 303 332 343 384 494 567 550 538 487 573 429 217 108 122 131 161 159 165 142 148
267 288 226 257 238 165 181 253 219 140 218 207 193 193 212 190 192 188 189 217 246 272 277 268 290 292 270 250 265 275 301 233 178 124 111 147 139 132 118 128 125 127 136 147
237 190 212 190 172 228 160 129 182 168 182 142 162 159 165 180 166 196 220 254 285 305 311 311 326 351 347 311 254 279 239 194 146 122 116 112 104 104 109 117 122 150 162 185
255 235 245 269 242 237 215 249 228 212 204 180 179 171 163 214 228 254 283 334 360 350 351 318 340 349 340 285 269 251 211 184 166 140 123 122 130 130 132 146 162 183 197 215
197 240 308 333 284 263 255 259 274 302 291 309 312 245 250 300 275 315 369 385 380 386 357 324 313 297 290 277 267 228 188 143 131 126 129 128 126 126 131 143 163 195 227 247
172 326 385 293 202 226 198 219 244 296 288 277 321 336 298 324 355 391 418 394 385 355 321 326 305 284 254 239 228 206 176 149 137 131 119 112 109 121 131 139 134 126 139 147

GFSCGP_con_3kmhel_054.txt.gz
Helicity
-2 29 11 7 13 49 55 57 7 29 12 -0 68 90 77 103 100 122 186 115 65 43 7 -12 -7 -30 -18 -20 -8 9 46 46 80 68 81 82 104 120 121 122 109 171 208 233
-11 15 26 -1 4 26 45 52 70 57 9 -68 -1 34 7 121 136 139 188 167 111 22 -13 -28 -8 32 54 77 70 62 78 122 108 127 135 109 156 129 145 149 149 188 211 245
16 2 29 23 22 23 22 34 38 7 3 -11 -21 8 35 55 81 65 102 133 79 74 37 14 27 44 54 76 75 72 74 130 146 174 251 219 270 206 211 198 202 200 213 206
-3 31 21 36 33 27 32 -1 -12 9 13 29 14 25 8 60 72 117 136 131 84 35 48 44 40 20 67 68 67 82 107 145 182 226 286 310 276 276 241 223 198 202 193 189
-2 55 36 20 21 20 -22 4 -10 27 31 61 44 36 -5 48 27 96 143 140 110 74 82 93 117 139 113 88 124 145 173 181 202 241 255 304 273 307 274 223 196 210 232 221
-14 2 19 12 -10 -19 12 28 65 75 73 39 21 26 -9 34 5 -4 112 141 182 159 142 144 133 150 175 201 197 178 224 226 245 225 252 299 297 296 240 206 196 262 270 272
-24 17 39 26 19 57 25 51 71 66 45 -20 27 19 -33 -18 1 -8 36 137 198 218 187 221 259 259 324 310 311 237 261 310 300 268 191 230 311 299 185 169 214 292 293 301
3 -33 42 45 31 27 50 43 43 30 43 27 40 -6 -5 -15 -0 5 9 43 113 184 286 259 300 339 400 376 371 320 307 301 317 332 219 205 331 258 168 170 208 243 281 350
34 -23 45 51 59 49 53 61 33 76 76 74 45 28 20 14 4 28 42 28 36 103 194 283 292 374 441 414 417 401 335 321 295 307 244 250 266 198 151 174 251 324 415 484
19 -26 62 60 32 50 44 41 70 80 43 46 46 32 18 40 37 68 76 37 13 58 58 88 171 281 350 352 354 357 324 345 321 300 251 237 197 171 185 256 325 415 515 652
100 72 23 88 55 62 102 91 124 109 102 69 28 10 20 16 54 95 69 36 11 10 33 69 122 160 200 240 277 253 244 278 290 293 278 237 203 206 277 381 427 466 589 589
74 87 31 63 78 44 53 73 118 139 113 96 81 -9 51 7 17 8 3 22 37 9 -5 20 64 107 140 171 206 238 233 236 242 253 256 249 267 325 407 512 436 564 548 437
90 110 38 70 139 123 86 88 153 198 159 76 90 26 52 27 43 55 31 30 8 31 23 37 59 70 85 108 129 171 206 221 270 261 312 328 368 395 425 418 505 467 487 382
164 157 126 52 50 95 103 103 169 172 134 83 93 -26 25 29 61 64 53 33 38 46 67 71 75 88 106 114 148 174 232 266 310 325 355 384 402 440 458 437 436 405 463 456
118 83 127 132 119 126 89 75 126 151 105 123 67 85 50 49 53 57 55 56 71 56 58 73 78 114 133 158 198 231 258 304 312 340 382 404 447 361 392 441 433 567 416 272
170 121 151 149 138 147 127 101 88 92 116 107 120 141 123 136 122 137 161 160 167 159 171 131 113 126 132 167 208 237 257 254 278 293 325 361 404 422 405 452 563 355 322 483
154 200 186 140 167 205 161 93 133 126 143 142 159 158 191 211 242 240 243 255 267 243 210 212 195 171 139 158 197 233 257 286 315 335 347 396 430 421 509 535 398 461 515 429
177 257 226 176 254 178 125 172 139 142 162 203 179 158 196 269 336 360 341 257 240 226 199 167 139 143 169 190 236 273 299 334 371 396 408 409 489 540 545 516 558 537 281 210
157 232 221 239 228 190 165 151 162 150 90 153 153 201 243 233 229 244 215 206 167 126 101 113 145 182 228 253 266 342 372 376 382 381 429 476 466 480 484 447 466 137 118 148
213 210 210 224 222 155 82 121 172 166 98 157 173 169 203 188 177 124 134 122 139 155 169 187 219 253 288 272 291 365 339 363 399 443 477 491 473 500 183 84 118 138 129 133
300 323 280 322 211 168 129 152 207 217 144 192 231 199 189 157 138 155 149 190 176 166 185 215 253 245 206 205 265 326 345 354 312 297 323 170 111 107 97 127 132 132 129 141
294 321 328 356 278 197 199 275 237 187 161 182 244 233 233 195 193 202 199 180 176 220 243 264 304 301 265 247 264 264 267 196 192 210 190 147 104 103 115 109 109 115 125 134
250 260 266 244 211 216 160 170 210 178 161 191 250 199 235 237 205 206 213 231 237 243 283 306 336 360 339 328 271 278 216 200 198 185 171 163 155 142 134 124 122 130 139 158
217 256 267 288 228 192 172 167 220 213 196 212 192 212 210 252 238 257 256 254 271 294 332 317 360 382 346 312 293 257 208 189 196 197 189 159 142 129 119 117 119 132 147 162
186 256 271 239 234 228 178 228 233 277 277 315 301 241 246 300 271 279 288 316 334 356 373 370 359 347 325 319 319 290 252 201 189 169 147 131 115 111 106 109 111 127 136 155
225 221 279 232 198 224 206 264 266 330 308 276 329 325 301 290 310 337 377 368 385 406 388 406 363 337 294 276 260 238 203 165 146 132 112 95 86 80 80 81 86 89 97 115

GFSCGP_con_3kmhel_057.txt.gz
Helicity
16 32 31 -3 -4 25 34 38 38 37 24 10 37 47 58 104 61 65 70 53 27 22 25 37 61 35 29 33 32 26 16 6 -1 10 -3 -15 8 24 36 49 55 73 106 140
11 16 9 -22 -10 10 29 46 40 56 49 0 -22 30 11 119 124 127 123 88 42 25 7 12 28 33 50 78 97 65 46 30 32 24 29 36 47 39 59 97 100 100 132 148
20 29 18 8 -12 -6 8 35 38 29 29 -1 -6 22 24 16 42 62 57 113 59 21 0 -9 8 30 18 28 61 72 57 47 52 57 81 106 105 76 94 118 127 123 103 131
-16 -23 20 30 -18 -4 -34 14 26 13 3 24 50 38 29 -1 37 82 68 34 72 68 7 -17 -1 10 5 -21 -22 9 38 47 59 85 97 127 128 129 139 180 170 136 132 163
-11 31 49 13 -3 2 -21 20 35 13 13 34 39 26 30 25 9 60 117 96 37 36 50 8 9 25 12 -18 4 24 47 72 91 127 131 160 156 148 164 208 175 179 160 177
-25 -12 0 29 42 20 23 43 50 45 58 8 44 20 6 15 26 16 20 118 119 33 28 26 12 0 10 30 53 67 78 82 105 129 161 147 122 153 188 210 234 205 215 208
-27 -10 -13 43 38 20 20 43 34 39 34 -5 39 14 -6 30 9 -3 9 1 94 116 29 30 32 45 50 91 91 91 99 102 141 170 196 178 196 202 213 231 246 232 251 239
5 26 26 34 38 20 22 25 39 43 46 40 26 18 26 17 6 7 18 26 2 57 43 47 63 72 90 120 135 141 142 156 205 229 244 199 187 249 221 221 259 217 232 205
63 -8 15 25 72 60 67 64 65 86 60 45 42 22 1 19 14 27 56 62 35 18 28 23 30 68 91 148 185 194 173 166 216 250 294 245 258 230 233 242 200 126 149 240
42 53 17 35 42 108 76 61 75 74 30 15 24 30 21 22 31 47 55 49 53 29 44 47 43 58 72 103 155 171 172 172 186 201 251 280 250 218 238 239 161 170 236 286
71 66 43 47 45 39 91 81 94 70 81 44 61 33 20 2 20 40 30 9 -3 -6 3 29 50 54 72 87 108 136 157 155 162 173 183 189 189 183 212 195 201 229 307 282
57 75 47 47 38 38 60 106 115 97 55 108 112 58 58 10 22 23 -3 4 -1 -12 -10 5 11 25 34 34 59 85 94 110 126 142 166 167 176 191 186 223 322 380 464 334
128 120 87 70 68 64 57 84 106 128 118 119 110 105 62 27 31 18 24 18 29 35 26 9 4 -3 2 7 11 27 39 63 92 141 161 187 181 226 298 360 354 395 453 351
225 144 92 60 66 89 86 80 127 144 95 95 160 54 34 25 29 8 21 34 18 31 44 60 68 58 47 41 33 33 83 131 158 163 183 200 217 261 272 280 197 232 253 424
131 102 94 68 78 122 85 95 113 122 124 142 76 114 47 56 79 68 50 62 80 90 91 104 93 91 96 106 96 119 145 176 185 200 196 200 184 179 210 239 220 245 360 372
127 99 139 95 94 101 106 32 65 85 105 90 81 86 52 111 118 134 140 146 179 178 185 167 154 140 146 144 150 170 190 203 210 215 205 200 232 230 252 300 387 301 437 380
54 142 161 94 125 150 112 81 119 139 144 145 166 125 134 126 172 205 231 270 308 255 268 260 242 223 197 185 153 167 178 190 204 205 191 212 259 316 339 360 306 415 401 440
91 140 169 135 214 168 125 139 145 131 112 166 163 135 100 151 250 276 284 257 251 225 218 193 162 156 147 135 161 180 192 205 217 231 253 281 311 325 336 414 439 385 294 117
123 163 153 167 171 172 139 143 154 152 73 154 149 139 156 229 256 239 223 200 173 157 150 150 133 124 140 157 153 197 221 227 258 264 301 335 362 366 348 366 221 115 99 116
150 148 151 157 141 136 133 142 164 179 42 111 147 159 204 226 205 175 159 160 180 166 133 118 120 135 169 163 169 213 217 246 277 256 256 233 233 190 116 91 102 107 122 120
194 185 163 236 172 172 166 181 221 163 138 88 144 206 253 217 168 208 191 201 185 158 151 159 195 233 217 186 197 226 215 225 190 174 171 180 167 141 135 126 122 113 111 106
198 195 193 251 229 172 239 338 259 220 158 107 163 229 291 247 234 241 215 200 176 188 191 220 275 281 248 217 232 256 254 194 191 207 219 220 191 151 127 129 119 108 108 105
161 161 178 199 174 208 127 179 255 194 139 126 215 250 359 303 236 214 214 208 188 198 243 260 309 337 314 281 233 249 207 184 189 205 197 179 157 145 135 133 128 116 121 125
145 120 173 175 153 165 160 172 197 195 150 159 213 331 330 292 245 262 248 225 233 246 277 277 310 333 341 306 293 262 223 203 190 189 177 159 153 137 130 117 118 118 123 129
183 203 192 189 149 156 109 140 194 191 191 269 315 303 312 364 293 280 270 264 285 304 305 298 320 330 319 301 314 281 246 192 186 173 162 149 128 128 120 113 108 107 113 135
235 206 224 175 130 162 136 154 265 192 225 268 399 376 302 295 318 310 327 324 325 340 332 347 343 336 304 294 276 267 220 188 170 163 141 128 113 102 89 88 91 115 99 107

GFSCGP_con_3kmhel_063.txt.gz
Helicity
39 16 24 -5 21 -37 -0 29 -8 39 38 22 21 108 1 68 28 37 51 55 64 56 46 82 71 37 23 30 7 2 15 12 -9 -24 -31 -33 -31 -36 -33 -23 13 31 59 76
34 21 -31 21 6 -7 -19 -27 -13 36 49 15 31 56 74 41 33 40 48 54 74 76 65 80 68 63 50 54 27 9 12 11 -8 -12 -16 -25 -22 -8 -5 7 41 55 80 71
3 10 9 30 27 9 -12 -58 65 45 54 41 20 37 -9 48 48 44 30 67 43 65 74 89 82 74 42 50 39 26 25 25 3 -14 -17 -21 -20 -12 3 16 40 65 81 70
4 -7 35 9 -15 10 -8 13 -10 32 4 5 26 27 57 73 42 51 62 62 58 39 30 73 69 60 50 29 29 15 14 10 16 2 -9 4 10 28 33 31 66 100 77 80
17 -7 49 -11 -6 2 -35 12 -12 2 17 31 43 -0 55 11 26 64 60 63 47 67 51 38 70 60 47 35 25 16 10 -0 -1 25 -18 29 17 28 51 57 88 118 94 87
-19 30 12 -8 9 -10 -31 29 -4 9 22 28 -5 21 -2 5 -12 33 51 52 55 48 46 38 30 39 26 15 12 13 12 21 20 45 51 34 68 46 76 110 188 151 128 132
6 54 9 -18 20 17 -0 -1 5 15 11 10 52 27 57 62 43 18 7 4 37 30 27 23 32 42 25 46 50 35 29 30 47 49 59 69 69 71 62 123 118 82 133 133
66 65 28 36 -14 25 59 -16 -6 15 3 19 38 1 39 78 44 25 15 13 55 44 55 85 67 54 42 58 78 64 64 51 66 77 78 53 58 92 105 185 320 193 270 157
56 13 67 26 6 -35 17 -20 -2 22 72 45 29 7 28 62 24 36 43 26 27 46 27 49 59 65 36 45 80 97 70 64 65 97 106 110 117 142 156 210 186 256 209 296
34 13 50 67 28 -6 -42 -31 -20 -10 9 14 19 17 68 17 31 35 19 34 36 43 43 32 32 79 47 44 59 80 70 67 82 109 171 159 187 188 192 251 217 275 246 212
27 24 133 113 46 21 19 -7 -36 33 5 28 26 30 37 46 29 22 28 21 43 54 42 34 31 40 59 59 66 75 69 80 83 104 174 213 240 220 183 188 245 260 176 187
12 53 94 69 13 -14 9 25 3 -8 -13 34 24 -0 30 23 29 39 25 35 40 32 41 40 31 39 54 95 100 151 95 57 67 108 141 264 185 185 166 162 171 217 283 308
40 100 86 31 87 57 30 -37 -20 -2 -50 -28 16 18 20 54 59 26 17 24 44 45 42 46 55 53 57 71 90 92 97 98 122 153 233 262 192 155 221 271 283 296 342 383
54 78 80 59 34 32 40 1 -2 -15 48 2 -25 -4 25 17 20 23 27 48 11 40 46 28 62 76 87 92 110 137 189 256 300 297 275 265 245 248 253 253 263 276 277 280
43 62 51 22 10 13 15 50 17 -0 20 4 -6 -18 15 33 20 23 90 105 67 74 73 60 67 118 155 203 290 316 248 237 243 278 313 300 286 275 277 279 268 268 264 316
30 85 42 40 26 19 42 10 1 9 27 -15 -11 -1 -2 37 21 57 71 77 94 131 130 102 84 132 232 254 287 276 260 281 291 306 304 277 278 298 280 272 238 238 249 246
90 76 74 66 25 26 53 -7 -5 -0 -11 9 13 -13 -6 -0 28 65 63 76 117 136 155 152 179 251 263 278 252 252 228 208 232 235 214 203 205 228 224 222 222 230 221 207
127 96 105 117 167 119 34 3 14 9 -15 6 17 -4 -33 -17 55 75 130 109 152 187 203 228 263 240 197 209 210 171 157 147 151 168 187 195 209 211 213 204 219 211 198 195
174 131 152 140 123 91 45 78 36 7 3 7 -0 -13 -2 79 150 110 156 176 181 192 231 254 235 206 189 177 165 154 161 172 185 202 212 215 211 193 176 183 183 181 157 125
120 102 127 155 97 70 28 39 28 5 26 -8 -12 26 18 97 56 30 194 202 238 230 229 214 193 172 160 149 145 161 163 181 199 205 207 192 179 168 160 154 142 105 95 121
193 172 107 121 142 95 54 15 33 86 -17 3 37 38 45 87 40 149 232 213 233 251 251 220 181 170 167 163 163 197 213 229 209 186 193 189 172 121 124 150 148 141 147 145
139 183 174 130 130 116 119 160 108 74 -0 44 38 34 65 153 191 205 241 261 316 306 267 223 211 203 192 184 201 234 247 221 200 194 184 161 180 181 175 165 154 143 152 165
99 114 125 123 136 127 82 64 29 39 67 65 57 68 99 216 200 192 260 291 315 306 273 232 232 231 217 222 227 267 268 240 216 215 214 206 194 198 185 184 199 187 175 167
72 105 116 122 85 93 54 49 39 74 58 70 81 84 118 204 202 213 256 301 321 310 277 260 267 263 280 292 311 287 274 252 238 235 225 221 227 213 199 178 191 202 192 185
85 85 79 75 65 77 68 72 94 58 63 81 95 99 130 171 207 239 275 323 330 317 314 296 308 324 316 334 331 308 282 249 243 237 260 277 256 227 195 211 224 197 196 183
84 60 93 78 62 73 41 39 84 50 48 86 83 105 131 165 224 243 290 304 343 379 340 338 344 350 367 374 382 360 311 286 268 280 292 265 227 209 196 194 148 173 180 154

GFSCGP_con_3kmhel_066.txt.gz
Helicity
22 34 39 4 31 -3 -18 -59 3 60 65 27 14 21 132 128 63 145 119 169 135 50 244 116 64 58 22 11 -17 -24 -9 -19 -39 -52 -56 -57 -40 -55 -68 -58 -39 78 55 79
11 58 0 2 0 39 -25 -44 -3 41 26 33 11 14 151 94 27 37 112 104 188 109 261 197 148 129 87 -5 36 -13 23 12 -17 0 -21 -27 -16 -20 -28 -4 -2 117 85 102
33 16 69 -30 9 17 -14 -38 -10 20 47 11 30 34 16 14 55 6 73 73 200 92 206 253 231 98 164 151 101 51 44 23 -15 -3 8 -15 5 4 4 18 24 152 165 158
18 -33 -2 6 26 10 -14 15 -46 9 -5 -4 97 -16 -4 43 33 78 35 60 160 117 151 242 211 161 108 157 85 59 103 85 18 -44 18 36 8 33 68 81 96 156 191 162
-13 -3 -42 18 0 -21 -45 49 -25 -37 -29 9 34 32 4 38 -1 68 127 103 117 61 111 251 213 169 113 91 117 36 16 79 74 29 -38 67 78 49 44 94 85 203 245 188
-14 8 3 16 -4 -24 -21 -21 -4 -29 -8 -9 40 35 2 38 -27 36 133 125 96 73 110 113 202 169 138 76 95 75 4 17 -2 101 99 7 113 91 83 133 129 231 240 162
12 -40 21 13 8 -1 45 -11 -19 -23 -21 19 22 21 13 88 2 44 28 149 101 76 125 119 159 189 164 139 122 113 93 53 42 42 151 70 36 114 89 134 180 347 204 224
93 27 -46 53 -16 33 31 10 -24 21 -16 -13 84 3 46 20 2 72 55 -8 37 105 114 120 122 227 218 180 181 144 132 98 83 97 112 143 99 88 121 86 253 443 338 280
51 6 11 40 29 -80 22 39 6 65 -1 7 -36 -4 47 45 33 46 8 33 18 30 53 132 133 132 220 227 200 211 162 121 87 131 151 174 176 152 93 157 298 360 339 292
-13 55 -27 71 41 -16 -51 6 -49 11 -1 6 8 -7 64 75 27 54 4 33 38 50 53 21 91 149 193 249 215 191 165 119 129 129 196 178 208 228 246 264 367 273 366 437
-72 5 18 51 110 24 38 5 -29 -29 14 84 -22 38 83 87 25 27 50 59 44 44 47 59 51 51 179 203 227 233 184 129 118 118 149 150 225 302 319 318 316 315 354 355
-55 -8 57 31 82 36 -18 34 4 102 52 45 70 -12 49 62 20 75 36 52 29 46 50 50 40 34 96 131 172 216 245 187 136 164 168 235 304 356 337 324 290 313 334 320
-17 -25 72 47 44 44 0 2 -4 -37 4 15 33 19 35 24 80 65 86 36 83 89 16 87 56 48 58 89 116 153 232 197 172 236 164 299 377 344 321 312 277 297 327 362
-4 47 45 80 41 68 39 28 -9 -18 52 84 60 0 26 94 45 18 28 63 53 82 59 33 98 95 81 92 142 296 431 448 457 534 612 605 492 343 293 307 319 310 306 343
47 81 51 72 21 58 -11 36 12 -20 20 45 55 -4 -21 4 64 4 107 144 133 62 87 95 67 185 207 320 375 388 422 422 418 401 392 376 338 327 288 284 309 300 319 339
106 95 58 64 44 66 47 11 84 34 -42 -7 5 39 -17 -9 34 21 75 122 131 107 164 142 114 244 422 369 340 356 393 396 355 350 328 319 327 322 292 332 347 323 309 305
92 126 114 94 71 112 59 7 22 31 24 20 27 26 3 -57 -2 28 67 89 130 214 133 111 134 418 498 362 289 344 378 361 354 329 299 282 266 279 238 240 254 264 248 247
143 98 65 99 117 56 67 59 61 67 43 37 18 24 14 -6 -19 79 128 120 164 286 208 181 277 327 378 341 342 259 250 243 218 219 215 203 202 206 195 202 219 232 226 230
167 186 133 116 91 101 79 72 70 48 29 12 22 -3 20 32 107 163 159 159 229 321 283 280 305 305 290 260 141 127 129 125 140 152 156 191 209 211 242 256 214 207 225 202
151 144 141 169 97 75 135 63 57 62 53 30 28 28 20 116 123 116 122 179 258 257 229 263 289 284 272 254 223 193 184 173 199 212 254 238 249 241 216 185 177 168 155 143
141 136 121 126 141 146 110 72 51 52 50 17 12 19 36 99 119 141 152 191 216 252 266 286 258 272 260 225 207 209 223 247 267 291 256 245 230 189 150 126 125 143 225 282
91 133 121 140 128 97 137 47 45 56 18 42 40 49 77 132 160 196 239 232 221 260 285 276 300 314 275 212 204 258 286 286 306 279 260 205 180 179 206 228 246 246 234 246
124 79 116 159 157 112 95 45 52 85 67 57 92 95 77 183 224 250 266 228 238 270 316 314 371 373 294 254 281 322 301 299 322 277 276 268 229 233 221 261 254 286 259 260
73 113 52 179 102 106 29 48 63 69 65 72 94 111 89 196 238 264 267 262 282 307 297 382 396 372 340 322 303 333 345 319 324 338 303 276 286 279 288 297 311 313 312 279
130 84 9 -62 46 93 158 121 77 66 67 33 55 88 88 198 251 246 262 300 292 277 360 402 404 411 401 417 456 387 364 340 366 370 353 336 312 291 383 387 319 251 240 232
141 120 117 139 62 61 52 120 197 143 100 74 113 81 82 155 183 207 245 277 296 324 386 441 458 505 522 521 492 438 387 420 461 459 443 369 368 380 325 242 246 256 162 157

GFSCGP_con_3kmhel_069.txt.gz
Helicity
86 72 59 63 30 16 46 66 16 -25 83 73 80 80 135 94 138 184 139 -21 233 243 108 10 14 1 -27 -48 -82 -50 -60 -70 -96 -92 -76 -129 -151 -112 -97 -85 -69 -43 -17 14
84 79 40 -5 -21 6 65 47 10 39 76 35 22 7 88 50 110 70 100 10 201 257 261 108 44 26 -38 -56 -133 -45 -57 -80 -101 -69 -58 -84 -58 -57 -54 -61 -43 -6 -1 39
120 52 47 -15 -22 1 24 25 -12 21 34 -14 5 3 88 59 82 47 -6 78 256 398 347 224 144 115 62 5 -23 -41 -54 -62 -62 -33 -40 -65 -48 -56 -55 -60 -37 -3 69 89
96 9 -44 15 -1 19 5 1 8 -3 -31 -40 86 -28 55 3 108 128 134 284 246 432 382 345 213 140 143 81 13 3 -40 -45 -12 -1 4 -13 1 2 -11 -7 5 70 140 144
128 42 -18 -13 -62 59 -6 27 9 -9 -13 -32 13 30 26 10 -5 67 123 298 281 371 417 414 302 213 167 102 86 77 53 66 38 21 41 13 19 36 27 8 13 104 168 201
12 5 -21 3 27 53 -12 18 64 6 -32 -53 -6 53 -1 -37 -10 47 63 247 228 358 361 350 329 267 200 134 123 109 83 68 35 -8 -28 30 63 63 97 118 117 159 236 238
-26 12 -53 -17 52 61 23 51 27 -5 -12 -15 -21 38 105 80 48 2 89 256 212 274 344 317 313 283 264 271 193 130 95 66 66 28 6 12 125 146 134 129 149 223 263 274
62 56 -50 -19 43 72 89 103 86 18 3 -52 27 -1 8 29 -71 -4 47 216 189 154 212 314 373 380 319 269 271 213 134 119 164 164 124 43 122 208 212 198 268 341 379 307
163 115 110 -20 53 107 45 137 86 105 14 1 -23 -110 -33 -18 51 52 32 75 93 178 140 267 325 347 407 357 283 276 220 140 124 152 188 181 161 200 265 160 220 316 328 319
119 161 45 6 60 103 76 70 65 110 54 9 -48 -26 -1 157 105 76 83 56 77 56 138 188 319 337 327 405 405 362 280 259 200 155 125 189 202 244 280 239 281 375 396 248
68 170 63 2 65 92 90 50 67 37 108 17 -4 14 24 132 74 56 84 95 101 69 55 80 77 281 338 382 395 389 341 266 212 191 182 210 300 296 348 391 344 227 314 346
182 251 77 29 121 161 114 118 102 114 61 100 78 53 0 1 43 92 83 98 125 147 53 15 48 109 232 290 325 388 351 306 300 238 201 241 424 429 333 322 327 354 316 363
288 220 114 96 138 117 158 117 85 95 87 116 132 72 9 0 6 27 99 90 127 152 147 106 46 69 116 145 188 251 368 411 306 177 141 330 423 327 291 176 309 468 402 355
281 161 56 109 146 100 122 116 45 81 95 102 98 52 -17 -58 54 59 6 29 87 118 131 135 132 73 154 196 300 390 456 314 242 163 190 425 474 414 403 379 342 305 292 338
149 95 70 45 20 77 40 34 52 74 81 101 33 72 29 -10 9 61 24 49 65 119 80 121 139 275 311 250 332 403 452 473 494 459 498 467 446 376 347 325 298 315 307 335
161 154 118 59 55 20 42 -7 36 23 76 88 55 -1 -7 1 11 101 170 169 143 226 192 284 272 385 409 356 308 351 318 350 403 457 459 415 369 321 301 289 298 327 348 359
104 160 100 50 64 19 88 39 9 58 56 69 75 51 49 50 54 54 121 201 236 235 226 242 207 279 368 424 371 329 301 275 351 403 359 336 293 283 284 324 332 341 302 283
213 158 62 55 84 121 17 60 78 41 21 62 63 68 61 46 58 55 83 182 232 227 264 302 367 399 428 450 421 386 345 348 375 354 297 269 284 320 319 297 274 272 269 252
193 246 193 111 133 119 77 85 58 40 44 21 48 61 54 48 146 233 197 213 226 230 279 364 394 409 407 369 347 330 324 362 328 285 277 271 252 235 224 240 240 234 247 234
97 145 165 196 191 122 -6 51 48 48 62 99 86 99 102 93 144 141 198 225 268 310 351 416 370 357 322 287 262 301 315 286 257 237 225 201 215 239 248 243 213 185 184 188
202 200 171 170 185 120 64 36 27 115 82 60 48 49 66 71 80 123 164 168 197 263 314 353 373 349 322 297 289 293 296 267 268 271 258 284 273 273 239 205 182 169 214 284
180 214 207 88 106 63 123 110 102 35 35 4 -12 0 67 93 81 130 165 172 224 303 330 330 352 381 408 404 375 340 335 334 329 327 322 307 279 255 226 213 212 262 314 319
140 173 197 172 122 103 102 -20 76 56 56 83 93 104 35 141 141 138 173 203 285 357 361 358 384 417 406 402 386 428 418 414 409 378 337 304 293 330 296 309 349 353 326 307
102 143 120 107 106 141 163 313 74 48 -18 13 40 53 13 75 110 161 210 257 331 366 389 387 423 446 442 439 488 497 475 459 429 416 405 444 473 456 476 450 416 407 402 407
108 125 125 68 58 39 2 28 186 235 277 82 146 115 80 86 136 214 228 269 324 365 367 415 474 483 485 552 563 526 506 491 486 510 512 515 540 535 532 481 380 404 415 332
164 125 136 50 26 58 -158 -15 -74 24 87 79 41 88 63 84 148 222 253 290 339 389 397 470 511 587 651 717 678 560 511 552 594 638 640 629 549 492 453 433 454 427 328 283

GFSCGP_con_3kmhel_072.txt.gz
Helicity
180 159 158 135 103 53 10 52 63 18 161 59 83 100 93 140 82 103 100 127 151 166 98 78 96 88 93 61 27 -18 29 12 14 3 57 28 -13 -46 -67 -73 -102 -117 -115 -80
176 79 83 95 36 16 -1 16 4 46 73 60 43 21 86 130 89 147 116 117 151 190 207 133 52 36 59 12 -20 33 75 40 25 -52 -57 -46 31 -20 -72 -101 -143 -136 -97 -53
190 95 70 103 21 13 8 49 32 104 12 -6 45 80 84 64 65 98 71 83 139 248 277 212 142 55 44 -26 -98 -52 -62 -78 -93 -93 -100 -61 -68 -136 -175 -163 -141 -116 -83 -31
164 -38 35 71 30 31 -9 2 45 30 66 39 37 -8 14 28 58 62 102 164 181 252 241 228 182 117 78 -7 -121 -102 -101 -85 -128 -138 -149 -154 -149 -159 -149 -138 -107 -90 -38 1
287 67 88 78 -10 33 34 8 34 52 36 39 -7 -9 -8 63 31 77 73 194 207 269 282 264 209 172 78 70 -4 -65 -58 -44 -74 -88 -78 -83 -100 -88 -77 -57 -50 -43 -23 24
111 38 69 71 10 4 27 47 57 80 74 -63 -39 -34 -107 -16 8 63 128 143 219 236 252 203 182 169 120 107 88 23 -14 -28 -24 -41 -43 -25 -5 -32 -35 -6 9 15 27 47
162 -11 16 34 96 53 16 107 84 52 48 -64 32 5 16 27 -7 88 184 189 300 222 287 257 173 167 157 169 156 104 63 27 13 19 26 35 34 19 32 56 56 104 101 87
234 138 98 88 36 111 91 99 121 45 8 32 44 -45 -9 10 38 5 188 253 341 293 262 258 264 250 212 178 176 160 130 95 85 90 92 82 52 30 2 27 57 75 124 147
181 173 145 78 129 90 101 151 104 156 121 31 4 24 -7 8 35 -3 13 172 285 295 269 207 218 258 270 228 206 193 193 165 142 139 93 72 49 48 57 112 164 232 240 230
163 159 33 146 120 99 84 117 188 143 67 26 28 33 5 23 -0 11 55 99 192 274 257 230 234 248 302 338 288 264 226 218 242 230 178 138 133 130 138 169 200 224 315 333
95 156 185 128 152 106 93 123 164 157 172 84 73 50 -2 10 32 29 96 72 102 191 303 245 255 242 295 339 340 319 283 250 236 212 202 175 167 175 234 283 306 368 322 265
116 123 115 119 180 142 65 62 148 152 110 114 58 49 12 22 58 94 84 102 97 93 93 130 231 258 292 365 376 366 337 304 251 262 235 200 192 169 337 369 391 332 209 226
138 125 134 84 72 95 81 86 137 197 192 130 121 39 41 -8 91 50 17 88 111 112 135 127 82 42 106 211 288 336 332 381 414 418 279 233 380 364 397 405 267 234 256 96
141 201 128 115 127 126 149 87 92 143 180 138 164 66 -7 12 23 28 -24 9 28 73 120 128 169 162 148 189 263 321 337 449 435 367 321 360 342 304 309 400 467 386 346 357
161 152 158 178 106 115 225 227 104 142 152 135 89 128 56 3 37 -18 3 31 60 88 100 106 217 248 277 236 243 329 408 514 479 409 425 380 271 245 283 366 430 411 401 367
125 146 176 124 106 13 137 251 103 78 77 94 118 123 67 59 20 -21 -59 92 33 112 147 168 262 303 318 294 309 337 378 429 500 500 427 382 392 397 362 358 365 376 367 372
180 162 138 81 92 142 61 54 76 102 82 58 118 50 33 44 -11 -18 13 68 130 205 260 256 279 331 312 354 389 374 371 351 336 360 366 401 435 447 392 363 360 326 352 374
173 206 117 70 110 89 54 -31 100 32 49 77 74 -11 11 28 14 20 88 144 189 281 256 212 250 359 405 430 416 443 403 365 354 361 357 383 406 388 360 335 314 330 334 307
55 58 90 130 176 118 148 117 74 88 68 106 97 24 56 64 108 118 71 113 181 222 217 228 284 367 432 454 443 424 387 356 346 361 404 392 366 352 313 294 290 304 336 349
91 99 116 160 124 108 -54 59 50 22 85 144 31 41 53 53 118 97 99 173 268 251 234 223 250 354 381 355 366 386 352 321 317 328 308 291 286 262 262 272 289 283 288 326
182 149 142 208 134 71 73 48 113 82 40 25 45 36 76 65 74 96 163 171 215 201 189 242 257 284 310 319 330 315 301 290 282 272 276 273 239 243 266 276 251 280 333 356
106 163 191 149 99 65 140 128 128 158 210 91 25 48 65 83 60 78 133 180 190 216 221 235 287 273 267 287 318 324 335 321 324 333 316 277 263 264 248 252 286 317 334 361
78 126 143 97 56 120 127 115 122 143 160 174 58 87 30 43 85 103 131 171 205 231 264 271 301 302 271 264 280 317 311 369 377 339 302 289 298 291 284 305 314 326 348 378
66 78 87 90 87 91 107 89 75 64 159 197 244 120 141 143 78 183 218 219 232 256 285 301 316 295 333 337 335 355 357 358 341 340 350 364 411 455 459 424 380 376 371 386
28 34 77 99 89 102 65 44 95 142 60 155 152 88 113 83 104 115 168 248 309 285 297 304 325 373 388 395 430 428 400 427 442 452 440 465 484 500 547 582 515 474 433 359
99 89 103 76 47 83 68 58 55 11 122 186 91 42 49 62 55 125 218 277 317 358 375 475 526 574 586 610 598 554 535 523 527 554 531 523 542 542 529 534 560 556 447 410

GFSCGP_con_3kmhel_075.txt.gz
Helicity
183 228 87 258 191 184 112 99 60 23 17 79 69 44 38 110 130 81 138 103 112 138 125 135 121 126 138 121 -1 18 34 18 -7 100 73 47 39 88 58 -0 -14 -3 -63 -59
238 149 122 137 119 94 82 78 26 -18 36 65 45 20 -6 106 96 96 137 113 110 155 150 160 155 141 98 83 34 -28 -0 28 32 38 47 58 63 134 2 -41 -52 -56 -46 -46
261 227 98 139 133 97 88 94 59 67 76 93 99 2 40 67 9 -75 40 55 113 193 160 144 129 127 71 43 60 2 43 55 -18 -25 -11 91 62 85 6 -35 -102 -70 -57 -85
183 87 105 115 112 112 79 60 30 56 136 148 54 -13 5 22 36 -42 -2 83 112 196 172 152 134 131 92 41 -23 -4 -20 14 16 15 -30 17 -39 -41 31 23 29 -62 -91 -95
264 143 132 117 65 147 52 50 67 97 106 135 101 45 -57 59 -0 32 77 74 136 208 247 217 163 121 78 69 54 18 -37 -37 -61 -89 -102 -116 -81 -15 44 7 -68 -94 -93 -83
148 125 98 133 45 117 5 50 65 158 155 109 66 57 -60 58 120 84 108 72 100 206 223 185 156 116 68 14 42 63 22 -37 -39 -98 -131 -123 -104 -90 -101 -124 -115 -105 -83 -77
168 133 138 124 93 93 101 146 235 221 188 43 49 47 -10 5 53 55 15 26 31 139 217 199 228 211 135 76 64 61 44 14 -17 -52 -64 -82 -92 -84 -72 -77 -56 -39 -64 -50
208 173 90 147 115 193 224 215 248 198 148 58 95 -23 -41 -29 42 27 30 66 96 165 188 227 239 242 220 184 161 159 133 42 26 -0 -31 -33 -46 -45 -49 -43 1 12 35 37
115 149 135 127 166 88 184 298 148 180 163 98 67 46 16 -12 21 19 -17 38 57 143 184 190 210 245 253 229 261 288 221 137 113 83 35 28 18 25 7 17 13 58 64 63
187 80 95 69 135 89 119 157 231 236 158 80 72 31 23 26 30 42 53 40 96 133 125 104 153 176 201 233 280 295 280 257 192 143 103 86 80 73 54 76 75 71 93 113
138 138 147 98 154 171 225 246 224 174 185 122 79 70 65 7 -5 -14 30 18 77 139 161 131 130 143 196 212 247 269 282 256 215 176 136 112 101 113 116 107 148 163 194 180
126 117 77 99 140 130 146 201 234 211 233 157 106 63 25 151 48 49 44 42 56 79 141 175 209 199 212 221 281 330 333 301 290 308 253 172 107 231 202 226 273 258 423 222
87 142 163 79 60 127 111 185 194 184 151 172 162 30 -17 93 58 77 72 57 34 52 72 96 149 194 232 263 280 327 374 363 407 469 309 247 173 202 287 339 278 187 486 144
61 127 129 102 129 110 150 214 180 110 136 139 184 40 20 53 10 66 59 36 41 52 55 39 18 101 154 161 227 279 330 401 508 500 389 350 191 232 402 410 327 289 281 114
49 87 93 109 81 123 139 169 193 141 88 124 120 93 80 65 -0 39 23 -2 19 -32 130 174 96 96 98 111 148 164 229 352 420 410 368 340 340 261 320 320 286 280 311 342
147 107 68 71 127 129 87 67 187 162 211 89 106 95 101 61 44 26 22 33 45 -25 102 180 120 189 175 169 190 259 311 379 454 443 430 451 383 288 263 298 345 379 435 453
129 190 160 152 122 167 123 99 65 88 215 231 129 51 79 67 23 21 27 24 34 1 69 265 160 214 206 240 247 275 324 380 441 416 435 391 370 304 305 340 342 322 326 334
65 189 156 94 125 116 65 -2 60 51 138 163 150 102 44 73 53 38 49 9 2 62 70 201 173 272 262 311 270 325 331 349 365 339 356 357 360 344 332 336 312 303 314 312
24 10 119 103 108 108 36 39 77 83 84 146 131 117 70 71 85 71 51 57 53 117 111 223 314 326 316 252 303 338 347 316 298 292 269 255 259 302 339 343 334 316 321 323
126 137 55 104 118 23 -52 -26 34 88 100 124 157 115 60 58 114 69 53 77 78 108 241 341 321 265 246 235 296 335 323 296 277 258 255 262 292 303 299 281 273 274 289 331
125 150 111 66 60 71 49 7 118 105 104 280 327 144 112 172 116 42 64 86 139 236 285 258 223 223 207 263 293 287 262 249 256 273 272 274 255 257 253 268 271 312 383 432
47 31 84 92 83 39 41 57 57 79 53 76 105 79 97 74 42 49 50 108 186 292 302 255 255 239 228 247 256 246 237 254 286 298 289 266 254 247 256 293 332 377 412 455
75 18 -25 6 35 54 58 81 72 89 68 70 170 296 198 52 16 47 40 160 204 255 239 236 241 243 217 215 226 265 259 290 293 278 282 297 318 320 320 360 388 408 396 397
67 1 66 91 54 45 34 72 28 2 64 73 80 143 247 248 174 117 61 126 200 226 246 216 229 233 235 228 246 253 245 261 288 361 386 365 361 387 417 423 396 397 410 413
62 25 16 15 59 51 26 13 25 32 32 83 78 29 35 138 132 134 153 113 148 201 238 243 262 301 308 297 304 264 260 309 355 353 354 346 344 379 417 454 410 432 397 360
72 40 32 30 41 58 31 54 55 35 22 13 57 113 181 134 74 123 124 153 184 232 269 335 368 386 359 351 351 298 264 283 292 300 295 316 359 390 428 483 586 644 571 565

GFSCGP_con_3kmhel_078.txt.gz
Helicity
257 346 248 260 294 253 151 86 74 51 55 88 59 68 15 71 72 126 164 176 150 69 110 129 101 109 107 155 90 33 78 104 113 101 157 120 124 99 113 59 2 -38 2 43
276 240 124 170 162 178 154 98 -21 -4 -25 54 59 51 -14 44 33 158 140 143 152 107 122 152 138 131 125 145 85 53 78 65 80 98 147 135 119 79 77 53 33 34 50 40
180 222 120 177 204 177 125 136 83 72 45 17 79 96 40 15 39 94 72 115 150 168 141 145 127 114 118 123 88 61 59 4 11 53 143 130 135 125 97 45 30 11 33 54
88 94 96 64 159 218 177 152 95 87 117 94 127 64 47 -16 -35 4 26 92 155 160 156 134 125 94 103 80 99 97 114 73 4 64 84 114 75 80 97 53 85 -52 -55 -45
147 111 96 163 125 201 96 146 99 93 135 149 65 173 83 10 -56 -11 -12 60 138 170 213 182 165 98 86 77 75 104 124 102 113 55 61 16 -32 -40 50 33 -11 -103 -87 -94
156 135 63 108 133 125 107 62 120 147 173 188 108 160 52 36 22 22 -3 12 76 147 179 150 143 106 65 70 80 76 85 54 47 60 38 36 -24 -40 -53 -42 -59 -105 -124 -122
241 179 135 75 122 136 124 158 245 282 262 203 138 156 105 16 60 72 73 96 49 117 160 185 207 171 120 98 113 92 92 57 30 16 -24 -47 -64 -80 -70 -59 -65 -82 -99 -104
189 163 180 180 158 133 123 226 374 346 286 193 245 141 48 18 37 41 3 86 38 49 120 182 203 202 175 118 117 121 120 83 69 32 -12 -60 -111 -129 -156 -160 -129 -128 -87 -54
100 114 87 118 205 140 165 190 207 270 233 185 158 164 82 20 73 22 6 -1 -4 71 107 150 177 205 211 197 176 146 87 65 77 78 28 -16 -86 -107 -118 -120 -123 -125 -132 -76
138 143 79 76 138 103 210 158 298 326 199 142 171 139 65 51 123 43 19 20 -19 32 98 138 153 158 176 197 217 195 135 104 91 70 56 38 3 -43 -65 -77 -101 -84 -56 -13
138 168 140 80 122 142 236 106 209 215 236 159 157 101 40 58 91 69 75 22 -5 35 141 149 129 150 166 178 228 253 220 187 171 164 122 94 54 13 17 34 20 15 44 81
195 123 158 107 96 87 108 170 215 278 266 207 183 129 57 35 58 39 87 23 -0 -32 56 110 147 191 206 215 236 260 285 273 257 247 182 137 117 111 146 149 52 81 79 153
238 237 175 188 27 36 157 161 174 215 222 155 142 106 57 37 44 44 55 60 31 2 -2 12 57 154 210 223 261 289 333 374 405 418 365 153 73 -32 8 140 175 106 143 170
100 159 149 157 201 120 102 155 172 181 187 167 139 86 55 43 61 65 97 74 55 26 32 -1 12 56 111 153 224 270 313 388 439 450 457 360 243 -0 -37 12 170 267 266 238
32 117 142 78 103 131 146 133 156 169 168 155 89 41 26 51 65 66 67 45 69 34 35 15 25 44 64 93 138 177 263 331 378 381 384 386 303 214 146 166 188 203 245 247
-2 114 191 114 111 115 150 79 123 125 137 101 73 22 47 49 49 53 52 53 55 55 32 48 33 -17 22 66 110 148 212 289 338 341 330 289 278 298 267 255 250 214 232 266
-23 -23 92 191 135 137 146 140 154 96 122 120 92 44 47 71 48 58 43 80 46 52 57 81 77 87 53 81 103 149 191 254 283 298 311 311 324 301 277 231 204 222 257 303
-55 104 -43 209 196 181 128 7 59 79 63 95 144 125 99 79 82 70 27 30 50 92 79 91 101 159 182 235 223 221 215 237 292 314 322 299 284 269 245 223 222 254 288 261
-4 -30 3 19 273 168 115 61 36 69 53 3 119 54 77 51 77 88 35 100 77 110 91 105 108 288 323 283 274 233 226 239 268 274 278 245 206 203 216 235 249 280 287 273
69 56 11 12 -49 48 35 70 54 44 -7 53 99 137 115 82 118 82 70 55 35 30 75 131 212 301 333 305 261 225 226 248 252 237 228 214 217 220 232 266 272 284 305 346
92 118 50 60 11 4 -28 -6 16 63 -14 14 66 125 63 186 156 95 157 137 14 -11 72 144 223 271 268 234 211 241 244 254 237 236 240 250 253 260 263 289 288 319 343 358
41 30 53 56 26 -19 -3 -3 22 2 34 32 24 62 34 119 167 43 131 108 67 54 99 193 250 231 211 202 224 239 259 229 225 231 252 272 280 273 275 324 338 323 341 399
102 66 64 20 -10 8 -29 -19 29 27 22 8 -1 62 57 -2 59 18 30 37 -18 60 126 201 248 270 211 210 209 268 227 224 249 277 281 285 303 306 285 292 300 335 356 381
93 53 62 57 59 29 19 12 48 57 -42 -15 5 34 -3 95 69 -0 48 43 -9 107 190 190 188 244 238 210 229 229 235 238 251 277 279 269 284 306 308 301 291 309 329 361
61 64 70 30 56 35 30 43 64 30 24 8 -3 -18 -24 40 57 30 -55 72 119 63 134 169 238 280 287 244 218 181 168 188 230 221 195 209 244 291 338 385 346 341 352 317
56 54 69 38 33 -37 18 39 8 -4 34 13 9 11 66 89 71 54 56 16 142 122 112 115 137 158 192 233 277 265 263 251 258 298 291 285 315 333 356 362 479 518 419 429

GFSCGP_con_3kmhel_081.txt.gz
Helicity
244 276 279 169 188 176 99 94 75 94 87 120 98 48 12 1 77 98 81 103 107 108 73 91 120 103 85 89 138 73 91 59 68 99 85 146 203 114 55 71 68 91 79 53
207 194 123 142 98 107 92 86 41 50 49 81 69 -4 55 33 52 89 84 116 94 97 108 112 121 124 95 87 113 22 46 83 78 76 94 81 166 143 183 290 274 153 97 53
148 108 115 133 103 98 66 64 58 64 97 58 82 27 75 61 46 48 47 64 85 104 120 139 132 139 105 97 108 70 48 97 118 120 167 115 132 246 211 270 248 135 18 20
59 79 102 64 64 118 69 68 60 64 79 101 179 131 121 42 15 21 54 70 79 82 101 106 123 153 122 93 89 109 117 86 102 181 127 97 44 119 143 102 60 -160 -44 -47
126 66 52 132 96 94 57 72 37 43 83 129 75 174 111 70 43 2 -4 46 88 77 115 133 105 112 105 90 91 102 98 103 56 25 79 89 107 76 109 76 -21 -138 -122 -97
127 135 73 71 91 107 97 61 102 115 137 130 146 202 79 85 53 11 -1 31 46 59 71 75 87 107 92 82 79 91 98 118 120 68 13 -16 7 31 9 39 -17 -84 -115 -115
111 73 101 112 97 96 133 164 142 114 164 166 172 225 160 48 30 67 31 31 57 32 48 58 107 138 129 126 107 98 115 125 129 91 50 6 -22 -27 -6 19 -16 -55 -96 -97
90 96 103 170 163 148 83 129 182 88 90 81 199 168 151 58 25 23 15 59 51 28 41 48 84 111 125 132 123 108 96 95 107 98 64 1 -25 -81 -87 -62 -35 -58 -99 -87
83 76 69 71 163 180 171 170 106 160 145 108 130 138 66 47 52 41 40 43 27 55 42 21 42 71 80 112 131 121 100 81 78 81 57 31 -4 -22 -54 -60 -56 -69 -78 -79
164 121 126 100 90 81 145 124 178 184 158 98 133 144 82 39 27 19 46 19 36 43 41 17 26 52 64 75 84 87 80 102 94 71 57 48 32 4 -37 -52 -59 -66 -68 -46
176 149 163 136 171 109 133 173 212 162 219 177 112 96 64 35 25 40 98 69 69 21 14 -2 27 36 50 70 68 72 80 92 84 79 66 60 50 30 6 -21 -33 -26 -18 -10
165 149 120 104 100 116 81 120 138 205 212 212 185 149 136 29 4 1 55 58 47 22 33 43 41 50 52 70 73 63 76 86 124 149 140 117 104 91 83 76 83 60 1 47
180 173 140 99 74 69 157 135 111 118 165 122 129 129 44 48 16 12 53 77 56 26 14 36 56 55 53 68 73 76 100 145 179 199 202 122 86 68 45 77 52 56 43 30
-82 134 142 120 149 262 121 140 128 126 186 133 124 149 168 80 33 35 75 102 84 23 30 22 15 27 44 53 60 80 97 140 205 225 230 178 127 121 24 -108 -55 21 47 38
19 43 102 156 131 57 102 159 101 148 128 179 107 85 119 85 17 14 16 2 72 57 30 38 29 -0 19 30 35 52 102 130 156 208 231 202 159 89 -18 -10 -15 -9 43 41
187 27 1 45 53 36 39 29 128 143 130 135 100 87 98 60 39 -32 25 44 62 58 68 51 54 34 21 38 52 56 54 110 142 165 170 151 121 103 37 21 6 20 36 37
105 74 4 -47 86 120 113 38 63 119 153 148 109 75 64 83 52 11 5 10 24 76 61 61 53 83 98 100 138 110 92 117 137 138 140 129 104 71 53 47 81 73 64 101
84 100 41 -69 -37 92 182 162 86 78 91 106 95 67 57 82 52 76 60 35 46 105 56 75 72 36 65 99 143 176 146 137 122 107 117 139 152 167 213 197 163 172 180 177
82 62 -30 -99 -13 -38 168 128 152 113 96 129 108 32 27 41 105 54 21 20 41 50 42 72 81 51 118 139 163 191 214 183 167 200 228 261 247 251 208 197 211 227 229 245
58 16 -15 -13 -62 -90 58 3 63 35 138 42 44 18 18 67 127 49 28 144 147 79 69 62 87 88 54 121 211 180 225 227 231 244 228 245 230 239 251 249 254 259 292 327
73 59 -18 -71 -18 -0 -16 -27 -5 95 47 5 27 15 25 55 69 83 1 150 139 -26 76 77 51 81 85 164 225 259 248 231 220 243 281 289 255 252 258 277 284 305 328 382
18 28 43 32 2 24 35 41 45 20 -0 12 7 20 58 126 179 -58 -64 6 120 76 8 51 92 115 106 161 237 294 303 276 287 314 346 316 276 257 261 279 279 299 322 357
8 36 35 30 27 49 33 7 1 -4 3 24 68 15 23 54 203 109 45 -101 -32 39 54 64 80 170 243 247 247 357 349 308 322 356 343 307 282 257 243 262 272 291 298 316
38 17 33 32 108 106 120 68 31 42 82 68 10 -7 10 4 -19 26 103 -36 -118 -34 -18 106 222 220 318 354 304 229 202 235 261 273 259 263 294 305 306 295 277 277 272 297
34 12 -0 -13 -13 -5 17 -12 16 107 18 16 53 13 28 -14 59 77 64 118 42 9 35 64 159 312 330 303 297 258 249 237 298 288 271 308 329 352 367 386 337 330 302 245
69 58 54 42 58 36 10 47 29 7 32 25 34 57 111 65 98 112 67 62 93 149 72 92 151 214 228 231 215 165 126 132 182 272 271 285 330 328 347 409 485 493 365 324

GFSCGP_con_3kmhel_084.txt.gz
Helicity
101 145 127 120 76 41 94 87 29 19 125 67 52 47 -13 23 71 13 63 75 46 66 116 127 136 111 107 100 125 107 34 36 44 87 129 150 194 243 240 244 198 265 222 -31
110 89 79 31 47 49 54 44 10 34 82 43 26 -45 -22 38 51 42 44 65 51 86 129 147 148 123 115 102 131 98 23 25 60 63 125 115 208 180 263 336 266 166 39 -28
57 71 2 56 59 46 51 40 18 48 67 19 -10 -36 4 42 78 95 53 23 42 80 108 152 143 113 109 87 120 94 44 30 18 91 175 151 205 285 191 75 -9 -95 -155 -69
101 69 47 6 14 40 43 20 24 46 54 58 91 42 77 83 80 95 75 41 23 58 76 106 125 116 110 68 98 86 57 45 67 74 117 178 197 169 104 82 2 -53 -76 -23
102 52 30 37 20 6 29 51 38 47 52 48 61 78 -12 84 28 27 45 44 15 27 54 82 116 105 83 68 73 101 104 77 67 92 97 113 180 98 118 119 146 85 93 0
179 158 109 28 36 37 68 37 52 52 56 64 28 123 21 52 39 17 38 27 14 15 41 56 112 110 75 71 57 87 125 131 101 59 66 53 81 93 123 122 150 186 75 -84
58 68 154 177 120 51 47 75 80 53 103 68 84 83 49 94 26 15 9 26 50 20 32 58 115 112 85 89 69 73 95 115 121 90 17 -4 14 82 58 123 204 109 -39 -150
53 61 38 92 70 58 40 27 94 60 57 40 107 48 29 16 -6 -4 -14 16 31 44 34 65 83 100 72 78 84 75 90 77 106 96 81 50 51 41 22 -17 -8 -12 -38 -157
63 61 75 20 7 38 49 63 40 71 93 56 53 35 31 4 19 20 22 25 22 30 42 49 73 78 62 54 84 88 84 68 99 113 91 81 69 56 34 32 55 -20 -55 -82
79 57 23 55 60 21 97 57 101 100 83 67 34 45 83 51 19 16 24 38 18 8 32 41 56 74 61 35 52 67 71 60 63 66 56 46 67 52 27 22 34 22 -6 -49
85 69 55 72 57 19 85 109 125 161 110 95 68 68 52 2 19 55 84 47 26 6 34 69 39 50 50 38 46 56 50 52 49 42 33 23 26 46 51 44 33 31 3 -16
100 87 70 59 118 109 88 54 60 105 104 63 69 73 13 -8 -1 11 30 52 48 41 38 45 67 96 87 61 52 58 66 55 51 52 49 41 32 34 42 59 82 93 83 70
129 103 89 48 65 43 80 75 74 61 105 92 111 124 -12 36 66 34 16 67 74 68 30 35 39 63 97 79 60 67 74 76 67 68 80 68 45 40 32 27 41 41 62 73
82 96 117 145 213 263 225 201 122 56 84 66 52 66 57 71 67 26 39 39 77 75 40 9 23 47 74 86 81 81 71 81 85 89 92 80 72 52 39 21 3 18 40 -6
99 87 88 73 83 123 122 129 141 99 63 86 53 37 25 43 48 45 31 25 45 90 76 28 3 19 26 37 55 74 89 101 122 95 104 107 85 67 66 58 80 104 99 46
158 103 76 15 36 47 99 45 66 63 80 65 46 44 45 68 53 68 41 9 40 26 67 71 19 -4 6 35 22 31 57 80 91 72 75 73 71 64 43 48 93 70 40 26
143 131 55 48 87 87 24 60 100 43 43 65 72 53 39 43 56 42 35 46 3 69 62 42 73 21 -8 15 33 16 32 48 32 24 28 46 42 36 46 45 52 60 31 40
78 65 70 32 62 -34 78 37 119 100 67 53 51 76 57 42 36 28 130 90 28 59 24 68 24 62 3 7 32 48 45 56 46 45 41 61 69 60 74 90 83 120 86 72
29 42 89 60 37 32 -1 -55 237 232 124 53 54 45 36 57 81 62 89 95 74 75 159 67 42 46 72 38 47 75 94 90 83 87 87 97 113 130 173 199 222 207 194 199
18 22 63 97 69 18 14 -154 39 305 144 203 181 170 167 116 97 82 194 199 138 131 159 180 60 100 0 56 71 68 97 121 141 151 173 201 231 240 236 252 290 316 336 335
68 63 20 6 68 52 33 16 -26 108 63 155 202 136 101 139 113 72 80 120 129 83 21 73 118 63 113 139 97 118 106 144 257 281 255 269 304 330 356 387 363 363 379 393
87 16 32 28 36 53 113 26 22 7 120 30 17 51 42 48 27 35 29 53 82 99 44 43 56 72 134 161 196 190 254 283 332 337 444 446 453 440 411 411 370 351 365 398
20 21 72 26 24 61 147 117 38 29 13 32 19 3 32 41 3 35 27 26 67 -26 6 59 83 69 140 161 205 259 310 401 466 488 478 497 516 456 387 387 350 355 345 370
38 30 31 13 1 75 64 51 37 52 77 91 42 34 23 3 4 25 53 32 20 -6 -84 27 128 43 171 173 247 313 359 428 487 510 484 470 499 501 470 397 350 337 342 334
72 32 21 9 16 40 34 12 5 51 45 55 51 19 30 15 27 50 66 79 84 47 163 17 82 79 127 232 250 303 329 334 403 460 439 455 475 446 467 533 440 413 396 296
52 48 29 44 41 17 25 31 21 -12 24 44 14 29 101 99 86 73 71 77 134 140 135 165 146 149 172 241 338 306 247 212 232 346 360 339 358 414 422 463 636 602 479 474

GFSCGP_con_3kmhel_087.txt.gz
Helicity
104 150 147 127 100 60 41 44 40 34 25 98 73 39 24 14 31 21 62 35 45 94 99 148 189 138 144 164 154 177 214 121 54 83 194 217 294 273 193 119 13 187 217 41
115 111 58 63 78 80 50 66 100 44 40 51 50 47 19 11 13 23 20 23 51 69 96 156 194 145 131 147 122 188 187 93 68 98 168 224 176 182 200 101 89 -3 -69 -37
55 68 17 59 84 86 35 34 53 39 33 42 33 41 -12 -9 29 16 1 26 -2 71 113 132 185 137 128 110 116 155 146 83 105 144 187 170 271 232 178 107 175 70 69 176
57 45 61 32 -4 29 65 25 25 57 81 99 19 34 40 12 25 41 25 29 2 32 87 125 146 123 135 96 91 116 125 86 86 146 184 204 232 214 159 92 218 271 321 139
54 40 59 55 38 38 48 25 39 60 64 70 51 59 1 -16 2 23 23 61 42 19 66 117 132 105 107 123 99 99 112 115 83 122 144 219 176 198 183 156 274 191 -96 -15
60 58 142 47 63 67 17 32 27 60 63 60 45 59 36 10 18 39 4 23 44 39 49 89 124 115 111 130 100 109 108 127 129 118 139 137 160 200 202 168 149 78 -85 -67
67 73 81 88 74 67 58 51 50 49 65 53 28 46 50 22 86 24 42 13 23 40 47 90 157 127 102 147 109 109 112 127 145 139 93 125 129 185 195 176 86 5 -53 -96
66 62 19 68 62 81 50 44 88 61 59 36 0 89 32 5 11 18 26 18 35 54 61 94 129 115 71 137 115 97 102 119 139 145 92 72 92 122 142 174 115 50 29 8
109 50 59 39 25 77 69 46 22 79 54 80 76 16 13 0 15 17 36 20 24 35 64 77 94 113 66 110 110 111 78 87 100 112 105 95 93 81 93 129 125 147 118 79
97 97 27 5 39 10 -1 21 58 71 76 92 36 -1 -16 70 21 -2 8 11 24 24 47 79 70 102 68 78 87 93 81 58 84 67 81 77 88 88 83 66 95 142 136 150
85 64 72 59 34 34 67 49 61 78 62 76 94 39 72 71 11 19 92 49 39 30 18 98 63 100 84 74 87 87 79 75 91 88 77 57 51 63 62 73 71 69 66 86
81 91 92 58 23 24 23 25 51 70 86 36 31 57 2 40 30 84 30 24 49 45 43 77 73 91 85 90 102 105 71 86 59 108 92 73 70 55 41 45 57 56 38 29
179 72 65 34 55 49 57 55 47 35 48 77 105 45 21 28 17 23 12 39 19 47 61 83 79 93 73 98 98 102 93 77 64 82 95 102 90 88 88 66 86 89 76 76
116 80 84 86 156 182 105 72 106 104 79 67 58 42 51 18 45 60 12 17 33 26 43 39 37 62 79 96 119 114 103 74 83 83 93 100 96 88 76 66 66 79 79 61
66 55 58 35 70 116 109 89 59 66 75 65 51 22 14 20 26 2 17 34 31 38 27 37 36 37 51 77 114 131 121 111 97 82 96 112 110 79 66 74 100 105 116 84
123 51 63 37 23 50 68 81 67 69 68 58 40 53 20 32 27 36 31 27 37 43 50 74 22 36 32 32 61 106 150 156 122 130 119 111 103 79 97 123 113 134 149 131
75 73 70 26 5 71 52 34 43 72 108 101 69 37 18 29 37 40 58 54 28 60 120 89 47 30 22 22 37 40 81 151 140 103 117 110 104 94 88 95 115 154 190 182
47 22 57 83 91 57 18 145 100 42 3 56 43 8 21 13 38 15 10 50 125 103 88 79 86 22 24 33 28 36 40 44 95 92 72 62 78 79 80 94 116 153 175 192
18 10 83 90 55 50 52 29 49 -7 57 179 166 6 32 14 27 28 42 120 107 83 65 80 110 158 104 14 33 22 32 41 50 61 55 62 84 89 100 129 157 167 359 594
4 22 45 65 35 48 96 90 27 58 36 85 470 317 133 120 101 131 187 192 169 108 103 89 70 113 175 101 91 48 42 44 71 70 65 84 113 119 131 197 502 634 612 587
40 58 33 16 35 59 36 75 12 7 72 243 385 348 400 161 168 104 132 106 113 104 101 100 79 116 192 250 101 77 68 40 71 76 99 182 226 291 483 517 481 538 580 600
36 52 52 8 36 21 58 18 51 -10 -41 -23 136 282 425 319 106 155 136 119 59 50 70 36 8 59 183 237 172 138 173 344 494 645 599 661 663 575 460 458 518 517 533 565
15 36 38 33 25 67 122 107 103 73 75 20 23 21 0 108 41 34 50 54 36 42 69 92 3 47 185 206 268 314 401 445 484 512 468 531 551 591 565 545 507 494 513 551
42 81 16 13 40 78 129 74 123 43 33 37 49 46 33 53 36 41 72 67 78 58 36 49 71 46 174 200 179 191 264 366 526 665 645 665 718 752 730 551 532 571 445 426
60 57 10 0 48 -59 47 88 28 33 27 22 77 74 50 63 95 102 95 73 75 96 97 90 56 103 157 176 213 202 221 288 402 406 433 507 609 609 620 713 689 543 521 386
76 119 89 83 98 95 62 39 61 45 58 39 40 96 58 92 92 93 107 105 107 107 113 140 229 268 203 288 281 253 237 246 318 397 448 484 505 453 471 480 577 605 553 606

GFSCGP_con_3kmhel_090.txt.gz
Helicity
66 121 164 109 115 69 105 134 133 117 14 -20 30 60 77 25 32 28 114 93 71 39 118 205 249 336 234 401 318 251 195 242 240 229 157 158 211 319 416 501 449 620 980 734
72 142 58 53 51 49 59 91 86 87 93 45 59 31 47 48 26 28 24 44 105 69 115 219 373 334 230 364 267 227 176 219 203 160 128 164 186 204 318 518 796 779 744 621
60 61 25 32 35 34 61 61 92 60 141 61 97 93 56 31 4 8 11 24 4 86 162 287 403 310 200 355 266 203 154 204 214 203 221 295 273 214 163 141 218 103 164 243
48 18 11 29 53 9 53 59 45 103 176 173 84 126 48 -1 -0 28 142 82 37 17 111 271 335 309 207 266 261 182 161 211 220 248 210 206 144 161 131 169 134 205 233 306
46 53 98 79 86 35 15 46 37 30 92 140 148 143 79 26 30 13 21 98 66 83 -1 228 256 302 188 198 235 178 154 217 258 198 217 205 202 221 169 146 98 85 96 126
55 69 72 34 41 36 57 83 67 12 47 111 89 106 77 28 -4 -6 29 62 114 94 38 156 238 296 197 175 214 194 160 218 281 268 199 207 219 229 180 121 75 134 118 20
50 56 107 75 88 121 81 101 70 90 118 97 30 51 69 -0 26 31 64 52 56 105 111 140 333 339 224 275 257 174 165 203 252 280 252 194 184 249 212 174 148 150 138 25
85 65 55 133 85 41 125 82 158 99 182 140 69 74 -4 -7 22 57 40 64 25 71 120 156 298 339 230 274 247 151 156 191 232 250 229 187 174 219 186 187 177 188 91 -9
75 11 -6 25 49 59 54 81 71 66 -5 -38 102 148 161 13 38 52 42 43 92 70 68 95 192 336 247 249 231 193 145 177 191 193 171 192 175 150 163 181 172 210 129 6
94 136 28 21 41 8 89 20 13 67 95 146 55 12 50 -33 31 25 41 47 36 29 79 153 185 352 287 232 216 209 124 153 151 160 147 149 186 178 126 113 156 135 62 -67
112 65 75 34 30 15 61 35 66 71 27 58 87 49 59 162 205 22 51 104 104 95 35 145 172 349 275 220 225 202 148 135 178 147 127 131 147 178 163 173 119 95 53 -14
107 95 79 60 -15 -31 2 23 37 97 93 50 25 38 -20 1 103 48 69 42 42 34 48 56 178 291 250 239 222 192 158 139 153 161 118 104 97 110 123 125 150 127 79 52
155 73 65 59 57 72 87 40 23 46 45 85 82 50 20 35 52 56 119 29 21 10 54 52 131 214 280 256 193 192 175 144 139 164 151 120 107 103 115 109 111 113 110 90
71 63 84 69 70 150 158 151 60 42 52 55 61 60 64 44 169 231 140 35 56 17 -4 53 82 111 240 231 161 164 178 127 171 207 159 152 106 101 109 92 87 92 97 129
5 34 37 12 59 50 137 167 173 118 91 88 75 96 77 42 4 -57 11 110 74 18 16 14 31 55 131 175 174 158 189 171 160 129 210 176 129 123 108 75 75 88 107 102
70 43 48 45 52 71 44 104 111 109 120 68 40 55 53 52 76 73 40 49 29 4 25 31 62 39 64 119 181 192 207 205 151 135 140 180 173 138 136 123 129 138 146 162
73 53 55 37 45 92 32 68 42 58 77 33 63 82 107 73 51 39 21 53 113 95 74 128 184 113 49 68 124 195 222 223 162 136 141 163 178 184 186 151 163 171 182 198
36 30 50 44 88 37 10 8 82 98 131 90 41 45 52 44 105 -32 58 174 36 151 216 231 199 243 169 106 70 118 162 216 232 184 174 174 194 199 179 193 177 186 211 230
26 31 64 59 36 26 67 66 25 36 85 165 135 131 122 115 -33 9 168 150 149 154 174 193 107 83 85 135 180 77 137 144 189 199 193 179 171 175 162 149 175 188 176 194
37 33 49 71 41 42 41 108 173 99 57 116 100 112 188 283 80 279 235 208 215 201 181 150 106 80 102 120 145 241 114 113 112 157 168 139 132 139 130 110 114 316 503 629
16 78 31 21 29 32 9 -87 99 49 78 70 51 36 270 396 232 160 348 91 203 123 166 126 104 107 129 128 180 167 252 266 173 162 234 259 256 330 430 488 556 578 624 723
91 38 49 21 34 13 93 -28 36 85 56 54 30 19 238 298 288 185 67 178 170 185 161 146 107 107 134 135 145 234 363 522 546 753 585 567 578 542 522 540 599 656 706 775
35 36 73 90 41 80 80 152 178 91 49 57 81 65 5 181 350 229 110 93 79 123 127 103 82 97 167 158 156 181 259 302 442 766 751 595 524 546 601 596 642 641 608 687
81 29 82 45 59 41 32 31 99 102 84 60 55 67 19 72 77 86 113 56 51 65 72 61 56 56 91 153 164 167 218 266 347 401 599 715 718 767 682 588 484 621 624 622
12 93 15 40 137 58 119 98 84 140 60 18 54 51 22 100 49 50 38 57 53 62 60 58 52 29 25 23 97 137 194 217 304 454 482 566 636 711 746 830 838 769 812 708
81 124 95 73 115 136 66 58 56 40 43 28 45 80 95 85 63 44 51 59 72 81 77 95 86 41 26 3 23 -4 121 225 244 352 489 588 682 791 836 882 970 897 702 667

GFSCGP_con_3kmhel_093.txt.gz
Helicity
128 185 240 178 172 170 147 123 108 123 89 93 39 49 55 123 173 115 49 156 157 150 215 315 403 553 574 499 447 343 285 241 226 229 214 186 140 162 185 162 178 206 254 386
111 120 117 87 87 92 94 99 98 94 83 80 71 -4 2 102 49 67 43 80 132 124 281 446 575 673 620 519 437 355 274 216 225 196 119 82 111 166 230 271 315 352 393 552
97 154 71 81 55 61 76 100 116 130 96 127 84 -16 16 107 16 58 66 46 83 153 350 551 586 629 576 501 435 348 245 211 232 205 173 175 183 226 288 370 427 550 553 727
44 54 29 82 134 71 115 74 44 62 183 132 106 -21 28 115 156 15 7 36 -22 56 376 564 595 589 474 420 355 312 236 219 252 244 201 185 135 122 115 226 395 658 895 938
87 110 124 120 121 40 128 80 50 138 163 91 67 122 -89 41 171 35 8 62 104 49 322 428 456 491 408 382 338 297 240 223 243 229 208 174 145 110 67 114 123 145 285 311
15 40 86 100 68 91 109 81 83 191 126 133 37 94 -115 61 91 72 -25 8 92 140 350 351 371 445 404 318 311 304 238 213 244 230 201 183 137 86 61 108 125 140 170 235
52 17 9 62 109 138 175 154 264 197 202 125 26 18 -12 16 36 31 -10 24 152 162 349 415 456 436 493 333 296 308 243 216 250 245 234 187 119 100 119 145 99 99 95 137
163 187 78 72 140 199 128 158 286 202 120 49 39 31 9 36 19 133 5 74 133 200 324 393 411 443 432 328 296 297 249 232 238 249 212 202 149 102 130 125 127 100 132 133
149 119 60 56 73 209 150 167 91 84 66 6 -88 2 -9 126 13 52 23 96 118 165 284 324 342 385 387 339 302 307 259 232 229 233 217 204 194 141 128 86 95 79 112 117
113 154 93 98 90 15 106 124 141 134 49 16 -53 13 184 306 190 87 93 108 164 133 221 245 275 399 432 369 293 279 262 242 196 216 208 214 202 166 135 112 104 77 93 117
151 100 99 115 52 32 45 64 82 120 127 91 -65 -108 28 -60 65 185 259 184 164 153 119 228 303 393 460 407 303 278 250 219 198 214 200 199 194 179 149 130 119 89 75 100
206 109 62 94 -15 75 37 17 33 78 83 53 49 44 26 15 14 216 366 479 108 113 83 75 287 400 437 446 326 271 258 232 195 161 203 178 187 200 195 173 133 108 62 45
191 160 104 119 90 150 66 51 18 64 135 27 10 -48 40 33 -104 61 73 486 205 41 44 109 260 355 375 390 334 278 245 234 178 146 154 167 181 157 172 149 127 116 95 61
46 63 100 116 133 49 70 185 107 117 11 47 -23 -11 39 2 -21 -137 65 80 68 83 32 63 168 267 318 332 342 268 220 218 226 186 184 161 158 204 162 119 125 117 101 107
24 45 50 31 36 72 131 112 199 74 12 -16 -18 38 -1 -11 -8 -9 -12 53 93 56 51 8 65 150 232 281 280 259 207 204 201 203 183 180 134 106 128 149 120 124 119 102
72 59 82 42 83 89 15 66 89 108 131 122 67 68 -8 -6 -23 -6 45 64 153 -3 39 77 119 115 212 226 259 264 244 206 206 232 207 170 167 145 148 142 171 182 153 139
62 38 31 44 91 73 14 15 43 76 59 113 99 98 6 -84 -3 7 90 113 65 79 216 314 281 177 227 239 142 270 300 297 241 210 255 223 200 175 155 173 178 183 202 187
42 44 38 26 43 20 47 100 142 106 165 199 149 137 98 -31 -14 -50 -26 52 47 105 291 319 306 339 298 193 212 162 194 369 354 298 228 240 241 211 184 178 159 162 176 182
83 54 59 60 37 38 28 83 133 149 109 93 100 97 60 40 -29 -42 223 459 187 275 315 277 259 245 227 239 209 236 188 204 339 323 278 228 258 278 230 197 181 189 191 182
98 77 78 48 46 53 73 103 118 125 111 98 17 -10 28 69 11 122 349 388 336 305 274 184 125 128 168 244 205 91 191 313 218 191 329 303 295 281 286 268 256 319 373 474
76 91 46 18 53 54 29 -45 -115 9 115 80 86 22 -20 26 215 264 232 186 130 156 210 177 176 78 121 177 151 132 158 191 288 369 309 372 292 248 304 437 468 518 570 622
49 58 59 40 48 23 106 43 -22 11 52 65 52 58 5 69 95 169 220 128 144 193 161 175 103 119 139 146 139 168 182 214 195 336 687 715 604 475 476 559 567 542 577 619
39 79 46 42 46 92 118 92 152 106 59 64 50 53 61 47 60 34 155 165 117 117 71 37 20 -8 52 78 85 120 161 190 238 320 471 736 754 657 570 602 661 688 627 649
44 62 32 58 103 88 146 57 -17 56 59 52 37 50 49 27 16 14 56 90 124 98 63 27 29 44 55 65 58 79 70 98 220 302 438 486 597 743 807 751 734 755 748 837
55 61 102 133 215 254 154 109 90 57 77 31 8 14 22 28 26 8 24 51 60 76 95 85 82 52 34 29 21 46 15 15 108 208 306 380 463 614 713 776 782 910 918 818
30 -11 180 212 276 142 94 59 58 57 61 21 22 12 7 0 33 44 47 57 81 100 126 112 106 76 56 40 38 -3 23 12 -98 14 102 143 316 458 612 907 1084 984 848 976

GFSCGP_con_3kmhel_096.txt.gz
Helicity
166 202 258 240 161 180 169 137 109 143 108 93 94 55 96 29 17 -27 -23 56 68 103 166 407 516 524 518 478 459 369 343 293 271 223 227 199 158 120 134 90 130 119 142 219
166 117 167 130 130 119 118 105 59 61 65 83 65 42 11 -27 -13 -42 -4 0 31 139 275 424 538 538 517 525 421 376 330 296 246 189 207 142 108 114 94 102 104 112 186 309
94 133 79 124 86 93 91 102 98 84 67 123 175 78 67 28 -24 -112 -35 17 120 115 273 420 523 541 555 534 424 389 325 298 255 205 247 145 134 116 115 114 103 121 133 209
45 78 48 103 124 154 105 80 89 113 143 157 136 82 85 69 35 35 45 -18 52 126 164 409 579 587 527 512 397 357 331 301 246 238 235 154 112 134 128 147 199 231 150 175
128 80 52 68 74 109 136 113 122 115 180 188 233 222 81 36 -1 88 44 33 28 46 200 397 455 573 559 510 392 342 325 272 231 221 205 142 114 108 134 183 241 284 308 305
76 85 90 102 113 78 75 104 117 137 191 267 245 219 55 54 40 69 102 0 -8 -41 106 288 513 639 590 452 363 344 305 247 218 207 180 142 128 115 134 158 172 217 418 600
27 -50 -14 43 39 36 71 171 245 256 319 267 159 150 128 26 43 83 113 6 -6 -30 71 340 497 570 493 408 389 347 271 239 202 184 167 139 127 106 86 104 84 138 253 370
110 89 59 111 111 114 89 204 262 274 242 188 142 168 95 -16 -33 137 134 60 24 29 101 339 405 547 460 401 360 320 251 232 204 168 147 140 105 64 40 34 46 78 71 106
105 91 80 64 59 205 121 183 152 168 189 177 156 113 -7 34 -4 144 238 112 -68 55 218 297 342 450 393 362 325 298 236 212 195 162 137 133 92 92 86 42 62 100 101 148
96 99 41 55 83 110 168 134 170 190 175 113 115 9 15 -28 47 218 199 176 134 45 200 252 305 317 305 304 321 237 206 217 186 175 153 133 99 49 94 59 51 81 84 120
125 119 58 99 106 116 108 131 126 146 181 136 7 -15 95 -31 123 279 175 333 278 117 -13 175 224 212 277 332 314 231 199 218 188 188 185 134 131 101 50 108 71 94 99 87
177 150 85 92 88 145 77 57 122 199 106 43 34 13 -76 -74 -121 27 125 353 494 434 141 100 132 223 290 304 296 259 212 210 207 203 202 150 133 147 143 69 110 101 107 94
242 160 116 35 101 60 119 167 156 109 118 1 -7 7 10 -83 -42 -113 68 314 423 339 212 42 168 220 280 278 272 261 210 196 193 228 207 166 140 139 145 143 97 112 109 101
109 212 144 145 132 117 141 209 283 103 96 35 -10 -8 -24 -168 -179 -104 -21 402 393 389 316 30 128 153 250 266 262 266 227 211 206 204 221 189 172 166 109 97 115 132 116 96
147 117 59 70 90 108 121 67 87 47 56 -21 -5 50 3 15 -5 11 -28 37 119 192 98 60 122 160 194 209 201 222 229 227 210 191 190 199 172 173 169 122 93 82 97 103
65 56 63 67 60 56 24 50 69 35 21 28 16 52 88 47 9 4 40 -15 -7 -1 55 117 94 109 122 148 191 212 232 212 215 188 184 189 183 170 189 163 152 127 93 57
-2 26 48 72 95 58 15 36 66 66 109 51 35 75 29 46 24 -7 58 99 89 110 157 246 366 354 292 189 92 122 149 145 160 189 201 190 194 185 183 182 161 154 150 126
10 26 41 59 77 16 66 108 67 128 147 139 181 149 76 52 -58 53 160 76 191 217 169 247 350 279 278 323 310 155 96 185 232 196 198 208 204 179 175 168 159 143 156 162
68 94 52 20 35 82 83 135 108 68 105 80 74 90 26 82 -31 104 144 118 199 220 214 170 163 241 287 278 268 213 251 209 139 159 183 216 233 275 232 181 183 191 182 200
78 101 95 24 29 55 79 115 138 42 35 127 68 62 23 29 54 102 183 188 217 213 172 209 178 131 166 114 91 126 215 239 296 266 205 191 202 237 306 260 216 210 204 233
83 116 64 75 65 64 21 45 23 55 35 125 125 91 71 -67 -36 41 190 241 170 273 205 211 169 92 132 141 22 47 121 195 221 218 231 316 352 299 248 254 292 382 445 473
70 75 77 70 44 51 53 14 38 11 -18 -3 62 48 26 27 17 -36 155 178 221 295 243 208 171 191 160 175 130 75 88 130 153 174 210 332 544 532 491 519 533 542 568 640
33 57 41 34 31 74 142 97 47 38 33 32 30 41 13 34 21 -23 73 86 218 299 255 151 124 99 191 197 165 158 139 114 116 186 212 232 347 569 696 637 587 595 618 633
11 19 70 31 52 126 142 190 142 68 34 49 41 33 20 12 20 9 33 41 73 99 118 132 121 130 108 65 58 81 102 99 153 152 147 175 268 362 493 585 653 710 637 721
47 44 48 74 261 200 190 128 94 97 66 5 26 16 15 26 31 24 33 64 61 41 72 91 110 116 64 18 22 8 -2 10 69 129 173 135 127 176 305 494 515 577 712 646
37 39 11 45 242 202 158 118 99 88 55 58 34 31 48 37 41 43 66 83 93 91 69 89 109 91 76 65 67 30 8 12 27 66 100 164 193 193 150 212 262 388 374 496

GFSCGP_con_3kmhel_099.txt.gz
Helicity
175 193 210 211 188 187 152 165 149 159 118 99 62 35 35 47 41 14 -2 -16 -25 7 -25 -26 79 354 456 474 508 523 423 328 308 272 288 263 259 257 223 155 120 113 165 203
211 164 164 152 153 172 168 156 148 98 79 85 62 2 25 41 77 91 -32 -45 -39 -3 2 34 138 312 380 482 514 519 380 314 303 266 261 267 249 214 184 116 72 94 152 253
147 146 83 172 173 147 137 130 153 91 114 112 71 -47 -6 31 79 55 -12 -39 -20 -15 7 113 180 279 396 445 518 511 359 287 293 283 327 283 258 192 126 67 60 75 108 299
78 87 96 98 102 143 83 95 97 147 153 95 88 -30 -32 45 58 62 11 13 75 -84 -3 106 238 282 362 407 512 475 327 281 286 304 276 227 215 240 145 48 49 71 117 153
92 82 57 90 144 114 98 107 167 216 220 201 169 168 66 63 66 56 66 61 123 84 38 82 216 272 376 485 545 484 338 278 298 296 232 237 247 240 166 97 63 72 75 99
111 144 98 80 140 153 140 138 165 185 197 152 114 164 -8 43 23 58 51 49 70 131 71 56 169 282 412 427 489 442 344 281 275 243 196 224 249 261 195 105 101 111 137 155
101 67 96 91 83 88 176 229 191 198 262 179 80 118 187 81 8 19 19 17 95 150 126 92 145 255 412 492 411 391 313 296 249 211 183 201 233 226 152 92 104 123 184 228
21 68 55 151 133 140 107 174 214 183 175 127 147 187 149 80 108 75 77 109 101 187 123 114 113 313 398 468 392 358 284 299 225 195 165 180 207 163 109 86 123 125 158 247
29 35 71 78 111 166 114 127 129 121 75 122 149 177 161 180 134 100 142 179 204 394 257 109 143 307 392 369 376 347 290 269 194 156 165 166 186 160 133 79 65 107 158 188
87 69 66 79 70 77 108 110 195 228 164 139 179 153 121 75 19 17 19 294 437 503 397 121 170 277 312 318 311 309 221 237 171 131 148 148 151 152 140 108 39 84 89 94
118 109 68 63 86 51 135 108 124 158 189 167 113 104 57 42 -65 -87 -51 280 524 494 385 254 164 106 125 199 276 281 224 200 150 122 144 142 137 163 186 133 93 71 104 101
154 122 88 61 65 29 80 153 161 195 220 196 146 78 61 6 -75 -159 -163 148 449 390 401 294 167 104 91 42 188 233 231 190 126 98 132 141 134 166 163 144 111 129 112 110
136 133 61 78 97 111 129 230 230 103 82 89 113 71 71 32 -28 -91 -96 19 279 565 374 234 69 157 91 65 84 199 220 180 137 94 120 146 145 158 156 142 138 103 113 128
152 102 147 92 144 173 182 190 170 129 153 150 116 -42 -31 -10 -7 -38 -160 -157 121 366 415 381 149 109 131 157 125 129 202 199 159 122 110 156 163 154 134 159 145 126 103 126
136 39 240 149 148 85 69 66 90 103 121 79 39 11 37 42 51 2 -72 -99 54 243 482 270 222 188 136 119 129 101 146 178 159 122 122 120 166 164 133 133 167 159 134 106
49 78 55 144 138 100 74 77 79 28 52 53 28 59 75 47 26 50 29 -14 -54 241 269 164 214 290 178 100 121 134 130 146 158 147 138 121 136 163 158 135 128 150 159 145
88 73 34 33 83 73 27 51 30 127 141 37 11 36 63 50 82 80 62 64 72 60 84 94 110 177 245 220 184 96 133 153 142 143 165 154 150 167 165 149 135 134 160 150
20 3 17 49 65 59 65 81 117 128 127 188 141 99 50 4 32 108 94 97 99 107 149 80 64 121 192 178 130 93 87 93 106 98 137 138 158 164 160 146 157 152 142 155
25 31 37 25 41 32 53 139 125 100 90 140 107 115 107 80 -16 108 162 141 144 183 178 206 149 141 168 231 186 118 165 207 146 140 114 107 153 172 171 187 194 180 180 168
83 95 22 32 44 14 85 116 102 64 71 9 37 53 45 97 81 18 82 67 118 164 198 239 227 209 192 225 202 165 177 182 208 178 171 186 192 96 178 174 213 233 229 191
31 80 16 33 36 40 56 61 63 33 18 15 65 87 69 6 20 10 50 31 119 116 203 218 192 235 264 222 171 167 183 205 177 131 132 155 199 241 254 167 218 200 201 295
14 35 63 77 46 30 78 52 61 25 36 48 21 52 52 37 23 21 34 50 129 141 182 275 203 165 161 130 109 129 182 204 236 247 236 223 199 214 257 353 442 504 500 519
16 61 57 46 56 79 106 119 96 45 52 47 47 42 30 32 17 22 20 27 109 158 144 140 140 166 181 170 144 128 166 173 196 173 207 230 266 273 277 311 405 484 505 551
5 58 74 57 62 127 144 156 133 84 52 48 43 58 36 26 29 19 34 24 27 83 93 72 93 168 201 147 93 74 76 74 85 118 193 233 267 274 311 282 276 335 457 607
-24 46 40 142 108 147 190 121 96 77 52 44 30 42 54 26 29 27 32 60 54 60 98 98 74 73 99 83 60 39 35 4 11 32 42 78 156 224 281 379 368 277 187 150
9 25 19 -8 58 115 136 129 94 80 49 42 31 35 45 47 40 34 38 50 81 85 90 108 111 98 87 62 61 71 69 27 7 34 47 64 66 105 161 194 302 482 416 412

GFSCGP_con_3kmhel_102.txt.gz
Helicity
225 247 221 271 238 218 201 143 123 127 98 116 83 35 51 72 46 45 37 47 56 29 9 9 6 -5 107 258 339 364 405 440 405 340 336 288 289 234 223 241 242 225 170 182
219 111 153 137 147 153 152 127 105 83 71 83 68 3 8 55 99 74 68 58 34 17 -8 -61 -45 -22 112 178 251 285 356 448 410 341 324 304 289 243 233 255 213 207 156 176
188 159 70 151 180 153 171 143 164 93 107 102 57 -59 -27 35 97 78 76 65 45 25 25 14 10 41 124 161 199 269 377 476 413 353 347 314 321 246 257 245 208 194 108 120
93 82 112 74 109 165 132 119 108 118 110 85 102 -71 -28 5 44 72 71 83 89 61 73 55 16 87 135 188 164 242 333 453 404 376 316 282 266 274 229 208 182 183 83 84
101 58 62 87 128 86 98 84 95 138 158 132 138 94 -12 117 62 72 54 64 49 34 46 10 39 121 151 201 194 283 371 365 373 312 265 263 223 222 206 220 161 134 114 70
99 131 74 49 71 120 87 139 141 179 184 135 107 118 -62 -33 -5 81 4 6 32 29 62 70 99 115 150 210 245 270 393 360 297 246 240 256 244 255 224 221 201 160 100 112
126 100 132 114 99 121 134 181 180 176 212 133 35 75 93 58 66 52 54 48 16 15 45 79 121 113 192 198 263 292 354 373 288 243 240 232 234 231 187 168 167 138 124 131
41 33 75 106 132 130 118 131 163 132 137 93 109 96 45 69 90 110 42 9 2 51 124 131 203 124 209 197 270 290 357 334 309 257 208 197 203 191 157 136 113 75 93 132
119 114 99 83 115 127 168 198 133 120 99 82 64 94 76 94 132 71 17 -10 28 63 220 299 334 193 152 215 253 319 325 280 268 237 173 186 177 175 149 134 112 109 118 114
166 128 144 148 88 56 57 76 214 230 113 111 109 56 62 82 70 55 30 -16 -51 56 256 439 432 327 189 140 139 187 189 236 237 217 144 177 155 155 162 152 149 149 141 128
144 100 132 122 162 130 108 116 112 133 159 142 56 43 46 77 41 -16 -32 -43 -98 126 337 474 438 281 206 88 146 138 121 153 187 206 121 140 139 137 163 127 140 169 115 133
102 76 71 64 72 52 75 110 123 196 183 151 158 89 104 48 26 36 27 -44 -99 -76 287 484 358 248 214 5 147 113 102 115 153 170 118 114 126 133 159 130 120 174 187 130
77 72 41 70 82 71 80 83 116 137 163 144 156 124 71 112 49 20 -19 -63 -141 -178 200 519 385 160 128 85 77 49 107 107 100 111 107 95 91 112 120 136 125 153 171 173
47 61 67 61 45 79 111 164 159 147 146 123 106 70 120 115 89 61 -14 -38 -73 -127 154 434 256 283 242 178 82 48 88 112 112 66 83 94 91 92 80 113 125 137 154 173
53 30 43 19 88 156 87 142 224 200 190 127 86 113 98 92 48 30 49 19 -25 -68 36 494 218 237 152 133 85 71 126 116 115 91 76 77 105 114 103 109 124 121 135 139
2 159 94 118 99 162 111 59 99 180 89 50 36 25 60 86 84 74 23 41 -36 -48 38 286 259 215 217 248 140 137 129 134 114 84 91 83 87 105 115 114 123 132 143 134
11 70 168 143 127 197 115 66 59 113 132 87 49 68 42 44 36 49 37 40 51 -4 -14 155 347 274 252 200 215 199 139 143 102 108 100 99 102 93 116 133 138 122 130 140
-34 38 99 169 144 222 62 77 92 127 112 151 116 91 60 46 70 66 50 27 5 -7 22 27 88 143 164 196 212 176 96 72 94 79 118 151 140 134 128 124 121 134 143 159
20 16 199 152 53 82 39 58 52 34 45 65 80 66 56 40 38 45 35 55 37 36 11 23 49 76 101 196 138 82 220 259 211 193 64 98 145 109 113 165 167 157 139 155
47 44 98 38 42 69 30 49 94 43 29 22 29 46 72 107 25 10 30 38 41 22 42 8 75 137 166 149 109 180 198 198 187 166 134 121 106 89 74 68 158 212 210 161
37 28 73 58 37 26 37 67 74 35 25 55 60 61 92 61 41 31 34 42 53 37 123 73 78 170 204 203 155 153 169 202 172 151 147 150 150 132 119 128 129 156 195 301
6 11 33 59 37 3 55 61 50 59 125 100 99 61 48 58 45 34 27 23 58 117 236 209 113 211 237 246 194 148 125 130 131 143 178 211 237 217 197 215 252 318 376 400
52 33 65 59 49 66 88 111 117 85 96 85 76 70 44 46 32 26 30 24 24 73 149 190 217 179 183 141 163 177 182 129 107 132 178 224 259 229 208 237 280 289 379 471
-28 -1 32 111 113 118 103 119 118 92 49 41 37 49 35 37 34 31 28 35 35 36 43 67 139 92 129 105 85 73 96 102 93 100 134 158 196 235 277 278 299 312 297 264
5 28 37 131 83 111 143 95 88 46 71 48 12 22 44 38 48 41 37 39 38 28 53 65 68 66 89 78 76 72 73 59 47 44 57 69 93 150 214 278 242 226 261 218
-5 10 20 19 87 82 111 120 104 97 65 38 23 17 33 40 38 41 44 48 49 55 66 79 76 59 59 68 83 85 58 44 33 45 59 57 52 72 95 146 284 495 422 417

GFSCGP_con_3kmhel_105.txt.gz
Helicity
206 256 251 178 173 154 155 68 69 101 116 144 81 59 74 77 81 52 63 62 54 49 43 68 50 59 65 60 54 96 167 224 344 367 354 322 309 275 272 239 198 192 200 206
251 174 137 109 157 116 77 74 81 108 122 75 73 41 34 38 65 65 66 64 49 69 106 141 102 34 22 31 33 58 119 185 250 312 339 320 314 261 267 243 208 199 194 220
249 154 68 147 149 121 96 74 84 69 75 63 33 -3 -8 35 29 74 48 56 99 121 148 156 120 99 31 47 45 40 61 139 157 257 352 326 323 289 288 247 229 202 213 211
81 95 174 72 83 121 107 95 77 70 77 77 64 -19 63 65 41 41 63 108 126 127 113 116 113 88 64 59 48 49 63 116 146 286 318 272 244 236 250 233 218 244 220 201
101 69 67 84 83 72 85 48 55 71 81 91 76 66 0 54 80 37 76 86 74 80 95 88 99 103 86 23 34 60 98 77 163 267 266 264 202 190 209 217 205 223 176 142
123 121 77 69 106 80 74 91 103 124 103 61 54 73 -48 -20 -20 83 106 66 35 44 55 62 64 63 64 -35 -2 41 74 92 175 251 276 273 193 190 201 197 186 200 157 147
142 133 155 120 132 63 104 111 112 95 119 75 8 21 76 65 80 74 64 48 33 18 32 37 60 61 95 74 1 17 66 122 168 236 275 239 170 177 170 165 179 190 151 97
110 76 93 133 146 92 74 89 124 91 72 57 88 42 41 33 93 81 59 38 34 17 -22 -10 14 52 56 110 8 -1 84 122 178 217 206 187 162 171 162 154 138 109 96 107
166 160 93 99 93 118 153 124 105 115 109 83 95 89 69 106 84 62 27 18 19 -2 -28 -45 -3 44 50 85 19 2 85 129 165 146 182 133 164 158 139 123 110 64 50 66
190 206 152 158 72 53 50 87 127 141 100 72 56 53 56 14 26 36 30 12 -4 -21 3 -30 19 26 80 73 26 -43 60 144 168 154 92 104 142 128 112 111 89 67 65 46
148 163 152 154 174 117 72 95 132 112 119 126 89 54 32 9 25 9 -21 -28 -10 -31 -46 -66 62 -67 69 90 29 -22 68 145 152 123 73 115 119 99 94 79 69 70 75 28
110 86 126 108 102 77 106 90 86 113 107 104 87 45 66 77 9 0 -15 -15 16 14 -28 -22 47 126 195 82 56 93 143 136 145 118 91 121 93 76 75 49 52 76 76 17
71 61 78 86 91 111 110 94 92 117 97 76 84 80 89 80 73 34 15 3 21 6 -22 -87 28 216 410 86 156 162 117 131 126 117 112 122 71 64 51 23 36 66 94 60
31 48 73 95 101 85 102 85 93 89 93 81 79 61 116 95 80 75 83 54 8 -17 -60 -106 -88 236 528 173 196 96 91 123 136 117 95 90 70 49 52 23 24 52 82 98
45 -2 48 81 56 38 53 62 107 106 109 97 79 51 66 64 57 71 109 88 67 29 -96 -127 -122 220 497 337 192 16 95 129 136 112 83 73 61 53 47 29 23 42 78 95
42 73 46 59 70 74 68 78 106 76 59 65 64 40 97 76 88 88 74 9 1 -18 -3 44 -16 53 410 459 280 203 151 172 123 87 67 67 67 54 39 32 23 37 45 58
70 99 123 96 78 122 81 77 64 74 59 58 54 71 89 91 85 56 44 4 7 6 10 8 16 71 250 333 347 318 235 150 106 95 69 74 81 63 46 30 24 26 43 50
34 93 118 122 113 154 161 97 53 82 80 83 54 79 71 46 84 69 32 2 -4 -1 -28 -34 -14 59 209 268 366 285 242 216 193 165 149 120 135 102 76 42 26 23 36 66
6 -14 95 95 73 64 62 93 73 57 43 66 62 56 55 31 69 54 4 -22 -11 7 -8 -9 -6 14 87 199 448 299 311 329 306 253 289 258 212 160 101 98 66 28 55 65
4 -6 -2 84 99 99 25 69 83 25 37 57 50 49 28 74 33 11 44 32 26 2 18 61 41 46 104 133 149 144 242 207 184 127 32 -17 -15 33 132 169 110 118 130 117
9 26 -5 65 107 53 43 75 34 29 45 56 57 55 72 61 62 54 45 31 32 30 73 79 92 91 136 159 123 157 182 163 114 98 73 68 51 17 29 50 102 128 146 321
16 11 12 20 58 56 58 38 52 50 85 84 89 78 53 49 50 48 35 29 28 52 93 155 181 122 115 146 123 149 161 163 173 172 163 155 164 162 151 146 165 219 321 408
41 31 31 15 33 53 70 112 135 94 94 95 100 67 55 53 46 45 41 36 27 38 83 165 209 249 162 129 130 159 172 151 146 183 198 204 228 258 273 286 272 276 303 346
2 19 -28 24 117 104 101 132 141 115 104 85 80 63 53 37 31 35 41 36 50 53 60 76 112 193 133 65 80 44 43 57 83 96 113 138 171 202 244 257 279 268 272 299
17 12 -8 44 100 121 173 128 100 108 97 74 53 47 45 30 42 38 39 51 48 55 71 72 60 64 64 31 45 54 43 30 34 35 47 72 86 121 178 266 248 250 318 253
-11 8 20 25 105 91 99 135 126 139 103 69 43 41 51 43 32 27 31 33 42 57 75 73 79 76 71 66 58 46 19 2 -5 20 37 40 41 58 83 122 237 374 315 316

GFSCGP_con_3kmhel_108.txt.gz
Helicity
235 286 254 183 169 185 246 266 228 225 127 152 104 84 61 44 91 99 81 67 58 52 45 99 117 113 110 83 70 55 69 88 97 231 255 258 287 264 223 208 176 177 173 160
266 188 180 185 147 134 239 241 151 99 113 71 67 70 77 85 84 67 67 54 47 59 92 107 128 139 122 86 90 78 67 60 76 181 230 181 270 212 187 217 176 176 171 153
174 152 138 182 164 114 91 109 126 129 106 35 66 57 47 29 40 32 42 63 87 125 146 146 142 125 105 102 79 66 58 43 68 88 182 166 229 217 243 234 213 187 175 167
105 155 102 126 112 107 106 63 67 78 113 125 88 106 50 65 8 37 56 87 102 117 127 141 144 138 129 129 97 60 58 60 73 49 187 187 284 265 178 187 200 196 194 180
129 110 141 74 55 47 98 59 72 49 68 95 105 70 46 86 15 54 83 95 107 86 82 92 94 99 84 63 93 64 55 75 73 71 178 150 134 144 142 143 178 217 208 200
97 97 40 30 95 45 38 71 78 67 80 140 77 88 81 47 56 75 95 119 105 56 38 42 46 51 75 68 38 59 55 62 69 103 137 82 101 168 197 177 197 226 212 237
82 77 75 50 85 41 57 44 162 175 206 196 84 65 59 123 62 70 68 39 -1 16 48 61 62 55 45 69 71 43 53 63 58 106 103 80 98 143 134 146 175 197 218 241
81 102 73 85 57 33 -17 27 100 154 157 94 80 77 93 78 88 70 70 59 45 46 27 10 23 18 27 51 72 88 52 55 56 91 101 120 120 131 120 144 166 158 176 164
65 86 94 67 85 85 51 70 46 118 101 125 50 84 74 72 52 50 29 34 51 45 29 26 43 15 33 60 60 76 62 56 66 85 130 137 108 118 109 115 131 128 136 122
187 124 93 112 93 49 103 47 86 85 112 79 27 40 56 15 -1 2 -15 7 29 24 35 20 16 37 20 33 -38 16 59 81 31 93 169 163 102 89 103 117 99 114 112 76
185 181 129 76 82 47 121 95 86 105 67 86 88 50 130 61 23 -2 14 29 25 39 22 14 9 -2 29 -1 37 18 65 90 22 104 176 161 86 76 104 89 84 113 89 52
151 133 93 146 161 107 29 28 45 72 56 53 65 88 85 58 35 23 25 26 10 11 14 18 -35 -43 37 -38 142 114 57 66 22 95 138 145 91 87 98 79 82 103 72 43
151 129 71 76 65 94 84 67 30 33 88 64 61 51 43 74 38 32 32 26 19 36 59 28 -42 -20 34 11 161 123 45 34 63 102 173 143 117 97 81 66 91 83 66 31
45 30 63 75 103 115 61 57 50 36 54 43 48 46 7 39 43 50 70 123 112 66 47 24 -0 -4 36 5 169 361 74 88 162 135 193 179 123 84 70 63 88 59 66 30
70 74 58 56 59 71 81 79 59 39 42 73 84 56 136 81 96 75 68 61 46 30 31 11 -18 43 110 -54 210 459 108 144 181 224 188 146 103 82 62 64 69 49 45 36
71 59 59 60 41 50 45 35 32 35 51 54 54 50 83 107 89 66 71 55 27 42 32 6 -3 59 40 -78 198 402 191 181 117 179 182 140 101 89 87 76 65 59 39 29
74 59 53 44 50 36 30 26 26 34 64 73 60 125 111 41 51 83 84 62 32 10 -3 13 -8 52 22 35 169 298 325 126 94 187 173 85 74 82 94 87 71 58 39 35
50 77 53 41 40 56 100 80 66 76 89 72 62 69 53 47 101 79 36 -0 -35 -20 -0 27 6 18 -1 88 191 360 340 241 263 265 188 131 92 84 91 83 69 56 47 42
39 59 55 63 51 47 23 103 121 70 90 85 83 47 43 48 44 44 32 -3 -32 -22 -1 16 7 13 -32 49 229 409 472 491 439 385 337 312 276 212 124 99 75 53 44 34
46 -1 22 68 72 53 48 51 160 60 98 59 68 66 74 36 30 28 36 22 23 5 25 54 50 50 23 56 68 255 460 533 413 458 289 247 268 251 231 194 127 55 33 70
19 3 -18 -6 53 48 71 20 144 81 84 68 65 56 61 46 46 36 35 34 33 23 58 95 86 115 74 45 32 188 326 484 342 306 164 93 183 215 191 175 184 141 159 272
44 42 18 7 30 62 72 15 46 36 53 51 70 66 50 44 44 49 39 35 37 51 68 97 140 172 170 119 63 66 117 172 196 148 90 49 58 36 56 84 103 162 254 335
37 28 51 32 29 26 27 49 92 71 68 71 70 56 53 45 40 35 37 37 30 37 60 42 87 145 211 189 144 172 173 145 86 88 113 115 114 130 146 140 180 216 268 317
-8 1 3 -5 51 67 66 81 110 94 91 89 84 62 45 43 44 36 31 34 36 49 70 68 79 97 133 130 85 61 78 111 72 93 125 171 203 230 266 278 289 301 313 321
19 6 6 -8 36 74 127 123 110 103 95 92 103 83 50 33 35 28 31 35 34 48 47 56 70 84 88 77 68 54 56 37 47 26 41 77 103 151 203 250 242 250 289 238
7 -4 6 14 37 61 77 93 91 94 121 144 102 67 58 46 28 17 16 24 27 37 59 80 77 75 88 87 91 90 57 39 28 36 39 40 60 93 124 156 244 332 277 285

GFSCGP_con_3kmhel_111.txt.gz
Helicity
201 321 309 170 164 119 106 167 123 99 70 94 95 75 92 13 61 81 72 70 50 41 26 23 32 142 154 140 154 128 119 120 140 129 138 200 358 223 163 134 149 160 157 173
192 241 122 102 81 74 130 152 215 126 92 97 129 165 46 42 37 32 58 52 30 18 18 31 88 124 159 114 119 96 83 73 96 119 111 242 309 192 159 173 177 157 202 201
96 119 76 71 98 107 95 146 140 237 131 230 215 192 147 71 66 62 56 45 26 21 30 51 134 139 121 97 116 92 73 72 88 106 209 228 181 173 165 164 183 167 207 188
-3 36 6 95 82 112 112 123 103 184 199 165 179 139 96 21 106 20 28 15 28 56 107 105 100 87 91 105 136 129 104 78 86 93 166 136 226 236 167 163 191 176 174 188
26 33 37 64 77 85 98 63 119 63 76 59 83 132 126 40 30 45 -5 24 40 99 91 98 100 96 100 113 117 92 115 88 80 96 97 146 141 117 87 94 128 180 178 211
24 9 45 25 37 46 111 209 135 109 121 145 81 123 163 156 58 29 52 85 69 76 80 73 72 81 76 112 111 93 71 77 72 106 90 170 127 64 96 108 143 185 194 200
47 42 5 31 72 61 77 114 230 201 203 119 -4 70 105 43 54 24 90 55 102 88 83 60 65 90 109 74 61 62 70 67 73 88 87 166 128 58 88 116 151 151 177 207
66 32 51 40 54 94 26 61 179 150 79 75 31 113 27 -12 60 105 118 69 70 32 33 47 88 102 75 90 78 67 71 78 68 84 117 103 112 94 130 149 123 137 146 156
25 25 34 11 23 8 -14 33 -4 153 95 110 92 37 114 87 53 109 87 80 57 50 46 72 67 72 61 66 75 58 47 55 86 95 123 95 102 121 179 126 140 130 122 127
59 67 36 34 27 18 11 11 59 89 252 235 34 16 48 68 118 70 66 70 53 51 68 50 55 70 42 50 71 52 46 26 49 116 135 103 124 141 152 170 109 121 130 147
92 97 43 82 47 -2 44 38 45 32 63 132 112 75 61 36 21 25 8 44 71 50 30 42 56 30 16 22 51 52 32 49 55 168 160 116 158 166 151 139 129 134 116 125
121 54 -1 -42 35 11 24 27 -0 61 36 46 51 32 33 68 105 75 45 62 53 101 142 127 74 26 7 6 17 50 71 163 149 170 160 145 141 160 144 131 109 117 124 103
131 69 55 72 79 53 23 13 25 27 74 40 54 53 87 106 89 59 101 181 125 130 128 93 38 29 17 4 5 39 118 164 135 168 168 126 124 147 154 110 105 120 149 110
97 46 76 96 101 58 10 4 15 22 42 34 7 67 34 8 77 232 156 108 95 88 88 43 34 22 2 6 -5 60 166 194 124 149 128 119 144 175 144 101 97 127 115 101
20 27 77 21 150 112 52 16 32 29 24 23 51 100 72 76 155 159 123 62 59 60 51 32 26 21 27 26 20 124 156 193 103 90 107 148 174 165 114 105 121 124 116 96
107 40 26 12 -9 25 30 51 67 40 33 43 60 21 110 93 117 107 82 64 58 51 32 18 28 37 37 23 27 178 105 198 280 158 145 179 185 171 117 137 146 128 114 92
69 67 74 50 44 55 22 25 21 21 24 46 23 94 90 109 108 101 69 64 38 27 3 9 44 46 51 46 60 94 -4 248 217 172 146 155 173 181 177 151 132 103 93 97
76 76 69 72 13 25 71 102 84 60 137 141 103 121 113 78 84 108 63 41 28 1 26 30 49 65 54 28 3 26 -69 435 207 217 195 167 167 158 145 145 116 107 87 81
8 40 61 59 66 58 13 94 164 175 126 173 137 105 128 84 70 90 47 25 20 3 3 11 41 46 46 41 -3 55 1 440 348 321 348 361 286 232 151 137 119 112 107 104
39 39 31 51 63 73 79 115 98 212 121 118 107 112 97 13 43 58 45 36 36 19 23 36 57 78 91 99 71 -0 87 394 451 416 421 456 467 340 271 266 268 246 169 190
56 44 19 29 39 37 76 61 49 91 75 92 77 77 74 65 56 43 31 29 28 26 42 38 34 64 95 109 109 81 109 320 521 328 515 561 515 440 323 258 252 207 211 232
16 34 29 39 30 46 117 23 44 2 57 40 62 63 43 35 38 24 25 29 44 38 33 27 28 44 63 90 87 68 60 182 273 246 247 293 467 363 258 343 301 248 243 333
18 5 -0 51 19 37 22 28 71 82 34 53 50 45 33 24 30 32 30 35 44 43 47 45 38 31 37 55 62 74 107 59 102 215 141 168 198 190 250 249 156 205 283 273
4 3 -4 -9 26 28 62 87 90 90 73 73 61 37 27 23 25 36 38 35 30 42 41 50 68 59 67 61 54 81 57 -8 -9 116 174 158 193 191 255 233 253 268 277 265
16 15 3 -16 -15 -23 38 74 93 69 68 50 53 60 55 30 32 33 33 32 26 27 41 40 34 44 49 67 59 58 84 32 10 -3 15 43 94 134 186 277 298 300 351 293
25 -0 -32 13 6 -8 37 50 68 67 70 77 65 47 60 74 65 44 33 31 32 33 33 40 63 69 67 60 62 75 61 48 34 36 50 62 97 114 112 138 235 361 294 302

GFSCGP_con_3kmhel_114.txt.gz
Helicity
184 287 379 343 288 237 156 145 112 64 70 25 46 42 49 35 85 109 47 51 63 55 59 67 128 106 90 146 196 205 170 165 253 293 219 170 215 271 248 262 296 242 160 183
129 196 208 150 139 129 150 128 117 57 55 120 162 119 143 108 48 77 86 97 70 86 53 62 60 206 202 216 195 217 217 195 212 222 220 185 160 273 287 312 241 141 125 160
-39 111 63 99 87 72 86 163 125 135 155 281 110 181 276 49 54 49 49 57 68 84 46 28 36 250 259 222 217 204 173 183 147 133 211 229 357 375 354 282 180 168 193 190
25 -94 -35 34 89 -1 85 30 64 58 139 180 136 298 254 196 94 77 81 60 98 131 63 34 119 256 192 181 174 251 221 191 163 159 195 350 386 331 263 243 218 195 229 187
15 54 -45 -3 28 15 30 32 22 86 154 129 182 234 100 137 157 145 45 44 100 113 53 71 176 154 120 108 130 132 70 110 143 167 175 292 280 241 207 182 176 144 143 173
240 162 103 24 -5 -3 12 136 119 164 116 153 79 177 54 69 63 37 -27 86 143 238 249 221 183 150 117 76 109 112 78 111 97 119 149 225 212 207 218 155 144 183 164 194
112 37 84 140 37 30 124 129 246 239 159 102 20 55 46 38 36 -5 21 90 216 224 201 176 185 104 139 176 179 161 108 111 130 82 106 161 203 172 113 81 127 166 205 221
75 44 66 19 58 85 94 126 252 207 122 69 -20 74 -4 -35 -26 31 152 256 228 172 129 86 116 172 210 240 206 137 101 133 76 93 95 147 191 174 102 47 117 255 219 185
14 -14 92 149 76 78 70 49 -8 128 60 87 60 40 34 -37 66 160 121 200 167 130 80 129 110 159 183 106 87 79 74 88 61 67 103 173 263 179 96 59 154 280 192 138
-18 64 22 137 37 8 24 7 33 123 206 122 50 -6 76 59 137 93 24 25 49 73 125 132 131 138 46 11 29 39 54 39 42 50 23 172 225 136 80 78 176 199 160 150
-2 -16 96 -31 91 10 47 10 29 47 97 144 106 90 53 72 122 201 52 112 204 248 278 235 227 151 113 29 -2 20 5 16 38 60 67 200 211 121 92 94 171 250 179 163
46 -22 28 60 7 13 13 12 14 73 97 73 59 72 18 141 100 87 288 295 295 165 216 233 163 103 59 39 14 2 3 -10 28 70 192 268 207 152 107 129 185 275 183 146
2 -14 -53 -35 77 14 16 13 10 24 39 84 142 89 27 90 156 118 318 317 270 238 178 120 84 42 45 32 7 -12 -6 -25 28 87 119 174 181 173 140 159 239 260 142 105
17 -19 -38 -8 58 123 95 13 19 29 60 30 17 84 17 80 240 313 324 242 170 113 93 62 43 28 18 19 8 1 2 24 60 109 95 169 161 149 123 166 221 177 129 98
-12 1 -32 81 150 99 109 159 131 32 32 58 41 16 34 146 196 131 80 109 111 95 76 58 36 10 14 16 28 18 27 36 82 117 134 158 128 120 124 205 222 126 139 139
61 -14 37 54 63 -43 10 113 62 140 67 93 31 45 70 37 54 99 50 117 97 71 65 53 48 38 40 42 30 19 36 58 101 149 111 145 106 150 174 209 177 116 149 150
57 8 36 2 49 35 54 40 -1 15 4 34 86 59 67 50 59 43 49 72 81 92 71 47 40 32 38 33 32 21 20 59 115 190 81 156 112 114 172 199 169 164 157 150
50 64 55 35 43 27 72 146 126 165 113 143 125 144 100 27 11 35 64 80 53 44 36 20 17 28 42 58 42 18 11 35 109 285 375 236 144 129 143 188 162 180 158 143
30 41 64 67 85 45 49 126 77 105 107 230 124 45 -11 -63 2 84 80 48 39 29 23 11 11 22 40 66 54 29 28 79 147 350 469 430 337 123 192 158 170 161 154 153
50 11 45 94 72 74 123 117 106 62 72 261 217 175 53 31 63 64 46 42 38 23 10 13 9 5 28 60 59 47 74 121 212 272 373 340 404 395 365 306 270 261 274 330
36 52 31 35 43 42 139 101 67 69 74 25 144 108 144 97 62 44 39 39 40 24 15 7 -6 -8 5 35 54 68 97 143 228 220 298 299 406 508 439 399 378 335 319 360
-29 42 30 56 56 65 137 54 52 54 28 43 18 36 54 49 49 55 52 43 37 34 40 44 33 15 -1 9 54 64 50 134 156 216 233 335 332 436 565 517 517 421 447 417
6 -15 -28 -18 4 11 4 38 66 100 85 31 22 30 42 46 41 44 42 47 46 39 36 26 42 37 35 36 44 46 17 32 128 140 174 302 405 311 366 724 697 639 475 439
-9 11 -28 -50 -16 -4 34 44 95 135 116 86 84 64 38 31 37 35 33 33 28 28 40 43 25 35 37 38 56 64 25 -24 16 90 117 205 302 306 307 294 427 363 443 413
11 7 -22 -26 -10 -3 49 51 73 91 118 83 59 75 81 63 41 30 38 43 33 19 18 20 41 45 48 44 40 39 39 7 17 29 34 28 82 199 282 346 271 223 245 197
33 -0 -17 -8 -22 -46 31 47 56 52 74 90 77 44 48 84 64 51 46 39 48 42 39 40 43 47 59 74 63 64 45 39 17 7 53 58 65 88 117 155 257 338 276 302

GFSCGP_con_3kmhel_117.txt.gz
Helicity
106 165 296 163 210 379 459 368 216 186 179 96 79 92 155 171 107 88 93 84 111 64 177 129 78 81 109 125 180 192 364 379 414 401 327 336 227 197 273 280 238 223 214 242
57 201 185 105 74 153 359 431 431 159 92 33 24 129 59 201 159 89 95 114 75 94 116 108 94 91 165 256 335 356 248 288 270 262 227 277 274 229 220 255 308 335 301 286
42 133 78 106 21 65 128 346 388 241 65 168 200 118 124 148 152 137 101 88 71 117 127 123 173 254 302 292 290 297 315 233 195 170 227 314 304 319 296 301 380 362 313 286
51 106 57 24 -53 13 94 123 180 92 120 69 153 183 68 74 66 163 203 87 77 96 141 163 138 281 339 321 295 273 285 341 310 237 197 278 299 304 338 365 414 370 237 230
127 34 209 103 98 -2 48 19 87 139 91 74 118 123 28 160 178 179 215 155 100 100 131 229 166 256 202 285 311 269 266 265 284 253 197 269 318 271 363 401 360 313 263 224
241 226 60 98 -78 -8 50 -18 -2 47 196 139 86 105 24 103 151 226 229 182 102 81 122 195 233 366 525 546 520 490 460 387 325 360 303 127 227 292 360 333 302 230 179 250
194 270 212 42 26 65 110 47 82 142 170 75 20 98 62 69 92 98 100 82 137 201 237 446 600 508 504 482 446 465 454 342 271 164 171 191 209 208 296 302 271 204 131 161
-15 66 27 36 21 55 35 95 91 107 152 111 128 63 53 -2 -26 33 35 100 386 468 543 484 431 412 325 291 259 188 203 158 84 84 61 34 125 206 258 221 207 172 153 138
-17 68 264 53 10 95 143 65 76 52 60 90 69 99 71 145 48 64 188 366 304 397 311 312 303 344 328 143 47 58 71 27 38 52 42 32 53 133 192 222 176 175 133 177
-39 -11 -27 73 116 104 113 126 101 112 87 61 88 56 114 183 183 323 549 497 402 454 561 482 394 300 255 199 57 -1 -13 -2 7 31 29 52 85 130 140 226 203 169 144 229
-47 -69 61 151 105 69 67 55 55 67 149 149 114 153 -18 170 201 165 350 514 420 474 356 338 276 241 188 136 76 24 4 -7 -12 3 31 54 81 104 123 221 184 182 180 225
-24 -77 -1 33 198 39 140 44 20 36 115 90 56 94 80 109 314 356 377 293 179 208 257 250 192 158 115 69 18 -2 -28 -19 -14 14 26 60 97 101 158 192 175 181 199 272
35 -52 -30 41 68 54 39 82 -0 34 23 62 105 34 50 150 298 260 379 271 169 226 214 160 113 84 55 31 -2 -12 -19 -16 -47 -19 18 48 70 81 162 148 137 159 258 329
-38 -67 -51 -49 23 104 39 125 38 27 37 59 69 32 180 177 155 133 337 157 145 163 142 118 77 42 21 -1 -3 3 9 -8 -42 -32 32 50 37 76 125 134 141 131 302 273
2 -41 -3 8 14 105 186 101 130 86 113 54 38 28 40 77 132 199 108 130 44 65 39 25 50 47 21 13 24 28 18 4 -20 -8 47 70 26 61 130 124 133 138 236 277
56 9 17 9 52 123 147 106 161 126 186 45 51 66 66 37 62 101 162 -16 1 35 66 64 67 56 32 14 14 37 44 7 -8 11 44 93 44 31 109 114 102 155 266 319
32 32 47 9 83 114 13 134 81 73 185 127 82 75 88 125 40 55 47 64 88 74 72 64 59 54 31 26 34 39 13 -9 -5 12 55 59 177 84 103 111 128 155 269 268
51 51 33 56 72 24 -20 121 28 44 203 278 102 51 4 -52 2 36 47 39 51 54 59 55 55 61 54 41 56 41 24 2 8 33 86 62 177 172 136 149 157 205 261 248
-1 17 54 42 82 14 63 187 154 103 75 184 161 62 -42 -58 -30 26 59 55 50 44 31 24 31 41 40 46 44 36 35 30 40 82 130 93 150 197 96 133 187 256 287 303
18 -9 19 47 55 32 59 202 104 57 84 94 81 131 80 -37 15 26 66 53 28 25 29 29 23 2 1 3 11 21 9 29 45 77 154 144 97 234 330 200 210 272 403 436
16 15 8 23 34 11 114 108 63 44 54 39 4 20 105 119 81 52 47 43 34 30 51 49 41 22 12 -0 -18 -22 -17 -3 49 74 150 202 161 180 375 524 419 395 444 499
2 -6 25 26 25 44 30 26 68 44 52 24 23 19 24 37 40 41 41 52 62 63 59 50 27 32 29 22 6 -7 -21 -14 -6 109 171 279 279 172 303 645 597 568 505 501
-1 -8 -1 1 -15 -3 -4 13 27 104 94 111 80 6 31 27 32 35 33 42 46 43 48 44 27 23 30 30 13 2 -12 -8 10 24 105 193 310 340 305 460 740 687 628 595
9 13 -17 -41 10 22 31 38 53 72 111 91 87 162 60 40 43 49 32 14 7 13 26 22 32 45 56 59 40 17 17 -5 18 18 53 131 238 330 455 430 482 523 602 659
26 15 -1 -0 12 40 14 30 49 76 99 102 51 81 143 107 61 64 48 40 31 25 18 31 34 40 63 55 62 70 51 23 12 12 11 33 106 224 274 446 395 348 380 340
18 14 -0 -1 -17 -29 21 15 37 60 75 88 101 62 74 84 74 70 52 47 38 33 28 36 48 51 70 77 73 66 49 38 45 24 15 18 36 61 139 184 245 436 412 384

GFSCGP_con_3kmhel_120.txt.gz
Helicity
119 229 189 204 196 228 223 235 271 206 153 231 236 303 138 106 148 164 150 118 106 114 98 86 112 158 168 181 239 256 224 181 308 328 338 378 313 254 211 214 225 220 228 228
169 113 21 5 15 62 173 258 237 162 119 225 220 177 228 90 117 131 167 159 116 138 126 132 188 226 238 220 219 241 197 280 341 353 367 378 314 218 220 209 215 210 240 263
129 108 55 -21 28 70 128 168 216 157 79 101 207 173 151 110 95 138 199 138 106 105 95 82 91 189 217 200 143 195 279 311 354 379 448 372 306 262 299 271 229 249 251 261
85 40 42 35 114 91 239 162 162 122 90 96 111 118 111 129 110 120 193 154 122 80 112 106 220 336 334 378 418 331 331 379 356 328 306 322 274 252 237 276 264 294 267 252
155 169 180 164 201 100 226 74 55 29 27 52 180 130 32 113 61 71 89 128 99 122 67 273 474 528 620 701 758 802 746 809 744 699 471 281 243 253 239 309 287 316 292 248
226 226 118 23 77 113 69 2 -14 57 12 73 167 89 132 64 59 96 47 121 157 159 264 478 642 645 619 615 622 626 599 596 500 444 444 482 438 298 246 303 347 364 345 270
-33 29 93 24 -20 22 21 -12 -51 -48 16 57 66 107 88 100 59 47 41 84 36 104 215 415 431 454 429 459 538 493 416 402 339 266 280 243 282 310 250 241 284 295 314 344
-30 30 41 -13 -17 -13 -43 66 -104 2 43 62 49 46 34 13 28 76 120 39 160 414 343 374 458 454 466 446 409 404 361 274 205 174 128 124 137 173 179 149 199 263 259 244
-120 16 128 -50 -23 12 -65 53 22 70 109 80 61 50 73 65 114 127 210 337 516 340 578 714 522 497 507 506 474 408 304 206 125 87 67 70 100 106 70 114 116 174 216 213
-94 -37 -14 199 56 1 20 40 -1 28 27 65 56 81 134 166 367 548 566 717 881 886 749 616 570 549 394 282 193 136 131 113 91 59 -4 20 72 48 74 92 134 135 179 209
-94 -72 28 -45 54 111 95 52 29 -1 -2 22 41 96 159 151 298 515 605 631 603 561 569 506 410 337 289 196 132 104 119 122 137 77 34 34 45 46 51 90 105 145 151 211
-62 -41 73 -8 72 110 68 70 42 -58 -13 5 92 163 184 306 332 528 509 504 504 458 381 344 262 212 133 55 76 38 49 43 33 40 27 38 44 46 50 84 78 119 159 208
-22 -38 32 10 -33 -45 3 81 83 -12 11 62 122 129 221 364 411 388 228 334 338 395 464 311 150 193 157 111 83 54 29 30 27 20 18 30 46 45 67 90 134 117 169 207
-8 -27 -68 5 10 6 43 145 172 -20 16 39 40 78 109 105 307 394 372 375 230 155 139 83 90 99 85 91 72 59 81 71 43 11 -4 4 30 36 56 68 153 120 171 183
-26 -29 11 143 20 35 64 140 153 80 80 5 8 -33 -20 23 45 53 132 294 239 133 92 96 90 77 101 114 93 62 58 66 44 11 -9 1 29 53 71 57 120 131 157 156
31 21 39 52 -38 -23 111 138 134 139 215 48 41 17 43 5 52 49 15 63 150 117 48 64 97 127 128 120 97 93 87 71 35 7 -33 -25 11 64 84 75 73 118 135 154
46 57 83 25 122 -9 305 256 193 164 280 99 16 11 28 114 42 84 39 38 20 36 64 86 83 81 70 70 74 74 61 43 33 13 12 11 38 93 131 93 60 106 110 141
11 73 82 99 90 2 0 67 238 135 298 359 250 105 91 11 6 30 54 28 52 66 77 75 72 74 80 85 73 57 55 44 46 29 35 38 73 123 151 99 52 94 126 125
1 16 80 62 69 -9 9 163 93 54 42 85 60 38 -17 -2 -20 33 83 65 61 52 46 35 34 35 34 55 49 45 54 45 34 45 55 59 88 137 138 41 115 83 175 195
27 -8 6 25 19 39 42 146 52 -61 8 75 60 51 25 -39 7 35 62 51 40 28 23 24 21 26 42 44 19 -4 -1 4 22 13 52 35 76 98 67 108 122 63 228 377
23 19 36 32 19 12 59 123 74 13 16 24 19 20 34 31 32 28 28 38 42 40 45 44 39 34 44 36 19 5 -8 -15 -24 -16 1 31 60 102 114 73 250 326 549 553
25 12 24 47 23 29 58 7 35 18 82 75 22 16 30 18 26 32 29 35 43 46 50 48 31 20 22 35 20 16 15 2 -21 -25 0 68 81 120 171 66 251 490 666 604
13 3 19 3 2 16 8 16 31 67 47 56 86 81 25 39 36 26 27 30 32 23 23 23 25 32 39 44 25 12 1 -5 -4 -13 -3 21 89 151 264 203 142 569 620 647
28 16 29 18 21 28 24 23 51 70 85 59 69 129 81 54 53 50 38 33 16 15 31 30 39 61 66 42 23 2 4 10 -18 -20 2 17 43 128 245 331 266 361 648 711
35 26 23 33 30 33 29 26 30 53 80 91 64 93 106 78 72 57 62 49 37 28 31 39 49 51 68 60 43 28 19 12 2 10 -19 5 15 67 128 271 458 375 529 521
38 32 25 8 4 -3 18 10 13 26 50 71 91 97 130 98 77 61 51 53 29 29 41 48 62 67 68 62 58 48 36 21 15 12 29 -14 7 21 64 96 185 460 417 487

GFSCGP_con_3kmhel_123.txt.gz
Helicity
82 162 90 194 174 88 115 114 97 81 132 171 176 151 184 53 159 201 187 89 70 94 143 145 122 147 140 126 161 186 226 226 290 329 344 282 213 200 196 212 200 177 171 165
131 59 82 125 143 132 112 121 105 70 85 96 111 70 44 147 120 97 129 139 71 130 189 160 135 130 113 195 165 219 240 254 300 320 302 316 278 241 293 225 172 185 193 200
111 76 79 65 67 67 104 137 73 99 86 126 145 37 62 118 155 97 108 113 83 128 199 152 139 143 172 181 264 260 241 276 284 315 415 436 442 350 301 233 199 189 205 224
35 37 78 97 107 113 133 130 126 123 146 226 98 60 54 63 185 85 98 120 145 80 128 117 137 255 296 306 314 348 382 433 446 427 419 400 370 323 261 198 192 199 218 236
34 110 97 88 65 90 172 144 114 108 120 114 72 211 55 44 48 89 130 152 168 142 101 160 155 205 371 457 529 555 587 581 510 501 343 312 288 229 175 205 217 250 242 247
96 117 65 87 65 18 71 79 139 83 101 181 86 126 -116 69 20 45 79 109 205 256 303 334 452 469 590 628 689 688 713 699 612 569 482 425 384 257 263 219 217 216 270 281
14 41 64 109 110 84 196 133 84 62 49 89 -74 35 84 40 73 93 75 197 193 328 547 668 710 759 797 802 756 663 598 611 580 552 512 466 432 307 271 236 182 201 234 248
2 97 46 120 80 110 -20 101 146 -29 -3 9 -30 24 122 40 53 35 104 278 388 517 669 796 784 818 749 735 706 641 577 552 527 450 341 234 181 179 191 192 196 163 214 232
41 81 163 55 123 106 -39 76 91 21 181 71 48 31 31 114 278 326 241 413 524 548 552 611 716 679 657 634 571 451 375 333 336 294 246 206 192 179 155 155 155 129 167 187
16 50 -8 26 34 -22 -25 -13 -24 107 71 14 -1 -13 17 56 244 422 593 645 636 515 455 401 446 530 455 458 408 326 225 164 126 92 79 99 47 73 109 125 108 146 148 135
60 -13 81 16 31 67 54 -25 -24 -14 11 -1 9 -18 25 120 248 412 570 702 698 760 648 605 593 492 510 478 416 332 351 296 213 83 51 37 9 21 69 87 97 116 131 116
37 -29 31 56 -64 1 -18 -56 -58 -69 -25 -85 38 32 290 295 358 483 525 524 577 552 593 618 558 609 562 411 309 245 227 193 148 133 138 143 139 106 95 86 94 104 117 103
13 -23 -12 16 -16 21 46 28 33 -13 -52 -39 19 -15 179 339 509 543 477 494 532 550 533 604 473 369 242 147 146 123 100 78 93 114 115 94 87 76 87 74 81 114 121 101
17 10 -12 24 87 100 89 60 69 -53 -61 -13 -11 -4 64 250 221 273 235 284 225 282 250 272 390 255 293 155 88 104 101 105 101 79 81 100 103 80 65 62 77 101 119 154
-13 29 14 101 6 -4 107 52 67 70 64 -18 -28 -32 20 20 101 41 94 130 223 286 533 480 356 266 173 146 115 141 137 136 125 96 77 85 88 76 55 50 63 87 117 140
20 34 76 -0 -7 51 294 204 189 114 138 16 -10 -54 3 25 31 89 77 164 137 297 196 167 127 143 145 163 152 138 153 153 139 98 52 43 59 65 61 65 73 78 90 82
-6 24 117 49 63 -26 113 212 170 176 242 103 43 -4 -29 -45 11 26 6 9 105 26 40 76 101 100 113 119 109 103 98 89 70 68 60 50 58 56 76 91 92 104 105 83
-12 2 29 119 50 42 -7 28 -22 33 166 162 155 58 -24 -44 -55 -19 6 17 31 37 36 41 45 70 74 74 74 66 28 24 33 25 18 15 54 76 88 116 134 148 133 118
77 -11 24 69 62 -7 -19 12 19 34 36 102 57 35 -15 -13 -0 6 19 24 22 29 35 33 46 62 65 76 63 40 26 14 8 27 29 28 41 74 70 122 163 185 125 35
11 -25 -16 24 43 35 39 117 28 -50 4 36 42 41 38 34 11 -13 38 27 24 28 29 37 43 41 55 69 56 41 32 28 24 24 6 -7 -8 2 37 104 188 135 119 80
8 11 5 27 16 10 66 77 28 7 8 56 34 18 16 9 -1 -1 18 30 34 22 25 27 19 14 19 38 29 23 23 42 31 8 2 -7 -7 -23 -5 60 133 82 92 246
72 46 24 12 19 17 36 11 28 7 20 50 50 31 28 17 17 20 20 28 32 22 37 45 43 34 24 24 25 35 38 36 17 -21 -19 -12 -12 -33 -31 60 133 114 128 240
75 15 19 14 20 27 15 22 19 50 28 19 41 76 47 51 47 42 37 28 10 14 22 33 37 45 56 67 46 31 29 18 19 3 -23 -11 -7 -12 -28 95 213 148 181 246
67 36 54 30 27 26 39 34 41 47 54 50 54 84 74 80 73 59 41 30 30 24 31 26 36 52 62 57 40 23 23 17 8 4 3 -19 -26 -23 -4 59 178 209 236 257
68 59 45 38 33 27 30 31 30 27 44 70 77 86 65 58 56 48 46 50 30 24 36 31 33 37 45 47 46 37 31 14 -1 -7 3 8 -18 -6 -29 -27 99 166 275 296
69 70 69 41 26 15 34 12 7 6 31 47 49 56 81 69 59 51 32 31 46 31 41 45 40 38 45 40 32 54 43 18 1 -9 -12 -13 -7 -10 -18 -16 -22 148 241 337